[[{"header":{"parameterUnit":"m.s-1","parameterCategory":1,"la1":30.6,"la2":29.2853,"lo1":-89.7004,"lo2":-87.6739,"dy":0.0162,"dx":0.0183,"nx":112,"ny":82,"refTime":"2023-09-22T18:00:00:Z","depth":0,"parameterNumber":2,"parameterNumberName":"U-component_of_WINDS"},"data":[0.0,0.0,0.0,0.0,0.0,0.0,0.0,0.0,0.0,0.0,0.0,0.0,0.0,0.0,0.0,0.0,0.0,0.0,0.0,0.0,0.0,0.0,0.0,0.0,0.0,0.0,0.0,0.0,0.0,0.0,0.0,0.0,0.0,0.0,0.0,0.0,0.0,0.0,0.0,0.0,0.0,0.0,0.0,0.0,0.0,0.0,0.0,0.0,0.0,0.0,0.0,0.0,0.0,0.0,0.0,0.0,0.0,0.0,0.0,0.0,0.0,0.0,0.0,0.0,0.0,0.0,0.0,0.0,0.0,0.0,0.0,0.0,0.0,0.0,0.0,0.0,0.0,0.0,0.0,0.0,0.0,0.0,0.0,0.0,0.0,0.0,0.0,0.0,0.0,0.0,0.0,-2.7413,-3.1593,-3.4645,-3.5408,-3.5322,-3.2965,-2.7677,0.0,0.0,0.0,0.0,0.0,0.0,0.0,0.0,0.0,0.0,0.0,0.0,0.0,0.0,0.0,0.0,0.0,0.0,0.0,0.0,0.0,0.0,0.0,0.0,0.0,0.0,0.0,0.0,0.0,0.0,0.0,0.0,0.0,0.0,0.0,0.0,0.0,0.0,0.0,0.0,0.0,0.0,0.0,0.0,0.0,0.0,0.0,0.0,0.0,0.0,0.0,0.0,0.0,0.0,0.0,0.0,0.0,0.0,0.0,0.0,0.0,0.0,0.0,0.0,0.0,0.0,0.0,0.0,0.0,0.0,0.0,0.0,0.0,0.0,0.0,0.0,0.0,0.0,0.0,0.0,0.0,0.0,0.0,0.0,0.0,0.0,0.0,0.0,0.0,0.0,0.0,0.0,0.0,0.0,0.0,0.0,0.0,0.0,0.0,0.0,0.0,0.0,0.0,0.0,-2.6917,-3.1805,-3.3892,-3.5124,-3.5459,-3.4874,-3.2655,-2.8398,0.0,0.0,0.0,0.0,0.0,0.0,0.0,0.0,0.0,0.0,0.0,0.0,0.0,0.0,0.0,0.0,0.0,0.0,0.0,0.0,0.0,0.0,0.0,0.0,0.0,0.0,0.0,0.0,0.0,0.0,0.0,0.0,0.0,0.0,0.0,0.0,0.0,0.0,0.0,0.0,0.0,0.0,0.0,0.0,0.0,0.0,0.0,0.0,0.0,0.0,0.0,0.0,0.0,0.0,0.0,0.0,0.0,0.0,0.0,0.0,0.0,0.0,0.0,0.0,0.0,0.0,0.0,0.0,0.0,0.0,0.0,0.0,0.0,0.0,0.0,0.0,0.0,0.0,0.0,0.0,0.0,0.0,0.0,0.0,0.0,0.0,0.0,0.0,0.0,0.0,0.0,0.0,0.0,0.0,0.0,0.0,0.0,0.0,0.0,0.0,0.0,0.0,0.0,-2.5123,-2.8104,-3.2987,-3.4452,-3.4968,-3.4593,-3.4401,-3.2278,-2.7574,-2.6749,0.0,0.0,0.0,0.0,0.0,0.0,0.0,0.0,0.0,0.0,0.0,0.0,0.0,0.0,0.0,0.0,0.0,0.0,0.0,0.0,0.0,0.0,0.0,0.0,0.0,0.0,0.0,0.0,0.0,0.0,0.0,0.0,0.0,0.0,0.0,0.0,0.0,0.0,0.0,0.0,0.0,0.0,0.0,0.0,0.0,0.0,0.0,0.0,0.0,0.0,0.0,0.0,0.0,0.0,0.0,0.0,0.0,0.0,0.0,0.0,0.0,0.0,0.0,0.0,0.0,0.0,0.0,0.0,0.0,0.0,0.0,0.0,0.0,0.0,0.0,0.0,0.0,0.0,0.0,0.0,0.0,0.0,0.0,0.0,0.0,0.0,0.0,0.0,0.0,0.0,0.0,0.0,0.0,0.0,0.0,0.0,0.0,0.0,0.0,0.0,0.0,0.0,-2.7859,-2.9691,-3.3458,-3.4253,-3.4359,-3.4051,-3.4042,-3.1897,-2.6837,-2.6493,0.0,0.0,0.0,0.0,0.0,0.0,0.0,0.0,0.0,0.0,0.0,0.0,0.0,0.0,0.0,0.0,0.0,0.0,0.0,0.0,0.0,0.0,0.0,0.0,0.0,0.0,0.0,0.0,0.0,0.0,0.0,0.0,0.0,0.0,0.0,0.0,0.0,0.0,0.0,0.0,0.0,0.0,0.0,0.0,0.0,0.0,0.0,0.0,0.0,0.0,0.0,0.0,0.0,0.0,0.0,0.0,0.0,0.0,0.0,0.0,0.0,0.0,0.0,0.0,0.0,0.0,0.0,0.0,0.0,0.0,0.0,0.0,0.0,0.0,0.0,0.0,0.0,0.0,0.0,0.0,0.0,0.0,0.0,0.0,0.0,0.0,0.0,0.0,0.0,0.0,0.0,0.0,0.0,0.0,0.0,0.0,0.0,0.0,0.0,0.0,0.0,0.0,-2.8619,-3.1292,-3.4282,-3.3439,-3.3228,-3.4532,-3.3874,-3.1499,-2.7131,-2.6807,0.0,0.0,0.0,0.0,0.0,0.0,0.0,0.0,0.0,0.0,0.0,0.0,0.0,0.0,0.0,0.0,0.0,0.0,0.0,0.0,0.0,0.0,0.0,0.0,0.0,0.0,0.0,0.0,0.0,0.0,0.0,0.0,0.0,0.0,0.0,0.0,0.0,0.0,0.0,0.0,0.0,0.0,0.0,0.0,0.0,0.0,0.0,0.0,0.0,0.0,0.0,0.0,0.0,0.0,0.0,0.0,0.0,0.0,0.0,0.0,0.0,0.0,0.0,0.0,0.0,0.0,0.0,0.0,0.0,0.0,0.0,0.0,0.0,0.0,0.0,0.0,0.0,0.0,0.0,0.0,0.0,0.0,0.0,0.0,0.0,0.0,0.0,0.0,0.0,0.0,0.0,0.0,0.0,0.0,0.0,0.0,0.0,0.0,0.0,0.0,0.0,0.0,-2.7756,-3.0709,0.0,-3.3499,-3.3545,-3.404,-3.3627,-3.137,-2.6697,0.0,0.0,0.0,0.0,0.0,0.0,0.0,0.0,0.0,0.0,0.0,0.0,0.0,0.0,0.0,0.0,0.0,0.0,0.0,0.0,0.0,0.0,0.0,0.0,0.0,0.0,0.0,0.0,0.0,0.0,0.0,0.0,0.0,0.0,0.0,0.0,0.0,0.0,0.0,0.0,0.0,0.0,0.0,0.0,0.0,0.0,0.0,0.0,0.0,0.0,0.0,0.0,0.0,0.0,0.0,0.0,0.0,0.0,0.0,0.0,0.0,0.0,0.0,0.0,0.0,0.0,0.0,0.0,0.0,0.0,0.0,0.0,0.0,0.0,0.0,0.0,0.0,0.0,0.0,0.0,0.0,0.0,0.0,0.0,0.0,0.0,0.0,0.0,0.0,0.0,0.0,0.0,0.0,0.0,0.0,0.0,0.0,0.0,0.0,0.0,0.0,0.0,-2.4585,-2.7522,-3.0389,0.0,-3.295,-3.3067,-3.3499,-3.3276,-3.115,-2.6604,0.0,0.0,0.0,0.0,0.0,0.0,0.0,0.0,0.0,0.0,0.0,0.0,0.0,0.0,0.0,0.0,0.0,0.0,0.0,0.0,0.0,0.0,0.0,0.0,0.0,0.0,0.0,0.0,0.0,0.0,0.0,0.0,0.0,0.0,0.0,0.0,0.0,0.0,0.0,0.0,0.0,0.0,0.0,0.0,0.0,0.0,0.0,0.0,0.0,0.0,0.0,0.0,0.0,0.0,0.0,0.0,0.0,0.0,0.0,0.0,0.0,0.0,0.0,0.0,0.0,0.0,0.0,0.0,0.0,0.0,0.0,0.0,0.0,0.0,0.0,0.0,0.0,0.0,0.0,0.0,0.0,0.0,0.0,0.0,0.0,0.0,0.0,0.0,0.0,0.0,0.0,0.0,0.0,0.0,0.0,0.0,0.0,0.0,0.0,0.0,0.0,0.0,-2.5607,-2.8217,-3.0675,-3.2669,-3.1591,-3.1398,-3.304,-3.2722,-3.0798,0.0,0.0,0.0,0.0,0.0,0.0,0.0,0.0,0.0,0.0,0.0,0.0,0.0,0.0,0.0,0.0,0.0,0.0,0.0,0.0,0.0,0.0,0.0,0.0,0.0,0.0,0.0,0.0,0.0,0.0,0.0,0.0,0.0,0.0,0.0,0.0,0.0,0.0,0.0,0.0,0.0,0.0,0.0,0.0,0.0,0.0,0.0,0.0,0.0,0.0,0.0,0.0,0.0,0.0,0.0,0.0,0.0,0.0,0.0,0.0,0.0,0.0,0.0,0.0,0.0,0.0,0.0,0.0,0.0,0.0,0.0,0.0,0.0,0.0,0.0,0.0,0.0,0.0,0.0,0.0,0.0,0.0,0.0,0.0,0.0,0.0,0.0,0.0,0.0,0.0,0.0,0.0,0.0,0.0,0.0,0.0,0.0,0.0,0.0,0.0,0.0,0.0,0.0,-2.4632,-2.8367,-3.1292,-3.2236,-3.2165,-3.2432,-3.3333,-3.2878,-3.0999,-2.7382,0.0,0.0,0.0,0.0,0.0,0.0,0.0,0.0,0.0,0.0,0.0,0.0,0.0,0.0,0.0,0.0,0.0,0.0,0.0,0.0,0.0,0.0,0.0,0.0,0.0,0.0,0.0,0.0,0.0,0.0,0.0,0.0,0.0,0.0,0.0,0.0,0.0,0.0,0.0,0.0,0.0,0.0,0.0,0.0,0.0,0.0,0.0,0.0,0.0,0.0,0.0,0.0,0.0,0.0,0.0,0.0,0.0,0.0,0.0,0.0,0.0,0.0,0.0,0.0,0.0,0.0,0.0,0.0,0.0,0.0,0.0,0.0,0.0,0.0,0.0,0.0,0.0,0.0,0.0,0.0,0.0,0.0,0.0,0.0,0.0,0.0,0.0,0.0,0.0,0.0,0.0,0.0,0.0,0.0,0.0,0.0,0.0,0.0,0.0,0.0,0.0,0.0,-2.4296,-2.8217,-3.1054,-3.1441,-3.1839,-3.2383,-3.3176,-3.2854,-3.1508,-2.878,0.0,0.0,0.0,0.0,0.0,0.0,0.0,0.0,0.0,0.0,0.0,0.0,0.0,0.0,0.0,0.0,0.0,0.0,0.0,0.0,0.0,0.0,0.0,0.0,0.0,0.0,0.0,0.0,0.0,0.0,0.0,0.0,0.0,0.0,0.0,0.0,0.0,0.0,0.0,0.0,0.0,0.0,0.0,0.0,0.0,0.0,0.0,0.0,0.0,0.0,0.0,0.0,0.0,0.0,0.0,0.0,0.0,0.0,0.0,0.0,0.0,0.0,0.0,0.0,0.0,0.0,0.0,0.0,0.0,0.0,0.0,0.0,0.0,0.0,0.0,0.0,0.0,0.0,0.0,0.0,0.0,0.0,0.0,0.0,0.0,0.0,0.0,0.0,0.0,0.0,0.0,0.0,0.0,0.0,0.0,0.0,0.0,0.0,0.0,0.0,0.0,0.0,-2.4443,-2.7962,-3.0384,-3.0625,-3.1123,-3.177,-3.2731,-3.2781,-3.2135,-3.0733,0.0,0.0,0.0,0.0,0.0,0.0,0.0,0.0,0.0,0.0,0.0,0.0,0.0,0.0,0.0,0.0,0.0,0.0,0.0,0.0,0.0,0.0,0.0,0.0,0.0,0.0,0.0,0.0,0.0,0.0,0.0,0.0,0.0,0.0,0.0,0.0,0.0,0.0,0.0,0.0,0.0,0.0,0.0,0.0,0.0,0.0,0.0,0.0,0.0,0.0,0.0,0.0,0.0,0.0,0.0,0.0,0.0,0.0,0.0,0.0,-1.6055,0.0,0.0,0.0,0.0,0.0,0.0,0.0,0.0,0.0,0.0,0.0,0.0,0.0,0.0,0.0,0.0,0.0,0.0,0.0,0.0,0.0,0.0,0.0,0.0,0.0,0.0,0.0,0.0,0.0,0.0,0.0,0.0,0.0,0.0,0.0,0.0,0.0,0.0,0.0,0.0,0.0,-2.4634,-2.8441,-3.11,-3.1123,-3.1731,-3.2351,-3.297,-3.3019,-3.2451,-3.1151,-3.007,0.0,0.0,0.0,0.0,0.0,0.0,0.0,0.0,0.0,0.0,0.0,0.0,0.0,0.0,0.0,0.0,0.0,0.0,0.0,0.0,0.0,0.0,0.0,0.0,0.0,0.0,0.0,0.0,0.0,0.0,0.0,0.0,0.0,0.0,0.0,0.0,0.0,0.0,0.0,0.0,0.0,0.0,0.0,0.0,0.0,0.0,0.0,0.0,0.0,0.0,0.0,0.0,0.0,0.0,0.0,0.0,0.0,0.0,0.0,0.0,-1.6456,0.0,0.0,0.0,0.0,0.0,0.0,0.0,0.0,0.0,0.0,0.0,0.0,0.0,0.0,0.0,0.0,0.0,0.0,0.0,0.0,0.0,0.0,0.0,0.0,0.0,0.0,0.0,0.0,0.0,0.0,0.0,0.0,0.0,0.0,0.0,0.0,0.0,0.0,0.0,0.0,-2.4705,-2.8543,-3.1201,-3.1201,-3.1877,-3.2537,-3.3142,-3.3172,-3.3009,-3.2656,-3.1565,0.0,0.0,0.0,0.0,0.0,0.0,0.0,0.0,0.0,0.0,0.0,0.0,0.0,0.0,0.0,0.0,0.0,0.0,0.0,0.0,0.0,0.0,0.0,0.0,0.0,0.0,0.0,0.0,0.0,0.0,0.0,0.0,0.0,0.0,0.0,0.0,0.0,0.0,0.0,0.0,0.0,0.0,0.0,0.0,0.0,0.0,0.0,0.0,0.0,0.0,0.0,0.0,0.0,-1.929,-2.0067,-2.0457,-2.0268,-2.2163,-2.5393,-2.2254,-2.1849,-2.3117,0.0,0.0,0.0,0.0,0.0,0.0,0.0,0.0,0.0,0.0,0.0,0.0,0.0,0.0,0.0,0.0,0.0,0.0,0.0,0.0,0.0,0.0,0.0,0.0,0.0,-2.7365,-2.7886,0.0,0.0,0.0,0.0,0.0,0.0,0.0,0.0,0.0,0.0,0.0,0.0,-2.5267,-2.8826,-3.1261,-3.124,-3.1949,-3.2669,-3.3291,-3.3291,-3.3542,-3.425,-3.303,-3.216,0.0,0.0,0.0,0.0,0.0,0.0,0.0,0.0,0.0,0.0,0.0,0.0,0.0,0.0,0.0,0.0,0.0,0.0,0.0,0.0,0.0,0.0,0.0,0.0,0.0,0.0,0.0,0.0,0.0,0.0,0.0,0.0,-0.2075,0.0273,0.0,0.0,0.0,0.0,0.0,0.0,0.0,0.0,0.0,0.0,0.0,0.0,0.0,-0.6211,-0.7907,-1.2646,-1.6608,-1.9935,-2.4411,-2.757,-2.9476,-2.8497,-2.8256,-2.8592,-2.9386,0.0,-2.5091,-2.4302,0.0,0.0,0.0,0.0,0.0,0.0,0.0,0.0,0.0,0.0,0.0,0.0,0.0,0.0,0.0,0.0,0.0,0.0,0.0,0.0,0.0,0.0,-3.1074,-3.0415,-3.0225,-3.0071,0.0,-2.7113,-2.4673,-2.4169,-2.3996,0.0,0.0,0.0,0.0,0.0,0.0,0.0,-2.7535,-3.0153,-3.186,-3.1821,-3.242,-3.3024,-3.3502,-3.3559,-3.3858,-3.4591,-3.444,-3.371,-3.2372,-3.2122,0.0,0.0,0.0,0.0,0.0,0.0,0.0,0.0,0.0,0.0,0.0,0.0,0.0,0.0,0.0,0.0,0.0,0.0,0.0,0.0,0.0,0.0,0.0,0.0,0.0,0.0,0.0,0.0,0.0,0.0063,-0.0058,0.1915,0.2225,0.3387,0.0,0.0,0.0,0.0,0.0,0.0,0.0,0.0,0.0,-0.6297,-0.5982,-0.838,-1.3847,-1.6499,-1.9207,-2.2007,-2.6245,-2.8778,-2.9812,-3.0975,-3.1516,-3.1599,-3.195,-3.1299,-2.9758,-2.7633,-2.4087,-1.9841,0.0,0.0,0.0,0.0,-1.9165,-2.0978,-2.3777,-2.5199,0.0,-2.5785,0.0,0.0,0.0,0.0,0.0,0.0,0.0,0.0,0.0,0.0,-2.9638,-3.0449,-3.0435,-3.033,-3.0756,-2.9619,-2.814,0.0,-2.6635,-2.5904,-2.3151,0.0,0.0,0.0,0.0,0.0,-2.8306,-3.0621,-3.2162,-3.2144,-3.2669,-3.3208,-3.3577,-3.3698,-3.4055,-3.4653,-3.4693,-3.4471,-3.3987,-3.2997,-3.1556,0.0,0.0,0.0,0.0,0.0,0.0,0.0,0.0,0.0,0.0,0.0,0.0,0.0,0.0,0.0,0.0,0.0,0.0,0.0,0.0,0.0,0.0,0.0,0.0,0.0,0.0,0.0,0.0,0.0521,0.0017,0.2625,0.2122,0.3174,0.0,0.0,0.0,0.0,0.0,0.0,-0.052,0.2396,-0.0445,-1.0677,-0.8211,-1.0431,-1.8243,-1.8702,-2.0122,-2.2542,-2.6129,-2.8135,-2.8806,-3.1845,-3.3313,-3.3439,-3.3482,-3.3482,-3.3186,-3.0437,-2.7466,-2.4473,-2.2465,-2.1042,-2.0177,-2.0933,-2.2194,-2.3939,-2.6683,-2.8103,-2.8777,-2.9104,0.0,-2.7961,-2.6672,0.0,0.0,0.0,0.0,-2.672,-2.8572,-2.8857,-2.8976,-3.0293,-3.0652,-3.0849,-3.1271,-3.1307,-3.0814,0.0,-2.9419,-2.8764,-2.5956,0.0,0.0,0.0,0.0,-2.9192,-2.982,-3.1647,-3.288,-3.2967,-3.3437,-3.3894,-3.4207,-3.4385,-3.4624,-3.4969,-3.5013,-3.5078,-3.5196,-3.3961,-3.3072,-3.2666,0.0,0.0,0.0,0.0,0.0,0.0,0.0,0.0,0.0,0.0,0.0,0.0,0.0,0.0,0.0,0.0,0.0,0.0,0.0,0.0,0.0,0.0,0.0,0.0,0.0,0.0,0.0,0.0,0.0,0.0448,-0.0145,0.0,0.0,0.0,0.0,0.7659,0.7607,0.5342,0.0046,0.0226,-0.3019,-1.0664,-1.0348,-1.2099,-1.6367,-1.6785,-1.8077,-2.0371,-2.3978,-2.6716,-2.8822,-3.2294,-3.3622,-3.3288,-3.4992,-3.4827,-3.3397,-3.3119,-3.0551,-2.676,-2.6583,-2.4567,-2.1983,-2.442,-2.5837,-2.6981,-2.9916,-3.0687,-3.0319,-2.9978,-2.8483,-2.6922,-2.7653,-2.6953,0.0,0.0,-2.8298,-2.9091,-2.9903,-3.1223,-3.2127,-3.1276,-3.1907,-3.2597,-3.2071,-3.1646,-3.1518,0.0,-3.2323,-3.1846,-2.9842,0.0,-3.0002,-3.0062,-3.036,-3.1254,-3.3124,-3.3965,-3.4475,-3.473,-3.5096,-3.5497,-3.5926,-3.6036,-3.5982,-3.5777,-3.5854,-3.5721,-3.5219,-3.5302,-3.4552,-3.2827,-3.2847,0.0,0.0,0.0,0.0,0.0,0.0,0.0,0.0,0.0,0.0,0.0,0.0,0.0,0.0,0.0,0.0,0.0,0.0,0.0,0.0,0.0,0.0,0.0,0.0,0.0,0.0,0.0,0.0,-0.3987,-0.2478,0.0,0.5045,0.8433,0.964,0.798,0.7806,0.5385,-0.0092,0.1943,-0.116,-1.0827,-0.8792,-1.0416,-1.6357,-1.6526,-1.7011,-1.7834,-2.3158,-2.6194,-2.7276,-3.2467,-3.481,-3.481,-3.6011,-3.6116,-3.5515,-3.6106,-3.3763,-2.9822,-2.9374,-2.8127,-2.6681,-2.7533,-2.8224,-2.8986,-3.0285,-3.0811,-3.0891,-3.0913,-3.0482,-3.0071,-3.0419,-3.0079,-2.9786,-3.0806,-3.083,-3.0718,-3.1528,-3.1968,-3.2077,-3.1683,-3.1862,-3.228,-3.2547,-3.2515,-3.266,-3.3453,-3.3286,-3.2602,-3.1318,-3.2032,-3.2543,-3.1854,-3.2389,-3.3279,-3.4436,-3.4907,-3.5186,-3.5287,-3.5661,-3.5987,-3.6164,-3.6417,-3.6646,-3.6828,-3.6342,-3.6084,-3.6099,-3.5798,-3.5317,-3.4687,-3.4811,-3.3343,0.0,0.0,0.0,0.0,0.0,0.0,0.0,0.0,0.0,0.0,0.0,0.0,0.0,0.0,0.0,0.0,0.0,0.0,0.0,0.0,0.0,0.0,0.0,0.0,0.0,0.0,-1.0897,-0.7102,-0.3748,-0.0179,0.3869,0.8315,1.0216,0.8436,0.7006,0.422,-0.0331,0.1769,-0.1381,-1.113,-0.7781,-0.9275,-1.6527,-1.6536,-1.699,-1.8081,-2.3351,-2.6535,-2.791,-3.3149,-3.5577,-3.5694,-3.6574,-3.6855,-3.6759,-3.7324,-3.5842,-3.3174,-3.2262,-3.1337,-3.0575,-3.0521,-3.0381,-3.0253,-3.0527,-3.0717,-3.0942,-3.1157,-3.1295,-3.1382,-3.1382,-3.134,-3.1338,-3.1888,-3.1517,-3.1205,-3.2029,-3.2229,-3.2278,-3.2366,-3.2671,-3.3076,-3.3421,-3.3583,-3.3826,-3.4382,-3.4119,-3.3643,-3.2996,-3.3885,-3.4253,-3.3152,-3.4054,-3.4905,-3.5004,-3.5705,-3.6281,-3.6396,-3.6711,-3.6982,-3.7173,-3.7145,-3.7306,-3.7705,-3.6931,-3.6635,-3.7064,-3.6156,-3.5639,-3.566,-3.5515,-3.4152,-3.1571,0.0,0.0,0.0,0.0,0.0,0.0,0.0,0.0,0.0,0.0,0.0,0.0,0.0,0.0,0.0,0.0,0.0,0.0,0.0,0.0,0.0,0.0,0.0,-1.1035,-1.1189,-1.1228,-0.9012,-0.4137,0.04,0.3876,0.938,1.1605,0.8921,0.5293,0.2013,-0.0743,-0.0747,-0.4033,-1.1441,-0.78,-0.9286,-1.6697,-1.6632,-1.8115,-2.1288,-2.4577,-2.7775,-3.0911,-3.428,-3.5817,-3.5888,-3.6689,-3.7061,-3.7029,-3.6872,-3.6798,-3.666,-3.5173,-3.4128,-3.3354,-3.3354,-3.2334,-3.0969,-3.0861,-3.0699,-3.0551,-3.0692,-3.0667,-3.0593,-3.0509,-3.0551,-3.0593,-3.0558,-3.0516,-3.0648,-3.1487,-3.226,-3.2883,-3.3518,-3.4459,-3.5098,-3.4787,-3.4866,-3.4975,-3.4816,-3.4961,-3.5135,-3.5135,-3.5337,-3.5194,-3.4258,-3.5403,0.0,-3.5008,-3.6464,-3.7774,-3.8114,-3.8209,-3.8493,-3.899,-3.8285,-3.8007,-3.8407,-3.7697,-3.749,-3.8007,-3.6473,-3.5608,-3.5689,-3.4935,-3.4158,-3.3387,0.0,0.0,0.0,0.0,0.0,0.0,0.0,0.0,0.0,0.0,0.0,0.0,0.0,0.0,0.0,0.0,0.0,0.0,0.0,0.0,0.0,0.0,-2.3461,-1.808,-1.8596,-1.9352,-1.8781,-0.9216,-0.1944,-0.0134,0.6602,0.9105,0.487,0.541,0.2749,-0.4529,-0.2697,-0.4477,-1.1154,-1.0882,-1.2668,-1.6907,-1.9136,-2.0661,-2.1631,-2.6761,-2.9808,-3.1054,-3.4234,-3.6011,-3.6729,-3.7362,-3.7853,-3.8182,-3.8683,-3.8864,-3.8562,-3.6123,-3.5017,-3.482,-3.4771,-3.3882,-3.2572,-3.1699,-3.1184,-3.0965,-3.1317,-3.189,-3.2454,-3.2538,-3.2437,-3.2596,-3.3989,-3.3073,-3.213,-3.3935,-3.4301,-3.4195,-3.4345,-3.4811,-3.5131,-3.4787,-3.5102,-3.5379,-3.527,-3.5441,-3.5577,-3.5554,-3.5749,-3.6071,-3.6466,-3.6802,0.0,-3.7129,-3.7753,-3.7851,-3.6984,-3.7533,-3.7911,-3.7805,-3.8021,-3.8555,-3.9501,-3.8899,-3.8644,-3.8926,-3.8028,-3.7583,-3.7708,-3.6264,-3.5371,0.0,0.0,0.0,0.0,0.0,0.0,0.0,0.0,0.0,0.0,0.0,0.0,0.0,0.0,0.0,0.0,0.0,0.0,0.0,0.0,0.0,0.0,-2.555,-2.7738,-2.4065,-2.4466,-2.47,-2.3521,-1.2354,-0.4129,-0.2636,0.5166,0.8824,0.5648,0.3499,0.0566,-0.3536,-0.5173,-0.7674,-1.139,-1.1632,-1.3949,-1.8644,-2.0467,-2.274,-2.5432,-2.895,-3.1787,-3.399,-3.577,-3.7283,0.0,-3.916,-3.9349,-3.9217,-3.9995,-4.0053,0.0,0.0,0.0,0.0,0.0,-3.4988,-3.4569,-3.3369,-3.2662,-3.2264,-3.2111,-3.2752,-3.3495,-3.3066,-3.2823,-3.3043,-3.4668,-3.371,-3.2713,-3.4865,-3.5053,-3.4747,-3.5203,-3.5391,-3.5481,-3.5316,-3.5694,-3.6045,-3.6037,-3.6139,0.0,-3.6504,-3.6333,-3.6271,-3.6541,-3.6998,-3.7271,-3.7077,-3.7851,-3.815,-3.738,-3.7959,-3.8349,-3.8276,-3.8309,0.0,0.0,0.0,-3.8901,-3.8805,-3.8461,0.0,0.0,0.0,-3.6712,-3.7429,0.0,0.0,0.0,-3.4215,-3.4197,0.0,0.0,0.0,0.0,0.0,0.0,0.0,0.0,0.0,0.0,0.0,0.0,0.0,0.0,0.0,0.0,-2.8677,-3.1247,-2.8783,-2.9241,-2.8674,-2.5335,-1.5097,-0.7239,-0.4642,0.3556,0.8586,0.8275,0.1461,-0.2219,-0.1207,0.0,0.0,0.0,0.0,-1.5399,-2.1916,-2.206,-2.5024,-3.086,-3.1389,-3.396,-3.8277,-3.8188,-3.9068,-4.0725,-4.1354,-4.1104,-4.0288,-4.092,-4.0596,-3.9513,-3.8371,-3.7811,-3.7419,-3.5742,-3.5777,-3.6456,-3.5154,0.0,0.0,-3.3059,-3.3468,-3.4068,-3.3003,-3.2678,-3.2952,-3.4181,-3.3556,-3.3012,-3.5122,-3.5184,-3.4959,-3.5967,-3.6122,-3.6062,-3.619,-3.6533,-3.6851,-3.6939,-3.696,-3.7132,-3.7613,-3.6995,-3.629,-3.5702,-3.6767,-3.7219,-3.6121,-3.7512,-3.8548,-3.845,0.0,0.0,-3.9377,-3.8776,-3.8864,-3.9926,-3.945,-3.8885,-3.8431,-3.8472,-3.8544,-3.8593,-3.7851,-3.8248,-3.9839,-3.9839,-3.98,-3.9587,-3.5026,-3.4107,0.0,0.0,0.0,0.0,0.0,0.0,0.0,0.0,0.0,0.0,0.0,0.0,0.0,0.0,0.0,-2.7995,-3.1839,-3.3444,-3.0315,-3.3661,-3.4563,-2.9492,-2.2417,-1.551,-0.914,-0.3637,0.0852,0.399,0.541,0.1806,-0.8172,-0.9866,0.0,-2.1801,-2.3404,-2.5336,-2.785,-2.8808,-3.0545,-3.3086,0.0,0.0,-4.0001,-3.9356,-4.0057,-4.18,-4.1827,-4.2029,-4.2265,-4.1508,-4.0691,-3.988,-3.9467,-3.9201,-3.8838,-3.674,-3.638,-3.6626,-3.4666,-3.4147,-3.4364,-3.4202,-3.4749,-3.5419,-3.5168,-3.5133,0.0,-3.6934,-3.594,-3.491,-3.6841,-3.6671,-3.6077,-3.6539,-3.6808,-3.6943,-3.6991,-3.7251,-3.7488,-3.7324,-3.7287,-3.7415,-3.7721,-3.7596,-3.7487,-3.7612,-3.7977,-3.8147,-3.7917,-3.8536,-3.8578,-3.7503,-3.7933,-3.8212,-3.8024,-3.8334,-3.8967,-3.9945,-4.0226,-4.0326,-4.0286,-4.0385,-4.0469,-4.0472,-4.0316,-4.0369,-4.0674,-4.0674,-4.0325,-3.9684,-3.933,-3.9084,0.0,0.0,0.0,0.0,0.0,0.0,0.0,0.0,0.0,0.0,0.0,-2.3767,0.0,0.0,-2.8196,-3.0162,-3.3211,-3.4562,-3.2458,-3.5593,-3.6123,-3.072,-2.6107,-2.1379,-1.6519,-1.2396,-0.9125,-0.6965,-0.7774,-1.1197,-1.7696,-2.0006,-2.3299,-2.8097,-2.8651,-2.9751,-3.1494,-3.274,-3.4202,-3.5906,-3.783,-3.9816,-4.1794,-4.1437,-4.2239,-4.386,-4.3889,-4.3801,-4.349,-4.2022,-4.0949,-4.0236,-4.0142,-3.9986,-3.9678,-3.8309,-3.7905,-3.7801,-3.6572,-3.6143,-3.6096,-3.5652,-3.615,-3.6809,-3.6328,-3.6221,-3.654,-3.7848,-3.7076,-3.6146,-3.7644,-3.7451,-3.6999,-3.7379,-3.7396,-3.7377,-3.7524,-3.7666,-3.7807,-3.7843,-3.7925,-3.8056,-3.8305,-3.8431,-3.848,-3.8396,-3.8415,-3.846,-3.8535,-3.8913,-3.8888,-3.8188,-3.8577,-3.8821,-3.8611,-3.9059,-3.9624,-4.0298,-4.0563,-4.0757,-4.0848,-4.0916,-4.0962,-4.0994,-4.0992,-4.0974,-4.0907,-4.0907,-4.0694,-4.0305,-4.0714,-4.0451,0.0,0.0,0.0,0.0,0.0,0.0,0.0,0.0,-2.3467,-2.5013,-2.5785,-2.6898,-2.9469,-3.0377,-3.1117,-3.2241,-3.4273,-3.5354,-3.448,-3.6448,-3.6451,-3.2182,-3.0006,-2.7331,-2.3599,-2.1198,-1.9098,-1.7121,-2.1417,-2.4545,-2.55,-2.9338,-3.2127,-3.3405,-3.2805,-3.3436,-3.549,-3.6138,-3.736,-3.9146,-4.0564,-4.208,-4.3626,-4.3576,-4.435,-4.5753,-4.5916,-4.5371,-4.4228,-4.2633,-4.1496,-4.0768,-4.0607,-4.0449,-4.0243,-3.9608,-3.9252,-3.9034,-3.8586,-3.8245,-3.7923,-3.7136,-3.7437,-3.8005,-3.7232,-3.7015,-3.7257,-3.8227,-3.7804,-3.7243,-3.8099,-3.8032,-3.7808,-3.8168,-3.7982,-3.7808,-3.8111,-3.8176,-3.8259,-3.851,-3.8681,-3.883,-3.898,-3.9189,-3.9171,-3.877,-3.8718,-3.8718,-3.8818,-3.9091,-3.929,-3.9219,-3.9539,-3.9773,-3.9758,-4.0021,-4.0336,-4.0668,-4.0723,-4.0801,-4.0902,-4.091,-4.0937,-4.1007,-4.0972,-4.0918,-4.0869,-4.0888,-4.0888,-4.0898,-4.0898,-4.0421,-1.4229,-1.7677,-2.04,-2.1458,-2.3084,-2.5184,0.0,0.0,-2.8284,-3.0623,-3.0791,-3.1395,-3.4032,-3.4298,-3.4501,-3.5812,-3.644,-3.6469,-3.5652,-3.7278,-3.8243,-3.7179,-3.8367,-3.5826,-2.6973,-2.868,-2.688,-1.8562,-1.9191,-2.187,-2.6221,-2.8582,-3.2488,-3.8393,-3.9319,-4.0669,-4.2625,-4.1072,-4.1091,-4.2713,-4.211,-4.3111,-4.5474,-4.4763,-4.5104,-4.6221,-4.6248,-4.5604,-4.4504,-4.365,-4.2685,-4.1669,-4.0964,-4.0695,-4.0616,-3.959,-3.9319,-3.9317,-3.8439,-3.8473,-3.8792,-3.8394,-3.8469,-3.8678,-3.8432,-3.837,-3.845,-3.8818,-3.8744,-3.8582,-3.8796,-3.8609,-3.8431,-3.8664,-3.8585,-3.864,-3.9127,-3.9227,-3.9279,-3.9427,-3.9458,-3.9458,-3.9376,-3.9324,-3.9234,-3.9072,-3.9242,-3.9357,-3.9324,-3.9502,-3.9642,-3.9642,-3.9832,-4.0082,-4.0383,-4.0431,-4.0526,-4.0681,-4.0809,-4.087,-4.0901,-4.0952,-4.0999,-4.1007,-4.087,-4.082,-4.0818,-4.0804,-4.0834,-4.0907,-4.0907,-4.0441,-1.7752,-2.0913,0.0,0.0,-2.5038,-2.6867,-2.8088,-2.8772,-2.9752,-3.1725,-3.1781,-3.2141,-3.4235,-3.5245,-3.5892,0.0,-3.7449,-3.8397,-3.8344,-3.9101,-3.9527,-3.9127,-4.0648,-3.9918,-3.5138,-3.7466,-3.7681,-3.3876,-3.5013,-3.6969,-3.9447,-4.0305,-4.2002,-4.4781,-4.5137,-4.5269,-4.5312,-4.4783,-4.4705,-4.509,-4.5136,-4.5751,-4.6835,-4.6459,-4.621,-4.6064,-4.6195,-4.5601,-4.4526,-4.4298,-4.363,-4.2744,-4.2405,-4.2341,-4.2212,-4.0489,-3.9937,-3.9999,-3.9414,-3.9269,-3.9359,-3.9373,-3.9295,-3.9214,-3.9339,-3.9327,-3.932,-3.9486,-3.9476,-3.9396,-3.9421,-3.9193,-3.9043,-3.9261,-3.9082,-3.898,-3.9383,-3.9427,-3.942,-3.9427,-3.9551,-3.9647,-3.9575,-3.967,-3.9739,-3.9632,-3.9532,-3.9477,-3.9623,-3.9766,-3.992,-4.0043,-4.01,-4.0238,-4.0578,-4.0532,-4.0597,-4.0805,-4.0915,-4.0967,-4.0959,-4.0994,-4.0996,-4.1003,-4.0871,-4.081,-4.0807,-4.0796,-4.0815,-4.0848,-4.0848,-4.0654,-1.9956,0.0,0.0,-2.4696,-2.6372,-2.801,-2.8684,-2.9713,-3.096,-3.2507,-3.2608,-3.284,-3.4622,-3.6135,-3.7033,-3.6878,-3.8168,-3.9447,-4.0079,-4.0024,-3.9903,-4.001,-4.1098,-4.1495,-4.0686,-4.3015,-4.4724,-4.4993,-4.6797,-4.8195,-4.895,-4.8868,-4.8685,-4.8443,-4.8241,-4.7551,-4.6323,-4.6658,-4.6757,-4.6625,-4.7155,-4.7561,-4.7782,-4.7486,-4.6824,-4.5919,-4.6041,-4.5646,-4.4882,-4.4734,-4.4326,-4.3752,-4.3497,-4.3481,-4.3403,-4.1804,-4.1205,-4.1156,-4.0919,-4.0691,-4.054,-4.0708,-4.0482,-4.015,-4.0309,-4.0153,-3.9918,-3.9925,-3.9922,-3.9937,-3.9863,-3.9721,-3.9618,-3.9762,-3.9592,-3.9458,-3.9694,-3.9712,-3.9668,-3.969,-3.984,-3.9963,-3.9941,-4.0081,-4.0177,-4.0099,-3.9854,-3.9743,-3.9873,-4.0002,-4.0174,-4.0385,-4.0338,-4.0424,-4.0733,-4.0679,-4.0683,-4.0889,-4.0959,-4.1,-4.1006,-4.0971,-4.0967,-4.0967,-4.084,-4.0773,-4.0804,-4.0773,-4.0796,-4.0828,-4.0828,-4.0849,-1.918,0.0,-2.2476,-2.5082,-2.704,-2.8988,-3.164,-3.2266,-3.2666,-3.4187,-3.4225,-3.4582,-3.6722,-3.7559,-3.829,-3.9253,-3.8914,-3.8914,-3.9975,-3.927,-3.9032,-4.0155,-4.0485,-4.071,0.0,-4.3248,-4.5109,-4.5797,-4.7184,-4.8334,-4.9141,-4.8931,-4.8415,-4.7567,-4.7528,-4.708,-4.6123,-4.6123,-4.6489,-4.7174,-4.7203,-4.7578,-4.8257,-4.7404,-4.6596,-4.5894,-4.5906,-4.5878,-4.5802,-4.494,-4.4656,-4.467,-4.3763,-4.3479,-4.3593,-4.3513,-4.3259,-4.2933,-4.2983,-4.2912,-4.2797,-4.2729,-4.2275,-4.1709,-4.1511,-4.0858,-4.0158,-4.0042,-4.0139,-4.0251,-4.0043,-4.0133,-4.0238,-4.012,-4.0082,-4.0137,-4.0331,-4.0365,-4.0434,-4.0623,-4.0649,-4.0623,-4.0511,-4.0487,-4.0453,-4.0298,-4.0336,-4.0302,-4.012,-4.0212,-4.0392,-4.0657,-4.063,-4.0674,-4.0882,-4.089,-4.089,-4.0898,-4.096,-4.0994,-4.0994,-4.0935,-4.0897,-4.0897,-4.0769,-4.0746,-4.0803,-4.0726,-4.0769,-4.0907,-4.0907,-4.0932,-2.0072,0.0,-2.6297,-2.6394,-2.868,-3.1029,-3.179,-3.2662,-3.3547,-3.4595,-3.4688,-3.4808,-3.5829,-3.6888,-3.7705,-3.8078,-3.9498,-4.0496,-4.0282,-4.0292,-4.032,-4.0339,-4.0402,0.0,0.0,0.0,0.0,-4.5597,-4.7011,-4.8419,-4.9849,-4.9838,-4.963,-4.9301,-4.9412,-4.9084,-4.8238,-4.7779,-4.7707,-4.7983,-4.7408,-4.7236,-4.7409,-4.6578,-4.6015,-4.5712,-4.5848,-4.5769,-4.5552,-4.5399,-4.5355,-4.5357,-4.4998,-4.4982,-4.5122,-4.5168,-4.5128,-4.4917,-4.3865,-4.3416,-4.3291,-4.3265,-4.3101,-4.2915,-4.2854,-4.2537,-4.2212,-4.2299,-4.2279,-4.2223,-4.2193,-4.1847,-4.1461,-4.1324,-4.0839,-4.0458,-4.0524,-4.0511,-4.0477,-4.0538,-4.0571,-4.0557,-4.0516,-4.0505,-4.0472,-4.0389,-4.0348,-4.037,-4.0419,-4.0496,-4.0633,-4.082,-4.0863,-4.0915,-4.1016,-4.0989,-4.0979,-4.1027,-4.105,-4.1073,-4.1073,-4.1039,-4.1006,-4.0979,-4.0878,-4.0823,-4.079,-4.0778,-4.0784,-4.0843,-4.0843,-4.0848,-2.2179,-2.5183,-2.8023,-2.8044,-3.0136,-3.2244,-3.2382,-3.3381,-3.4476,-3.4942,-3.4919,-3.491,-3.5388,-3.6316,-3.7061,-3.7118,-3.9308,-4.0753,-3.9941,-4.0657,-4.1154,-4.0629,-4.0883,-4.1317,0.0,0.0,0.0,-4.4784,-4.6294,-4.7768,-4.9101,-4.9752,-4.9739,-4.8982,-4.9278,-4.8795,-4.7492,-4.7362,-4.7422,-4.7642,-4.75,-4.7198,-4.6771,-4.6329,-4.5931,-4.5586,-4.5712,-4.5645,-4.5457,-4.5493,-4.5596,-4.5677,-4.5577,-4.5688,-4.5929,-4.5956,-4.6018,-4.5932,-4.4946,-4.4531,-4.4462,-4.4464,-4.4243,-4.3955,-4.3961,-4.3669,-4.3333,-4.3428,-4.3374,-4.3294,-4.3354,-4.2985,-4.2577,-4.2519,-4.2071,-4.1662,-4.1679,-4.1637,-4.1509,-4.1199,-4.1141,-4.1044,-4.0742,-4.0653,-4.0622,-4.0597,-4.0539,-4.0532,-4.0602,-4.0703,-4.081,-4.0921,-4.0961,-4.1022,-4.108,-4.1065,-4.1052,-4.1094,-4.1093,-4.1094,-4.1107,-4.1058,-4.1011,-4.0972,-4.0907,-4.0834,-4.0796,-4.0796,-4.0808,-4.0843,-4.0843,-4.0837,-2.5112,-2.6653,-2.7794,-2.9656,-3.1196,-3.255,-3.3382,-3.4423,-3.5204,-3.531,-3.5019,-3.493,0.0,0.0,-3.6352,-3.6509,-3.8435,-3.9713,-3.9127,-4.0419,-4.1325,0.0,0.0,0.0,0.0,0.0,0.0,-4.3382,0.0,-4.6371,-4.7033,-4.8621,-4.8619,-4.6701,-4.7144,-4.6418,-4.4297,-4.5053,-4.5707,-4.6237,-4.7329,-4.7289,-4.6336,-4.6526,-4.6186,-4.5476,-4.5476,-4.5532,-4.555,-4.5302,-4.5381,-4.5638,-4.5453,-4.5623,-4.5937,-4.5893,-4.5917,-4.5994,-4.6117,-4.6173,-4.6187,-4.6184,-4.5585,-4.4861,-4.4863,-4.4293,-4.3612,-4.3551,-4.3546,-4.3559,-4.3627,-4.3619,-4.3596,-4.3643,-4.3635,-4.3604,-4.361,-4.3603,-4.3369,-4.2532,-4.2337,-4.2038,-4.1213,-4.098,-4.0915,-4.0902,-4.0909,-4.0832,-4.0649,-4.078,-4.0933,-4.0998,-4.0992,-4.1028,-4.1108,-4.1111,-4.1111,-4.1111,-4.1093,-4.1097,-4.1091,-4.0968,-4.0904,-4.0907,-4.0823,-4.0796,-4.08,-4.08,-4.0826,-4.0878,-4.0878,-4.0906,-2.4179,-2.6417,-2.8345,-2.8488,-3.0484,-3.2529,-3.3142,-3.4109,-3.4777,-3.4314,-3.4403,-3.4311,0.0,0.0,0.0,-3.5425,-3.7588,0.0,-3.9357,-4.027,0.0,-4.0782,0.0,-4.1188,-4.0923,-4.0934,0.0,0.0,-4.3444,-4.5333,-4.6745,-4.6755,-4.645,-4.5893,-4.6225,-4.5947,-4.5025,-4.5035,-4.5118,-4.5252,-4.5499,-4.5499,-4.5271,-4.5337,-4.5255,-4.5052,-4.5154,-4.5216,-4.5216,-4.5151,-4.5175,-4.5241,-4.5197,-4.5241,-4.5323,-4.5377,-4.5483,-4.5638,-4.5718,-4.5843,-4.6001,-4.6084,-4.5899,-4.566,-4.5854,-4.5682,-4.5447,-4.5484,-4.5497,-4.5495,-4.5512,-4.5021,-4.4555,-4.456,-4.4108,-4.3676,-4.3671,-4.3671,-4.3596,-4.3327,-4.2781,-4.2292,-4.2085,-4.1448,-4.0968,-4.0974,-4.0977,-4.0933,-4.084,-4.0901,-4.0982,-4.0999,-4.103,-4.1093,-4.117,-4.117,-4.117,-4.117,-4.1131,-4.1103,-4.1097,-4.1013,-4.0921,-4.083,-4.0759,-4.0723,-4.0725,-4.0725,-4.075,-4.0834,-4.0834,-4.0858,-2.6675,-2.8633,-3.024,-3.0139,-3.1883,-3.3445,-3.3172,-3.3812,-3.4192,-3.3011,-3.2975,0.0,-3.1967,0.0,0.0,0.0,0.0,0.0,-3.9506,-4.0541,-4.1151,0.0,-4.1476,0.0,-4.0931,-4.106,-4.1206,0.0,-4.2782,-4.403,-4.4887,-4.5138,-4.5037,-4.4686,-4.4872,-4.4869,-4.4581,-4.4263,-4.4175,-4.4336,-4.4373,-4.4409,-4.4401,-4.4624,-4.4707,-4.4738,0.0,-4.5061,-4.4953,-4.4857,-4.4833,-4.4862,-4.4905,-4.4953,-4.5023,-4.5125,-4.5265,-4.5399,-4.5208,-4.5389,-4.5731,-4.5949,-4.5901,-4.5813,-4.6047,-4.6034,-4.5942,-4.6045,-4.6039,-4.5984,-4.6044,-4.5653,-4.5277,-4.5321,-4.4993,-4.4663,-4.4664,-4.4664,-4.4547,-4.4114,-4.337,-4.2683,-4.2327,-4.1826,-4.1343,-4.097,-4.0906,-4.0908,-4.0859,-4.0937,-4.0996,-4.0996,-4.1051,-4.1099,-4.1119,-4.1144,-4.1146,-4.1119,-4.1072,-4.1065,-4.1058,-4.0929,-4.0827,-4.0762,-4.0696,-4.0674,-4.0688,-4.0688,-4.072,-4.0752,-4.0752,-4.0757,-3.0061,-3.1378,-3.211,-3.2612,-3.3762,-3.4448,-3.324,-3.3531,-3.3597,-3.1813,0.0,-3.1182,-3.0774,-3.2559,-3.4202,-3.435,0.0,-3.9461,-3.9554,-4.0764,-4.1527,-4.1154,-4.2159,-4.243,-4.1375,-4.1656,-4.1916,-4.1868,-4.2328,-4.2634,-4.2675,-4.3713,-4.3964,-4.3315,-4.3458,-4.3561,-4.3513,-4.3224,-4.3245,-4.3545,-4.3732,-4.3818,-4.3769,-4.4233,-4.4444,-4.4471,0.0,0.0,-4.4676,-4.4438,-4.443,-4.4519,-4.4572,-4.4676,-4.48,-4.4896,-4.5052,-4.5118,-4.4682,-4.4868,-4.5341,-4.5684,-4.5699,-4.5587,-4.5802,-4.5783,-4.5678,-4.5822,-4.5774,-4.5716,-4.5838,-4.5682,-4.555,-4.5664,-4.5715,-4.5721,-4.5733,-4.5816,-4.5679,-4.4913,-4.4072,-4.3241,-4.2545,-4.2253,-4.185,-4.1095,-4.087,-4.0805,-4.0805,-4.0905,-4.0988,-4.0988,-4.1055,-4.1078,-4.1028,-4.1074,-4.1078,-4.1003,-4.0992,-4.0986,-4.0961,-4.081,-4.0707,-4.0688,-4.0623,-4.0621,-4.0687,-4.0687,-4.07,-4.07,-4.07,-4.0668,-2.9474,-3.0405,-3.0971,-3.136,-3.2613,-3.3607,-3.3196,-3.3531,0.0,0.0,-3.1187,-3.1039,-3.0141,-3.1237,-3.2692,-3.3939,0.0,0.0,0.0,0.0,-4.0392,0.0,0.0,0.0,0.0,0.0,0.0,0.0,0.0,-4.1168,-4.2594,-4.2676,-4.2525,-4.219,-4.2638,-4.2765,-4.2546,-4.2905,-4.314,-4.3212,-4.3385,-4.352,-4.3553,-4.3886,-4.403,-4.4072,-4.4151,0.0,-4.414,-4.4109,-4.4079,-4.4109,-4.414,-4.4121,-4.4151,-4.4181,-4.4318,-4.4465,-4.4374,-4.4457,-4.4657,-4.509,-4.5304,-4.54,-4.558,-4.5561,-4.5478,-4.5597,-4.5626,-4.5626,-4.5647,-4.5151,-4.4621,-4.4652,-4.4741,-4.4832,-4.4832,-4.5395,-4.5862,-4.5696,-4.4967,-4.4335,-4.4198,-4.3024,-4.2044,-4.1888,-4.1256,-4.08,-4.08,-4.0866,-4.0915,-4.0922,-4.1028,-4.1105,-4.1081,-4.1088,-4.1078,-4.1003,-4.0955,-4.0894,-4.0839,-4.0754,-4.0675,-4.061,-4.0545,-4.0549,-4.0621,-4.0621,-4.0654,-4.07,-4.07,-4.07,-3.0829,-3.1408,-3.2001,-3.3192,-3.391,-3.4041,-3.3131,0.0,0.0,0.0,-2.9512,-2.9653,-2.8558,0.0,0.0,0.0,0.0,0.0,0.0,0.0,0.0,0.0,0.0,0.0,0.0,0.0,0.0,0.0,0.0,-4.0892,-4.1285,-4.1503,-4.1552,-4.1436,-4.1941,-4.2151,-4.205,-4.2378,-4.2537,-4.2598,-4.2655,-4.2693,-4.2772,-4.3032,-4.3177,-4.3248,-4.3422,0.0,-4.3371,-4.3371,-4.3336,-4.3303,-4.3471,-4.359,-4.3646,-4.3572,-4.3831,-4.4173,-4.3754,-4.3943,-4.4355,-4.4463,-4.4606,-4.4795,-4.5126,-4.5086,-4.4916,-4.5168,-4.5109,-4.5006,-4.5069,-4.4743,-4.4416,-4.4478,-4.4557,-4.4614,-4.4688,-4.5105,-4.55,-4.5568,-4.5326,-4.4984,-4.4525,-4.3772,-4.2955,-4.2124,-4.1654,-4.121,-4.0746,-4.0754,-4.081,-4.0839,-4.0933,-4.0974,-4.0902,-4.0961,-4.0961,-4.0849,-4.082,-4.0779,-4.0742,-4.0648,-4.0583,-4.0549,-4.0519,-4.0519,-4.0549,-4.0549,-4.0564,-4.0598,-4.0598,-4.0569,-3.2088,-3.2731,-3.3342,-3.4705,-3.5096,-3.4588,-3.2796,-3.2307,0.0,0.0,-2.7977,-2.8313,-2.7539,0.0,-3.0738,0.0,0.0,0.0,0.0,0.0,0.0,0.0,0.0,0.0,0.0,0.0,0.0,0.0,0.0,0.0,-4.0449,-4.0943,-4.1192,-4.1117,-4.156,-4.178,-4.1692,-4.1858,-4.1884,-4.1831,-4.1823,-4.1892,-4.1966,-4.2042,-4.2174,-4.2291,-4.2431,0.0,0.0,-4.2247,-4.217,-4.2109,-4.2378,-4.2649,-4.2868,-4.2576,-4.307,-4.3735,-4.2941,-4.3206,-4.3862,-4.3646,-4.3873,-4.4279,-4.4624,-4.4572,-4.4411,-4.4676,-4.4546,-4.4383,-4.4493,-4.4307,-4.412,-4.4263,-4.429,-4.4398,-4.4688,-4.4872,-4.4973,-4.4891,-4.4996,-4.4825,-4.3981,-4.3828,-4.3387,-4.2119,-4.1773,-4.1445,-4.077,-4.0562,-4.0516,-4.0604,-4.0761,-4.083,-4.0732,-4.0829,-4.082,-4.0713,-4.07,-4.0687,-4.066,-4.0569,-4.0489,-4.0489,-4.0489,-4.0489,-4.0489,-4.0489,-4.0473,-4.0441,-4.0457,-4.0375,-3.1809,-3.285,-3.3709,-3.3123,-3.4101,-3.4583,-3.181,0.0,0.0,-2.8509,-2.7801,-2.7856,-2.8498,-2.8965,-2.9864,-3.1863,0.0,-3.3533,0.0,0.0,0.0,0.0,0.0,0.0,0.0,0.0,0.0,0.0,0.0,0.0,-4.171,-4.1858,-4.1797,-4.156,-4.1692,-4.1692,-4.1426,-4.156,-4.1408,-4.0943,-4.123,-4.1375,-4.1438,-4.099,-4.1078,-4.1538,-4.078,0.0,0.0,-4.0436,-4.0436,-4.0436,-4.0455,-4.0924,-4.1501,-4.0726,-4.1448,-4.2639,-4.1823,-4.2021,-4.2559,-4.2537,-4.33,-4.4192,-4.425,-4.425,-4.4221,-4.425,-4.425,-4.4221,-4.4221,-4.3689,-4.3147,-4.3292,-4.3318,-4.3551,-4.4429,-4.4631,-4.443,-4.3636,-4.3491,-4.325,-4.2437,-4.23,-4.2262,-4.2111,-4.1406,-4.0919,-4.0956,-4.0274,-3.9842,-3.9964,-4.0482,-4.0798,-4.0796,-4.0798,-4.0784,-4.07,-4.07,-4.066,-4.0519,-4.0504,-4.0489,-4.0489,-4.0489,-4.0489,-4.0489,-4.0489,-4.0408,-4.0233,-4.0288,-4.0177,-3.2536,-3.3422,-3.4066,-3.4711,-3.4862,-3.4457,-3.2766,0.0,-3.0386,-2.8208,-2.7371,-2.721,-2.759,-2.7814,-2.8563,-3.026,-3.109,0.0,0.0,0.0,0.0,0.0,0.0,0.0,0.0,0.0,0.0,0.0,0.0,0.0,-4.0754,-4.0417,-4.0269,-4.04,-4.0514,-4.0563,-4.0417,-4.0563,-4.0707,-4.0802,-4.0926,-4.1202,-4.1516,-4.12,-4.1029,-4.0895,-4.0453,0.0,0.0,-3.966,-3.966,-3.9713,-4.0175,-4.0402,-4.0506,-4.0913,-4.1395,-4.1851,-4.1739,-4.2047,-4.2494,-4.2436,-4.279,-4.3266,-4.3505,-4.3523,-4.3493,-4.3923,-4.3892,-4.3777,-4.3777,-4.3536,-4.331,-4.3354,-4.3386,-4.3509,-4.4016,-4.4202,-4.4168,-4.396,-4.3992,-4.3983,-4.3662,-4.3605,-4.341,-4.2907,-4.2095,-4.142,-4.0995,-4.022,-3.9709,-3.9731,-4.008,-4.0287,-4.0206,-4.0271,-4.0307,-4.0283,-4.0175,-4.0212,-4.0427,-4.0321,-4.0286,-4.0321,-4.0321,-4.025,-4.0082,-4.012,-4.0101,-4.0022,-4.0101,-4.0021,-3.24,-3.3421,-3.4314,-3.5337,-3.5044,-3.4189,0.0,0.0,-2.9666,-2.7731,-2.6896,-2.6597,-2.683,-2.724,-2.7916,-2.9154,-3.0028,-3.1035,-3.2514,0.0,0.0,0.0,0.0,0.0,0.0,0.0,0.0,0.0,0.0,0.0,0.0,-3.9061,-3.9016,-3.9378,-3.948,-3.943,-3.9227,-3.931,-3.961,-4.001,-4.001,-4.0323,-4.0879,-4.0353,-3.9963,-3.9668,0.0,0.0,0.0,-3.8208,-3.8208,-3.826,-3.8816,-3.8988,-3.8965,-3.9565,-4.0295,-4.0854,-4.0752,-4.1261,-4.1966,-4.1906,-4.1906,-4.2021,-4.235,-4.2591,-4.2826,-4.3267,-4.3138,-4.2813,-4.2867,-4.2702,-4.2519,-4.2519,-4.2519,-4.2627,-4.2953,-4.3106,-4.325,-4.346,-4.3515,-4.3524,-4.3559,-4.3652,-4.3548,-4.3081,-4.2321,-4.1616,-4.1098,-4.0084,-3.9427,-3.9427,-3.9566,-3.97,-3.9735,-3.9846,-3.9868,-3.9882,-3.9754,-3.9819,-4.0139,-4.0022,-3.9963,-4.0022,-4.0022,-3.9943,-3.9735,-3.9797,-3.9794,-3.9728,-3.9835,-3.9788,-3.109,-3.2709,-3.4278,-3.3922,-3.4002,-3.3743,0.0,-3.0117,-2.8553,-2.7287,-2.6367,-2.6012,-2.6691,-2.7457,-2.8296,-2.9149,-2.9369,-3.0129,-3.2192,0.0,0.0,0.0,0.0,0.0,0.0,0.0,0.0,0.0,0.0,0.0,0.0,-3.8391,-3.8569,-3.892,-3.8886,-3.8597,-3.795,-3.7933,-3.7999,-3.8112,-3.8112,-3.8493,-3.9156,-3.7715,-3.7336,0.0,0.0,0.0,0.0,-3.565,-3.565,-3.565,-3.565,-3.609,-3.6632,-3.5938,-3.7376,-3.9543,-3.8295,-3.9075,-4.0628,-4.0628,-4.0514,-4.0439,-4.0672,-4.151,-4.2378,-4.2239,-4.1725,-4.1253,-4.1387,-4.0813,-4.0238,-4.0238,-4.0238,-4.0417,-4.1074,-4.1253,-4.1312,-4.1577,-4.1294,-4.1061,-4.1107,-4.1411,-4.1814,-4.2252,-4.1625,-4.1158,-4.128,-3.9847,-3.8862,-3.8979,-3.895,-3.9091,-3.9552,-3.9599,-3.9599,-3.9599,-3.9599,-3.9599,-3.9599,-3.9599,-3.9599,-3.9599,-3.9599,-3.9599,-3.9599,-3.9599,-3.95,-3.9324,-3.9502,-3.9452,-3.0244,-3.1142,-3.182,-3.2021,-3.1901,-3.1375,-2.9943,-2.8985,-2.7801,-2.5935,-2.5336,-2.5268,-2.5806,-2.5805,-2.6374,-2.8297,-2.8126,-2.8511,0.0,0.0,0.0,0.0,0.0,0.0,0.0,0.0,0.0,0.0,0.0,0.0,0.0,-3.8391,-3.8446,-3.8553,-3.806,-3.7699,-3.7485,-3.7485,-3.7458,-3.74,-3.7864,-3.8169,-3.8302,-3.7733,0.0,0.0,0.0,0.0,0.0,-3.5616,-3.5616,-3.5667,-3.6158,-3.6209,-3.6056,-3.6869,-3.7352,-3.7631,-3.7686,-3.8156,-3.8755,-3.8659,-3.8642,-3.8853,-3.9669,-4.0963,-4.1985,-4.1733,-4.1115,-4.0524,-4.0561,-4.0381,-4.0327,-4.0753,-4.0879,-4.1074,-4.1743,-4.1882,-4.1922,-4.1984,-4.216,-4.2042,-4.1266,-4.1615,-4.1757,-4.0799,-4.0201,-3.9797,-3.9534,-3.8837,-3.8332,-3.8364,-3.859,-3.8862,-3.9091,-3.9119,-3.9173,-3.9234,-3.9146,-3.9181,-3.9513,-3.9352,-3.9282,-3.9389,-3.9389,-3.9313,-3.9119,-3.9173,-3.9192,-3.9165,-3.9219,-3.9192,-2.9363,-3.0119,-3.0602,-3.0984,-3.0359,0.0,-2.8674,-2.7634,-2.6459,-2.5137,-2.4716,-2.4714,-2.5087,-2.5108,-2.5586,-2.7164,-2.7328,-2.7881,0.0,0.0,0.0,0.0,0.0,0.0,0.0,0.0,0.0,0.0,0.0,0.0,0.0,-3.7432,-3.7215,-3.7086,-3.698,-3.6675,-3.6108,-3.6108,-3.6169,-3.6403,-3.683,-3.71,-3.7286,-3.6937,0.0,0.0,0.0,0.0,0.0,-3.5021,-3.5021,-3.5071,-3.5568,-3.5468,-3.5138,-3.6102,-3.6463,-3.6441,-3.6588,-3.697,-3.7384,-3.717,-3.7134,-3.734,-3.8306,-3.9779,-4.0955,-4.0095,-3.9741,-3.9647,-3.9589,-3.9726,-3.9964,-4.0384,-4.0491,-4.0682,-4.1339,-4.1456,-4.1587,-4.1997,-4.2175,-4.2007,-4.126,-4.1445,-4.125,-4.0083,-3.9481,-3.9049,-3.8832,-3.833,-3.8034,-3.8153,-3.8387,-3.8546,-3.8603,-3.8743,-3.8851,-3.895,-3.8822,-3.8892,-3.921,-3.9036,-3.898,-3.9073,-3.9073,-3.9007,-3.8822,-3.8851,-3.8921,-3.9017,-3.9017,-3.9017,0.0,-2.95,-3.0253,-3.0514,0.0,0.0,-2.7827,-2.6214,0.0,-2.4672,-2.4447,-2.4313,-2.4508,-2.5062,-2.5623,-2.5905,-2.6844,0.0,0.0,0.0,0.0,0.0,0.0,0.0,0.0,0.0,0.0,0.0,0.0,0.0,0.0,-3.5848,-3.5244,-3.4908,-3.5671,-3.5453,-3.4081,-3.4064,-3.4438,-3.5104,-3.5101,-3.5457,-3.6071,-3.5376,0.0,0.0,0.0,0.0,0.0,-3.405,-3.405,-3.405,-3.405,-3.405,-3.405,-3.405,-3.4791,-3.5696,-3.4933,-3.5425,-3.6313,-3.6068,-3.5955,-3.5943,-3.6539,-3.7961,-3.9123,-3.7631,-3.781,-3.8466,-3.8326,-3.8669,-3.8961,-3.9013,-3.9073,-3.9301,-3.9957,-4.0132,-4.0456,-4.147,-4.1288,-4.0998,-4.0998,-4.0689,-4.0335,-3.9761,-3.9185,-3.8795,-3.8741,-3.8115,-3.7862,-3.8189,-3.8223,-3.8223,-3.8068,-3.8433,-3.8676,-3.8676,-3.8676,-3.8658,-3.8707,-3.8658,-3.8676,-3.8676,-3.8676,-3.8658,-3.8707,-3.8707,-3.875,-3.8833,-3.8833,-3.8833,-2.6585,0.0,-2.8529,-2.842,-2.7703,-2.6852,0.0,-2.5267,-2.4563,-2.3368,-2.3435,-2.3771,-2.4027,-2.3881,-2.4119,-2.5412,-2.5905,0.0,0.0,0.0,0.0,0.0,0.0,0.0,0.0,0.0,0.0,0.0,0.0,0.0,0.0,-3.5137,-3.4951,-3.4845,-3.4596,-3.4187,-3.3568,-3.4036,-3.4197,-3.4053,-3.4372,-3.4436,-3.431,-3.3926,0.0,0.0,0.0,0.0,-3.3503,-3.3607,-3.3607,-3.3503,-3.3607,-3.3607,-3.3503,-3.3503,-3.3702,-3.3882,-3.3689,-3.3852,-3.4069,-3.4017,-3.4558,-3.5112,-3.4133,-3.4805,-3.593,-3.6139,-3.5935,-3.5673,-3.5609,-3.5702,-3.59,-3.6424,-3.6874,-3.7359,-3.8031,-3.8487,-3.8849,-3.9112,-3.9319,-3.9303,-3.8846,-3.9233,-3.914,-3.781,-3.7731,-3.7626,-3.6986,-3.7023,-3.7208,-3.745,-3.7685,-3.781,-3.781,-3.8086,-3.8252,-3.8252,-3.8252,-3.8368,-3.8676,-3.8401,-3.8252,-3.8252,-3.8252,-3.8401,-3.8707,-3.8707,-3.8546,-3.83,-3.83,-3.8117,-2.5711,-2.6266,-2.6737,-2.6887,-2.6258,-2.5389,-2.476,-2.4359,-2.3822,-2.2569,0.0,-2.2866,-2.3134,-2.3382,-2.3817,-2.4747,-2.6251,0.0,0.0,0.0,0.0,0.0,0.0,0.0,0.0,0.0,0.0,0.0,0.0,0.0,0.0,-3.3426,-3.2959,-3.2819,-3.2665,-3.2906,-3.3529,-3.3583,-3.3625,-3.371,-3.3625,-3.3502,-3.3298,-3.3049,-3.3011,0.0,0.0,0.0,-3.3309,-3.3398,-3.3361,-3.3309,-3.3398,-3.3346,-3.3309,-3.3309,-3.3309,-3.3309,-3.315,-3.2812,-3.2453,-3.2453,-3.2678,-3.2832,-3.2012,-3.2275,-3.3029,-3.4201,-3.4774,-3.502,-3.4923,-3.5316,-3.5842,-3.6208,-3.6504,-3.6831,-3.7184,-3.7896,-3.8418,-3.8108,-3.8894,-3.929,-3.8252,-3.8481,-3.8459,-3.7466,-3.7336,-3.7136,-3.6654,-3.6533,-3.6499,-3.6391,-3.6284,-3.6324,-3.6567,-3.6734,-3.7095,-3.7773,-3.7844,-3.7913,-3.8135,-3.7948,-3.7844,-3.7844,-3.7844,-3.7913,-3.8135,-3.8135,-3.8034,-3.7844,-3.7844,-3.7721,-2.5224,-2.5423,-2.5604,-2.6046,-2.5321,-2.4433,-2.4354,-2.3738,0.0,0.0,0.0,0.0,-2.2602,-2.3378,0.0,0.0,0.0,0.0,0.0,0.0,0.0,0.0,0.0,0.0,0.0,0.0,0.0,0.0,0.0,0.0,0.0,-3.1427,-3.0629,-3.0585,-3.0807,-3.1694,-3.3366,-3.2803,-3.2803,-3.3351,-3.2788,-3.2571,-3.2571,-3.2422,-3.2367,0.0,0.0,0.0,-3.2958,-3.2958,-3.2958,-3.2958,-3.3011,-3.3081,-3.3027,-3.3134,-3.3081,-3.2973,-3.2648,-3.2007,-3.1364,-3.1364,-3.094,-3.0524,-3.0524,-3.0524,-3.0748,-3.212,-3.3662,-3.4845,-3.4587,-3.5421,-3.6304,-3.6419,-3.6455,-3.6455,-3.6571,-3.7403,-3.8002,-3.7444,-3.8667,-3.9391,-3.8224,-3.8021,-3.7973,-3.7797,-3.7334,-3.7012,-3.6876,-3.629,-3.5778,-3.5503,-3.4826,-3.4634,-3.522,-3.5232,-3.5732,-3.6978,-3.725,-3.7395,-3.7432,-3.734,-3.734,-3.7432,-3.734,-3.734,-3.7451,-3.7451,-3.7414,-3.7377,-3.7377,-3.7358,-2.4264,-2.5541,-2.6703,-2.656,-2.64,-2.5987,-2.5075,-2.3792,-2.2636,0.0,0.0,0.0,0.0,-2.4113,0.0,0.0,0.0,0.0,0.0,0.0,0.0,0.0,0.0,0.0,0.0,0.0,0.0,0.0,0.0,0.0,0.0,-3.0251,-3.0421,-3.1057,-3.0674,-3.0866,-3.1823,-3.1465,-3.1465,-3.1762,-3.1465,-3.1407,-3.1592,-3.1349,-3.1248,-3.1248,0.0,-3.1364,-3.1364,-3.1465,-3.1407,-3.1233,-3.1879,-3.1992,-3.1823,-3.2342,-3.2216,-3.1709,-3.1058,-3.0748,-3.0644,-3.0644,-3.0584,-3.0524,-3.0524,-3.0524,-3.0569,-3.0822,-3.1452,-3.2099,-3.2042,-3.2567,-3.324,-3.3817,-3.3871,-3.3958,-3.4494,-3.5174,-3.5603,-3.5491,-3.6144,-3.6878,-3.7107,-3.7172,-3.7297,-3.7633,-3.7145,-3.6705,-3.6743,-3.5654,-3.5207,-3.5899,-3.4794,-3.4278,-3.5012,-3.4873,-3.4882,-3.5128,-3.6151,-3.6821,-3.6978,-3.6586,-3.6586,-3.6978,-3.6586,-3.6689,-3.7342,-3.7155,-3.7002,-3.6825,-3.6825,-3.6684,-2.3584,-2.4538,-2.5654,-2.6221,-2.7302,-2.7824,-2.6329,-2.541,-2.4587,0.0,0.0,0.0,0.0,0.0,0.0,0.0,0.0,0.0,0.0,0.0,0.0,0.0,0.0,0.0,0.0,0.0,0.0,0.0,0.0,0.0,0.0,0.0,-2.9546,-3.0025,-2.9794,-2.9808,-3.0176,-3.019,-3.0598,-3.1465,-3.094,-3.0807,-3.0911,-3.0718,-3.0613,-3.0613,0.0,-3.1029,-3.1029,-3.1014,-3.0955,-3.0955,-3.119,-3.1248,-3.1131,-3.1276,-3.1233,-3.094,-3.0644,-3.0269,-2.995,-2.995,-2.9718,-2.9498,-2.9498,-2.9498,-2.9498,-2.9498,-3.0222,-3.094,-3.094,-3.1407,-3.2012,-3.2315,-3.2875,-3.3372,-3.3699,-3.4762,-3.5577,-3.5218,-3.6197,-3.7046,-3.6982,-3.6982,-3.7166,-3.7737,-3.6918,-3.6234,-3.6237,-3.502,-3.4239,-3.428,-3.3378,-3.3045,-3.3715,-3.366,-3.4089,-3.5125,-3.5753,-3.6097,-3.6182,-3.6011,-3.5968,-3.6182,-3.5968,-3.6037,-3.6381,-3.6357,-3.6291,-3.6224,-3.6308,-3.6284,-2.2987,-2.3594,-2.4465,-2.5241,-2.6988,-2.8254,-2.7373,-2.6573,-2.5756,0.0,0.0,0.0,0.0,0.0,0.0,0.0,0.0,0.0,0.0,0.0,0.0,0.0,0.0,0.0,0.0,0.0,0.0,0.0,0.0,0.0,0.0,0.0,-2.8908,-2.9162,-2.9162,-2.9162,-2.9162,-2.9289,-2.9884,-3.094,-3.0478,-3.0222,-3.0162,-3.0129,-3.0068,-3.0007,-3.0493,-3.0673,-3.0613,-3.0539,-3.0478,-3.0553,-3.0539,-3.0644,-3.0703,-3.0389,-3.0269,-3.0269,-3.0086,-2.9718,-2.9282,-2.9282,-2.8994,-2.8587,-2.8587,-2.8522,-2.8471,-2.8471,-2.9121,-2.9889,-3.0208,-3.0748,-3.1278,-3.1441,-3.2148,-3.2783,-3.3138,-3.4454,-3.5459,-3.5159,-3.6469,-3.7419,-3.6979,-3.6883,-3.7074,-3.7632,-3.6614,-3.5812,-3.5828,-3.4471,-3.3382,-3.3012,-3.2241,-3.2047,-3.2658,-3.2707,-3.3405,-3.5052,-3.5287,-3.5379,-3.5515,-3.5532,-3.5577,-3.5711,-3.5577,-3.5577,-3.5667,-3.5684,-3.5728,-3.5817,-3.5905,-3.5975,-2.247,-2.331,-2.4164,-2.3645,-2.4382,-2.5787,-2.7707,-2.5988,0.0,-2.4882,0.0,0.0,0.0,0.0,0.0,0.0,0.0,0.0,0.0,0.0,0.0,0.0,0.0,0.0,0.0,0.0,0.0,0.0,0.0,0.0,0.0,0.0,0.0,-2.9352,-2.9352,-2.9352,-2.9352,-2.9415,-2.9352,-2.9275,-2.9401,-2.9401,-2.9226,-2.9352,-2.9352,-2.9226,-2.954,-2.9602,-2.954,-2.9477,-2.9415,-2.9275,-2.9699,-3.0176,-3.045,-2.9827,-2.9566,-2.9518,-2.8944,-2.8716,-2.8651,-2.8651,-2.8651,-2.8587,-2.8587,-2.8406,-2.8145,-2.8145,-2.7934,-2.8026,-2.9268,-3.0072,-3.0729,-3.1372,-3.1095,-3.1057,-3.2332,-3.3141,-3.388,-3.4475,-3.5674,-3.66,-3.6538,-3.6538,-3.6723,-3.7178,-3.6059,-3.5331,-3.5774,-3.4037,-3.3028,-3.3754,-3.2611,-3.2047,-3.2658,-3.2707,-3.3028,-3.3799,-3.4284,-3.4754,-3.5237,-3.5304,-3.5503,-3.5975,-3.5549,-3.5458,-3.5773,-3.5611,-3.5611,-3.5817,-3.5817,-3.5905,-2.1897,-2.2861,-2.375,-2.32,-2.398,0.0,0.0,-2.5845,-2.5026,-2.5268,-2.5001,0.0,0.0,0.0,0.0,0.0,0.0,0.0,0.0,0.0,0.0,0.0,0.0,0.0,0.0,0.0,0.0,0.0,0.0,0.0,0.0,0.0,0.0,-2.8182,-2.8078,-2.8143,-2.8338,-2.792,-2.7591,-2.743,-2.8624,-2.9226,-2.9289,-2.9352,-2.9352,-2.9289,-2.9415,-2.9149,-2.8532,-2.8894,-2.8468,-2.7551,-2.7604,-2.7644,-2.7683,-2.7313,-2.7339,-2.7551,-2.7324,-2.7564,-2.7934,-2.7934,-2.7934,-2.7934,-2.7934,-2.7802,-2.7736,-2.7736,-2.7603,-2.7656,-2.843,-2.9093,-2.9685,-3.0125,-3.0682,-3.1224,-3.1503,-3.2105,-3.2674,-3.3054,-3.3613,-3.4222,-3.499,-3.5213,-3.541,-3.5978,-3.4973,-3.4178,-3.4355,-3.2967,-3.1905,-3.1852,-3.1502,-3.1374,-3.1638,-3.2164,-3.2645,-3.2996,-3.3642,-3.4084,-3.4251,-3.4626,-3.4883,-3.5055,-3.5228,-3.5182,-3.4977,-3.4994,-3.4883,-3.4626,-3.4642,-3.4721,-2.1526,-2.1929,-2.2388,-2.2552,-2.3009,0.0,-2.4856,-2.5207,-2.5398,-2.5643,-2.5135,0.0,0.0,0.0,0.0,0.0,0.0,0.0,0.0,0.0,0.0,0.0,0.0,0.0,0.0,0.0,0.0,0.0,0.0,0.0,0.0,0.0,0.0,0.0,-2.6896,-2.6896,-2.7031,-2.6476,-2.6146,-2.6045,-2.7245,-2.8065,-2.8481,-2.8468,-2.8468,-2.8481,-2.8519,-2.8117,-2.7511,-2.7802,-2.7311,-2.6327,-2.6121,-2.5983,-2.5832,-2.566,-2.5938,-2.6433,-2.6433,-2.6947,-2.7669,-2.759,-2.7669,-2.7669,-2.7669,-2.7603,-2.7523,-2.7523,-2.7403,-2.7403,-2.7802,-2.8222,-2.857,-2.8826,-2.9589,-3.02,-3.0235,-3.0715,-3.133,-3.1674,-3.2139,-3.2673,-3.3552,-3.3871,-3.42,-3.4626,-3.3612,-3.2867,-3.3069,-3.199,-3.1053,-3.0627,-3.0759,-3.0764,-3.0607,-3.1165,-3.1549,-3.1658,-3.2382,-3.3092,-3.3694,-3.4151,-3.4448,-3.4448,-3.4723,-3.4723,-3.4333,-3.4497,-3.4399,-3.405,-3.4068,-3.4102,-2.1486,-2.0538,-2.0098,0.0,0.0,0.0,-2.276,-2.386,-2.4798,-2.5814,-2.4957,-2.3979,-2.3979,0.0,0.0,0.0,0.0,0.0,0.0,0.0,0.0,0.0,0.0,0.0,0.0,0.0,0.0,0.0,0.0,0.0,0.0,0.0,0.0,0.0,-2.5977,-2.5795,-2.5472,-2.5472,-2.5414,-2.5157,-2.5157,-2.5591,-2.6414,-2.6514,-2.6514,-2.6414,-2.6544,-2.6531,-2.6364,-2.6146,-2.5938,-2.5742,-2.5591,-2.5451,-2.5451,-2.5228,-2.5787,-2.6557,-2.6433,-2.7149,-2.8013,-2.7855,-2.7934,-2.8079,-2.8079,-2.7802,-2.7456,-2.7456,-2.7214,-2.7079,-2.7403,-2.7469,-2.7456,-2.7523,-2.7536,-2.7709,-2.8376,-2.9018,-2.969,-3.0311,-3.1411,-3.2255,-3.2269,-3.2707,-3.3101,-3.3115,-3.2075,-3.1551,-3.2211,-3.1235,-3.0544,-3.0571,-3.0623,-3.0338,-2.9648,-2.9604,-2.9604,-2.9589,-3.0477,-3.1782,-3.361,-3.4101,-3.43,-3.43,-3.4102,-3.3986,-3.3986,-3.4184,-3.43,-3.43,-3.43,-3.43,-2.0318,-2.1079,0.0,-2.1336,0.0,0.0,0.0,-2.2844,0.0,0.0,-2.3724,-2.3361,0.0,0.0,0.0,0.0,0.0,0.0,0.0,0.0,0.0,0.0,0.0,0.0,0.0,0.0,0.0,0.0,0.0,0.0,0.0,0.0,0.0,0.0,-2.4554,-2.4565,-2.4708,-2.4097,-2.3694,-2.3621,-2.3621,-2.4397,-2.5787,-2.5844,-2.5775,-2.5787,-2.5832,-2.5414,-2.4743,-2.4192,-2.4337,-2.4909,-2.4204,-2.3852,-2.3694,-2.3694,-2.3986,-2.4492,-2.4432,-2.4992,-2.5697,-2.5615,-2.5685,-2.5697,-2.5697,-2.5627,-2.5557,-2.5557,-2.5849,-2.6151,-2.5627,-2.5988,-2.662,-2.7669,-2.7947,-2.7868,-2.7842,-2.7961,-2.8199,-2.8501,-2.8946,-2.9632,-3.0737,-3.117,-3.1571,-3.2283,-3.1391,-3.0588,-3.0446,-3.0064,-2.9871,-2.987,-3.0085,-2.9989,-2.9322,-3.0276,-3.0814,-3.0582,-3.0858,-3.1274,-3.1927,-3.2856,-3.3423,-3.3527,-3.3665,-3.3547,-3.3161,-3.323,-3.3177,-3.298,-3.298,-3.3102,-2.0426,-2.1003,0.0,-2.1857,-2.2846,-2.3404,-2.2239,0.0,0.0,0.0,0.0,0.0,0.0,0.0,0.0,0.0,0.0,0.0,0.0,0.0,0.0,0.0,0.0,0.0,0.0,0.0,0.0,0.0,0.0,0.0,0.0,0.0,0.0,0.0,-2.3316,-2.3084,-2.2818,-2.267,-2.2392,-2.2155,-2.2155,-2.2713,-2.3822,-2.429,-2.4517,-2.466,-2.466,-2.4253,-2.3632,-2.3213,-2.3423,-2.3925,-2.3287,-2.3001,-2.2852,-2.2777,-2.3139,-2.3644,-2.3593,-2.4166,-2.4933,-2.4862,-2.4862,-2.4933,-2.4933,-2.4933,-2.4933,-2.4933,-2.53,-2.5581,-2.5075,-2.53,-2.5861,-2.6607,-2.696,-2.7175,-2.6905,-2.7121,-2.7372,-2.7434,-2.7738,-2.8245,-2.9209,-2.9755,-3.0272,-3.0831,-3.0286,-2.9685,-2.9268,-2.9254,-2.9217,-2.9035,-2.9361,-2.9334,-2.8695,-2.9692,-3.0208,-2.9813,-3.0147,-3.0407,-3.0647,-3.172,-3.2329,-3.2382,-3.2754,-3.2788,-3.2492,-3.2547,-3.2492,-3.2342,-3.2342,-3.2413,-2.1107,-2.0649,0.0,-2.2712,-2.2136,0.0,-2.2136,0.0,0.0,0.0,0.0,0.0,0.0,0.0,0.0,0.0,0.0,0.0,0.0,0.0,0.0,0.0,0.0,0.0,0.0,0.0,0.0,0.0,0.0,0.0,0.0,0.0,0.0,-2.2166,-2.2166,-2.1624,-2.0459,-2.1252,-2.1318,-2.0682,-2.0779,-2.0934,-2.1088,-2.2231,-2.2841,-2.299,-2.299,-2.2916,-2.2767,-2.2841,-2.2841,-2.2767,-2.2777,-2.2703,-2.2628,-2.2478,-2.2968,-2.3683,-2.3582,-2.4238,-2.5087,-2.4874,-2.4945,-2.5087,-2.5087,-2.5087,-2.5087,-2.5087,-2.517,-2.517,-2.5087,-2.5158,-2.5087,-2.4647,-2.5217,-2.5861,-2.5861,-2.6371,-2.6875,-2.6875,-2.7309,-2.7748,-2.78,-2.8562,-2.9187,-2.9136,-2.9117,-2.8974,-2.8578,-2.8689,-2.8647,-2.8236,-2.8554,-2.8573,-2.7893,-2.8312,-2.8364,-2.7864,-2.8744,-2.9372,-2.9732,-3.0646,-3.1228,-3.1289,-3.1734,-3.1925,-3.1925,-3.2094,-3.2135,-3.2191,-3.2191,-3.2191,-1.9661,-2.0322,0.0,0.0,-2.167,-2.1267,-2.1832,-2.1807,0.0,0.0,0.0,0.0,0.0,0.0,0.0,0.0,0.0,0.0,0.0,0.0,0.0,0.0,0.0,0.0,0.0,0.0,0.0,0.0,0.0,0.0,0.0,0.0,0.0,-2.0226,-2.0226,-2.0138,-2.006,-2.0216,-2.0216,0.0,-2.0138,-2.0138,-2.0216,-2.045,-2.0595,-2.0595,-2.0595,-2.0682,-2.0857,-2.1538,-2.1538,-2.1155,-2.2467,-2.2542,-2.2069,-2.2617,-2.3001,-2.3139,-2.315,-2.3287,-2.3508,-2.3434,-2.3434,-2.3497,-2.3497,-2.3497,-2.3497,-2.3497,-2.3925,-2.4204,-2.3644,-2.3925,-2.4204,-2.3497,-2.4443,-2.5441,-2.5441,-2.5523,-2.5664,-2.5664,-2.6586,-2.7511,-2.7711,-2.867,-2.9234,-2.8654,-2.9171,-2.9191,-2.8226,-2.8641,-2.898,-2.8906,-2.8574,-2.8079,-2.7381,-2.7502,-2.7577,-2.7581,-2.8197,-2.8897,-2.9521,-3.0432,-3.1167,-3.1825,-3.1694,-3.1597,-3.1597,-3.1655,-3.1811,-3.2038,-3.2038,-3.215,-1.9257,0.0,0.0,-2.1303,0.0,-2.0557,-2.1108,0.0,0.0,0.0,0.0,0.0,0.0,0.0,0.0,0.0,0.0,0.0,0.0,0.0,0.0,0.0,0.0,0.0,0.0,0.0,0.0,0.0,0.0,0.0,0.0,-2.0837,-2.0537,-1.9923,-1.9923,-1.9687,-1.9353,-1.9747,-1.9737,-1.9511,-1.9441,-1.9292,-1.9045,-1.9756,-2.007,-2.007,-2.0138,-2.0226,-2.0391,-2.0847,-2.0847,-2.0615,-2.1461,-2.1766,-2.1842,-2.2306,-2.2692,-2.3001,-2.3001,-2.3001,-2.3001,-2.3001,-2.3001,-2.3001,-2.3001,-2.3001,-2.3001,-2.3001,-2.3276,-2.3486,-2.3065,-2.3287,-2.3486,-2.3075,-2.3852,-2.4707,-2.4707,-2.5016,-2.5312,-2.5312,-2.6078,-2.6791,-2.7114,-2.8104,-2.8774,-2.8545,-2.8647,-2.849,-2.7748,-2.7734,-2.7726,-2.757,-2.7495,-2.7277,-2.695,-2.7423,-2.7658,-2.7499,-2.8046,-2.8578,-2.9009,-2.9435,-3.0074,-3.0787,-3.0925,-3.1029,-3.1029,-3.1029,-3.1087,-3.1248,-3.094,-3.0852,-1.8602,0.0,-1.9545,-2.0858,-2.0323,0.0,-2.0245,0.0,0.0,0.0,0.0,0.0,0.0,0.0,0.0,0.0,0.0,0.0,0.0,0.0,0.0,0.0,0.0,0.0,0.0,0.0,0.0,0.0,0.0,0.0,-2.0226,-2.0226,-2.007,-1.9766,-1.9766,-1.9371,-1.8585,-1.9283,-1.9353,-1.8807,-1.8834,-1.8523,-1.804,-1.9292,-1.9854,-1.9844,-2.0001,-2.007,-2.007,-2.0226,-2.0226,-2.007,-2.0382,-2.0847,-2.1375,-2.1527,-2.2069,-2.2767,-2.2767,-2.2841,-2.3001,-2.3001,-2.3001,-2.3001,-2.3001,-2.3001,-2.3001,-2.3001,-2.2927,-2.2927,-2.2927,-2.2852,-2.2777,-2.2777,-2.3265,-2.3756,-2.3902,-2.4432,-2.4874,-2.4874,-2.542,-2.5949,-2.6404,-2.7233,-2.7946,-2.8088,-2.7746,-2.7379,-2.7092,-2.6642,-2.6323,-2.6101,-2.629,-2.6518,-2.6612,-2.7189,-2.7461,-2.7368,-2.7809,-2.8235,-2.8502,-2.8516,-2.8759,-2.9314,-3.0009,-3.0329,-3.0329,-3.0329,-3.0329,-3.0329,-2.9766,-2.9504,-1.6004,0.0,-1.9171,0.0,-2.0098,-1.9381,0.0,0.0,0.0,0.0,0.0,0.0,0.0,0.0,0.0,0.0,0.0,0.0,0.0,0.0,0.0,0.0,0.0,0.0,0.0,0.0,0.0,0.0,0.0,0.0,-1.9274,-1.9195,-1.8807,-1.8095,-1.8014,-1.8023,-1.8112,-1.8193,-1.8193,-1.8112,-1.8112,-1.8121,-1.804,-1.8193,-1.8273,-1.8273,-1.8353,-1.8345,-1.8425,-1.9143,-1.8984,-1.8505,-1.9913,-2.0148,-1.9687,-2.0382,-2.1231,-2.1993,-2.1993,-2.2456,-2.3001,-2.3001,-2.3001,-2.3001,-2.3001,-2.3001,-2.3001,-2.3001,-2.2777,-2.2478,-2.2478,-2.2252,-2.1949,-2.1949,-2.2025,-2.2317,-2.299,-2.3213,-2.3287,-2.3287,-2.426,-2.5452,-2.6512,-2.6942,-2.6931,-2.6238,-2.6251,-2.6367,-2.6477,-2.642,-2.6629,-2.7235,-2.6476,-2.6146,-2.6645,-2.5569,-2.5439,-2.6746,-2.7093,-2.7601,-2.8461,-2.8488,-2.8538,-2.8602,-2.9289,-2.9628,-2.9628,-2.9628,-2.9628,-2.9628,-2.9566,-2.9504,-1.6065,-1.7686,-1.917,0.0,-1.9775,-1.8807,-1.9775,0.0,0.0,0.0,0.0,0.0,0.0,0.0,0.0,0.0,0.0,0.0,0.0,0.0,0.0,0.0,0.0,0.0,0.0,0.0,0.0,0.0,0.0,-1.8656,-1.8416,-1.8425,-1.8184,-1.7546,-1.7546,-1.7546,-1.7635,-1.7635,-1.7797,-1.804,-1.804,-1.804,-1.804,-1.804,-1.804,-1.804,-1.804,-1.804,-1.8031,-1.8434,-1.8353,-1.8031,-1.8825,-1.9054,-1.8966,-1.9274,-1.9797,-2.0401,-2.0884,-2.1278,-2.1669,-2.2166,-2.2327,-2.2327,-2.2327,-2.2327,-2.2327,-2.2327,-2.2176,-2.2025,-2.2025,-2.1949,-2.1807,-2.1807,-2.1807,-2.1883,-2.2252,-2.2327,-2.2401,-2.2656,-2.3318,-2.4082,-2.4805,-2.5171,-2.5283,-2.4903,-2.4929,-2.504,-2.5249,-2.5257,-2.5419,-2.5866,-2.546,-2.5346,-2.573,-2.5448,-2.555,-2.631,-2.6686,-2.7037,-2.7497,-2.7351,-2.7351,-2.7497,-2.8454,-2.8967,-2.8967,-2.8967,-2.8967,-2.8903,-2.8519,-2.8403,0.0,0.0,-1.7898,-1.9846,-1.8889,-1.7828,0.0,0.0,0.0,0.0,0.0,0.0,0.0,0.0,0.0,0.0,0.0,0.0,0.0,0.0,0.0,0.0,0.0,0.0,0.0,0.0,0.0,0.0,0.0,-1.7392,-1.7627,-1.7708,-1.7546,-1.7229,-1.7229,-1.7229,-1.7229,-1.7229,-1.7392,-1.7708,-1.7456,-1.7367,-1.7367,-1.7115,-1.7033,-1.7025,-1.77,-1.7959,-1.7878,-1.7878,-1.7797,-1.7708,-1.7708,-1.7861,-1.8078,-1.8078,-1.8452,-1.8982,-1.9631,-2.011,-2.0575,-2.1231,-2.1634,-2.1807,-2.1807,-2.1807,-2.1807,-2.1807,-2.1731,-2.1655,-2.1655,-2.1578,-2.1502,-2.1502,-2.1502,-2.1578,-2.1731,-2.1807,-2.1901,-2.2221,-2.2453,-2.2757,-2.3112,-2.3315,-2.3503,-2.3503,-2.3503,-2.3659,-2.3945,-2.4189,-2.4462,-2.4892,-2.4941,-2.5059,-2.5184,-2.5593,-2.5873,-2.6,-2.6405,-2.6645,-2.6645,-2.6496,-2.6496,-2.6645,-2.7497,-2.8012,-2.8026,-2.8026,-2.8026,-2.7947,-2.7443,-2.7255,0.0,-1.3288,0.0,-1.7344,-1.6942,0.0,0.0,0.0,0.0,0.0,0.0,0.0,0.0,0.0,0.0,0.0,0.0,0.0,0.0,0.0,0.0,0.0,0.0,0.0,0.0,0.0,0.0,0.0,0.0,-1.6738,-1.6738,-1.6738,-1.673,-1.673,-1.673,-1.673,-1.673,-1.673,-1.6738,-1.673,-1.5959,-1.553,-1.553,-1.4768,-1.4434,-1.4343,-1.6862,-1.7797,-1.7392,-1.7392,-1.7147,-1.6738,-1.6738,-1.6812,-1.6812,-1.6812,-1.7367,-1.8078,-1.8069,-1.9167,-2.0498,-2.0575,-2.1145,-2.1807,-2.1807,-2.1807,-2.1807,-2.1807,-2.1502,-2.1205,-2.1205,-2.0964,-2.0644,-2.0644,-2.0644,-2.0876,-2.1655,-2.1807,-2.1818,-2.1838,-2.1818,-2.1883,-2.1904,-2.1894,-2.1949,-2.1949,-2.1949,-2.2145,-2.2892,-2.3627,-2.4482,-2.5378,-2.5715,-2.5841,-2.577,-2.5685,-2.5647,-2.5636,-2.6114,-2.6427,-2.6427,-2.6577,-2.6577,-2.6427,-2.6483,-2.6633,-2.6782,-2.6782,-2.6714,-2.6483,-2.6483,-2.6483,0.0,0.0,0.0,-1.5516,-1.5564,0.0,0.0,0.0,0.0,0.0,0.0,0.0,0.0,0.0,0.0,0.0,0.0,0.0,0.0,0.0,0.0,0.0,0.0,0.0,0.0,0.0,0.0,0.0,0.0,0.0,-1.6656,-1.673,-1.6574,-1.6335,-1.6327,-1.6327,-1.6327,-1.6574,-1.673,-1.6648,-1.5786,-1.5357,-1.5357,-1.4518,-1.4099,-1.4099,-1.5184,-1.544,-1.5274,-1.5869,-1.6041,-1.5959,-1.6476,-1.6574,-1.6327,-1.6327,-1.6327,-1.6394,-1.6944,-1.798,-1.9167,-1.959,-2.0469,-2.1359,-2.1282,-2.1282,-2.1359,-2.1282,-2.1128,-2.0984,-2.0886,-2.0722,-2.0566,-2.0566,-2.0566,-2.0644,-2.0954,-2.1031,-2.1031,-2.1031,-2.1031,-2.1031,-2.1031,-2.1031,-2.1031,-2.1205,-2.1118,-2.1328,-2.2306,-2.251,-2.2936,-2.3806,-2.4019,-2.4057,-2.4146,-2.408,-2.4128,-2.4241,-2.4313,-2.4385,-2.4385,-2.4325,-2.4541,-2.5134,-2.5122,-2.5557,-2.6496,-2.6496,-2.6496,-2.6414,-2.6414,-2.6414,-1.0837,0.0,0.0,0.0,0.0,0.0,0.0,0.0,0.0,0.0,0.0,0.0,0.0,0.0,0.0,0.0,0.0,0.0,0.0,0.0,0.0,0.0,0.0,0.0,0.0,0.0,0.0,0.0,0.0,0.0,-1.6245,-1.6245,-1.6162,-1.5839,-1.5839,-1.5748,-1.5409,-1.6072,-1.6147,-1.5816,-1.4949,-1.4608,-1.4531,-1.3425,-1.2917,-1.2917,-1.3099,-1.3432,-1.3937,-1.4615,-1.5032,-1.5213,-1.5809,-1.6079,-1.6087,-1.6087,-1.5839,-1.5582,-1.6139,-1.7017,-1.7819,-1.8318,-1.9441,-2.0644,-2.0489,-2.0809,-2.1205,-2.1061,-2.0984,-2.0896,-2.0401,-2.0245,-2.0167,-2.0167,-2.0167,-2.0245,-2.0566,-2.0566,-2.0566,-2.0566,-2.0566,-2.0566,-2.0566,-2.0566,-2.0644,-2.0819,-2.0654,-2.0876,-2.1492,-2.1776,-2.2145,-2.2734,-2.3106,-2.3254,-2.3084,-2.322,-2.3305,-2.3021,-2.3231,-2.322,-2.3158,-2.3084,-2.3316,-2.3902,-2.4192,-2.4624,-2.5264,-2.5849,-2.6082,-2.6,-2.6,-2.607,0.0,0.0,0.0,0.0,0.0,0.0,0.0,0.0,0.0,0.0,0.0,0.0,0.0,0.0,0.0,0.0,0.0,0.0,0.0,0.0,0.0,0.0,0.0,0.0,0.0,0.0,0.0,0.0,0.0,-1.5431,-1.5347,-1.5347,-1.534,-1.534,-1.534,-1.4915,-1.4055,-1.5061,-1.5061,-1.4055,-1.336,-1.2942,-1.2954,-1.1413,-1.0727,-1.0727,-1.0916,-1.202,-1.362,-1.3873,-1.4216,-1.465,-1.465,-1.5242,-1.6087,-1.6087,-1.5914,-1.5733,-1.5733,-1.6131,-1.6698,-1.6698,-1.7989,-1.9599,-1.9599,-2.0323,-2.1128,-2.1128,-2.1128,-2.0886,-1.9844,-1.9371,-1.9301,-1.9222,-1.9301,-1.9539,-2.0323,-2.0566,-2.0566,-2.0566,-2.0566,-2.0566,-2.0566,-2.0566,-2.0566,-2.0644,-2.0566,-2.0566,-2.0644,-2.1492,-2.2166,-2.236,-2.3254,-2.3475,-2.2734,-2.3305,-2.3243,-2.2101,-2.2872,-2.3231,-2.2957,-2.3084,-2.3084,-2.2957,-2.3683,-2.3672,-2.3032,-2.4719,-2.5453,-2.5241,-2.5241,-2.5465,-0.8738,0.0,0.0,0.0,0.0,0.0,0.0,0.0,0.0,0.0,0.0,0.0,0.0,0.0,0.0,0.0,0.0,0.0,0.0,0.0,0.0,0.0,0.0,0.0,0.0,0.0,0.0,0.0,-1.5431,-1.5082,-1.4482,-1.3795,-1.3451,-1.3451,-1.3451,-1.3366,-1.33,-1.3633,-1.3717,-1.3561,-1.2693,-1.2266,-1.2272,-1.1154,-1.0727,-1.0727,-1.0916,-1.1262,-1.1768,-1.2351,-1.3027,-1.3795,-1.4482,-1.5242,-1.6087,-1.6087,-1.6087,-1.6004,-1.6004,-1.664,-1.7359,-1.7033,-1.7908,-1.9027,-1.8789,-1.8939,-1.9256,-1.9107,-1.9107,-1.9027,-1.8559,-1.8487,-1.8576,-1.8407,-1.8496,-1.8576,-1.8727,-1.9204,-1.9854,-2.0489,-2.0566,-2.0566,-2.0566,-2.0566,-2.0644,-2.0819,-2.0654,-2.0644,-2.0819,-2.0954,-2.1021,-2.1088,-2.1308,-2.1385,-2.1165,-2.1385,-2.1385,-2.1031,-2.1242,-2.1385,-2.1242,-2.1308,-2.1614,-2.2134,-2.2349,-2.266,-2.3213,-2.4059,-2.4192,-2.3621,-2.3621,-2.3694,0.0,0.0,0.0,0.0,0.0,0.0,-1.1001,-1.2369,0.0,0.0,0.0,0.0,0.0,0.0,0.0,0.0,0.0,0.0,0.0,0.0,0.0,0.0,0.0,0.0,0.0,0.0,0.0,-1.4307,-1.4657,-1.4482,-1.3535,-1.3021,-1.2674,-1.2674,-1.2766,-1.2693,-1.2448,-1.3039,-1.3124,-1.279,-1.2357,-1.21,-1.2106,-1.1251,-1.0906,-1.0997,-1.1089,-1.1094,-1.1181,-1.1935,-1.2863,-1.3704,-1.4643,-1.5575,-1.6327,-1.6327,-1.6327,-1.6245,-1.6245,-1.6566,-1.6976,-1.655,-1.7261,-1.8132,-1.7811,-1.8123,-1.8603,-1.8443,-1.8132,-1.773,-1.7577,-1.7594,-1.7594,-1.7513,-1.7513,-1.7683,-1.7917,-1.8078,-1.8638,-1.9923,-2.0401,-2.0644,-2.0731,-2.0654,-2.0644,-2.0741,-2.0654,-2.0644,-2.0741,-2.0741,-2.0731,-2.0731,-2.0809,-2.0809,-2.0731,-2.0731,-2.0654,-2.0644,-2.0566,-2.0566,-2.0566,-2.0566,-2.0789,-2.1318,-2.1614,-2.2069,-2.2681,-2.3412,-2.3559,-2.3128,-2.3128,-2.3117,0.0,0.0,0.0,0.0,0.0,0.0,-1.1303,-1.1724,-1.2333,0.0,0.0,0.0,0.0,0.0,0.0,0.0,0.0,0.0,0.0,0.0,0.0,0.0,0.0,0.0,0.0,-1.4741,-1.4398,-1.2845,-1.3366,-1.3451,-1.2589,-1.2419,-1.2419,-1.2419,-1.2607,-1.2357,-1.1591,-1.2778,-1.2863,-1.1929,-1.21,-1.2186,-1.2277,-1.1435,-1.1094,-1.1262,-1.1262,-1.1348,-1.1521,-1.2448,-1.3288,-1.4126,-1.5054,-1.5899,-1.673,-1.673,-1.6566,-1.6394,-1.6394,-1.6319,-1.6087,-1.5824,-1.6378,-1.7098,-1.6927,-1.7488,-1.8204,-1.8204,-1.756,-1.6846,-1.6846,-1.669,-1.6617,-1.6535,-1.6535,-1.678,-1.7513,-1.7188,-1.718,-1.8957,-1.9835,-2.0411,-2.0664,-2.0576,-2.0489,-2.0489,-2.0489,-2.0479,-2.0489,-2.0664,-2.0751,-2.0906,-2.1051,-2.1051,-2.0906,-2.0906,-2.0819,-2.0644,-2.0566,-2.0566,-2.0566,-2.0566,-2.0566,-2.0566,-2.1318,-2.1614,-2.1603,-2.2531,-2.3001,-2.3001,-2.3001,-2.2905,0.0,0.0,0.0,0.0,0.0,0.0,-1.0072,-1.0506,-1.1012,0.0,0.0,0.0,0.0,0.0,0.0,0.0,0.0,0.0,0.0,0.0,0.0,0.0,0.0,0.0,0.0,-1.3535,-1.3105,-1.276,-1.2174,-1.1752,-1.158,-1.0895,-1.0636,-1.0722,-1.0809,-1.0901,-1.1089,-1.1429,-1.1516,-1.1429,-1.1521,-1.1516,-1.1516,-1.1348,-1.1262,-1.1262,-1.1262,-1.1688,-1.2534,-1.3372,-1.388,-1.4126,-1.5054,-1.5899,-1.673,-1.673,-1.6656,-1.6648,-1.6648,-1.6484,-1.6312,-1.6312,-1.6147,-1.5974,-1.5974,-1.5982,-1.5982,-1.5982,-1.5906,-1.5741,-1.5741,-1.5816,-1.5816,-1.5665,-1.5741,-1.5899,-1.5906,-1.6237,-1.6706,-1.7407,-1.806,-1.8727,-1.946,-1.9618,-1.9539,-1.9539,-1.9539,-1.9608,-1.9766,-1.9696,-1.9942,-2.0829,-2.0809,-2.0722,-2.0654,-2.0654,-2.0644,-2.0566,-2.0566,-2.0566,-2.0566,-2.0411,-2.0342,-2.0342,-2.0634,-2.0634,-2.0245,-2.0867,-2.1098,-2.1098,-2.1098,-2.1098,0.0,0.0,0.0,-0.8178,0.0,0.0,0.0,-0.9444,-0.9854,0.0,0.0,0.0,0.0,0.0,0.0,0.0,0.0,0.0,0.0,0.0,0.0,0.0,0.0,0.0,0.0,-1.3451,-1.3112,-1.226,-1.1235,-1.0722,-1.0809,-1.0294,-1.0125,-1.0294,-1.0467,-1.0646,-1.1008,-1.1094,-1.1181,-1.1262,-1.1262,-1.1262,-1.1262,-1.1262,-1.1521,-1.2026,-1.2026,-1.2534,-1.3372,-1.4055,-1.4391,-1.4475,-1.556,-1.6319,-1.673,-1.673,-1.673,-1.673,-1.673,-1.6648,-1.6566,-1.6394,-1.6147,-1.5914,-1.5733,-1.5499,-1.5257,-1.5082,-1.4999,-1.4908,-1.4999,-1.5068,-1.5068,-1.5075,-1.5159,-1.5151,-1.5082,-1.5325,-1.5643,-1.5786,-1.6116,-1.6854,-1.8559,-1.8638,-1.8559,-1.8647,-1.8567,-1.8638,-1.8886,-1.9204,-1.9696,-2.0177,-2.0489,-2.0566,-2.0489,-2.0333,-2.0255,-2.0255,-2.0255,-2.0255,-2.0255,-2.0177,-2.0029,-1.9951,-2.0029,-1.9942,-1.9618,-1.9854,-2.0089,-2.0411,-2.0411,-2.0411,0.0,0.0,0.0,0.0,0.0,-0.7469,0.0,0.0,0.0,-1.0467,0.0,0.0,0.0,0.0,0.0,0.0,0.0,0.0,0.0,0.0,0.0,0.0,0.0,0.0,0.0,-1.2989,-1.2698,-1.1488,-1.0434,-0.9995,-1.0289,-1.0207,-1.0212,-1.0472,-1.0646,-1.0824,-1.1094,-1.1089,-1.1176,-1.117,-1.1089,-1.1089,-1.1089,-1.1089,-1.151,-1.2448,-1.2448,-1.3033,-1.4048,-1.4391,-1.465,-1.4901,-1.6064,-1.6484,-1.6484,-1.6484,-1.6484,-1.6484,-1.6484,-1.6402,-1.6402,-1.6229,-1.6072,-1.5839,-1.5575,-1.5242,-1.4999,-1.4734,-1.4566,-1.4482,-1.465,-1.4566,-1.4482,-1.465,-1.4734,-1.4734,-1.4734,-1.465,-1.465,-1.465,-1.465,-1.5304,-1.7496,-1.7577,-1.7423,-1.7585,-1.7504,-1.7504,-1.7836,-1.8638,-1.9274,-1.9432,-1.9923,-2.0167,-2.002,-1.9618,-1.9371,-1.9371,-1.9371,-1.946,-1.9618,-1.9706,-1.9706,-1.9408,-1.9478,-1.9399,-1.9143,-1.9222,-1.9539,-2.0108,-2.0108,-2.002,0.0,0.0,0.0,0.0,-0.7539,0.0,0.0,0.0,-0.7339,-0.7703,0.0,0.0,0.0,0.0,0.0,0.0,0.0,0.0,0.0,0.0,0.0,0.0,0.0,0.0,0.0,0.0,-1.0162,-1.0168,-0.9848,-0.9851,-1.0265,-1.0467,-1.0733,-1.0916,-1.0921,-1.1094,-1.1262,-1.0906,-1.0636,-1.0636,-1.0299,-1.0125,-1.0125,-1.0125,-1.0641,-1.1494,-1.1494,-1.2437,-1.4055,-1.4139,-1.4643,-1.5311,-1.5477,-1.556,-1.556,-1.556,-1.556,-1.556,-1.556,-1.5409,-1.5333,-1.5484,-1.5409,-1.5173,-1.4901,-1.4817,-1.4734,-1.4734,-1.4566,-1.4482,-1.465,-1.4566,-1.4482,-1.465,-1.4734,-1.4734,-1.4734,-1.4566,-1.4482,-1.465,-1.4566,-1.481,-1.6034,-1.6198,-1.6198,-1.6198,-1.6198,-1.6273,-1.6511,-1.7172,-1.79,-1.8859,-1.8877,-1.8798,-1.8807,-1.8069,-1.7585,-1.7585,-1.7585,-1.7908,-1.8727,-1.9134,-1.9152,-1.878,-1.9011,-1.8843,-1.8514,-1.9063,-1.9301,-1.9381,-1.9381,-1.9381,0.0,0.0,0.0,0.0,0.0,0.0,0.0,0.0,-0.6457,0.0,0.0,0.0,0.0,0.0,0.0,0.0,0.0,0.0,0.0,0.0,0.0,0.0,0.0,0.0,0.0,0.0,0.0,0.0,-1.0388,-1.0348,-1.0722,-1.0472,-1.0386,-1.0564,-1.0304,-1.0304,-1.0564,-1.0386,-1.0207,-1.0207,-1.0125,-1.0038,-1.0038,-1.0038,-1.0809,-1.2083,-1.2083,-1.319,-1.481,-1.4566,-1.4643,-1.4985,-1.4741,-1.4992,-1.5394,-1.5394,-1.5394,-1.5394,-1.5394,-1.5318,-1.5242,-1.5242,-1.5166,-1.5006,-1.4657,-1.4566,-1.4482,-1.4412,-1.4068,-1.3899,-1.4243,-1.4068,-1.3899,-1.4243,-1.4328,-1.4328,-1.4328,-1.4328,-1.4243,-1.4328,-1.4243,-1.4405,-1.4824,-1.4977,-1.5137,-1.522,-1.5137,-1.522,-1.5553,-1.6281,-1.6919,-1.7407,-1.7721,-1.7811,-1.7658,-1.7253,-1.6935,-1.6935,-1.6854,-1.7098,-1.7836,-1.8086,-1.8006,-1.77,-1.7781,-1.7448,-1.6624,-1.6944,-1.7017,-1.7107,-1.8345,-1.8922,-0.4767,0.0,0.0,0.0,0.0,0.0,0.0,0.0,0.0,0.0,0.0,0.0,0.0,0.0,0.0,0.0,0.0,0.0,0.0,0.0,0.0,0.0,0.0,0.0,0.0,0.0,0.0,-1.0544,-1.0583,-1.0629,-1.0646,-1.0299,-1.0207,-1.0207,-0.9864,-0.9777,-1.0038,-0.9864,-0.9777,-0.9781,-0.9694,-0.9607,-0.9607,-0.9607,-1.0458,-1.1906,-1.2169,-1.3269,-1.4713,-1.4566,-1.4398,-1.4223,-1.3815,-1.3977,-1.4378,-1.481,-1.5068,-1.5068,-1.5068,-1.5068,-1.4985,-1.4831,-1.4838,-1.4755,-1.4405,-1.4321,-1.4321,-1.4166,-1.3828,-1.3568,-1.3997,-1.3828,-1.3568,-1.4004,-1.4088,-1.4088,-1.4088,-1.4088,-1.4088,-1.4088,-1.4088,-1.4088,-1.4088,-1.4243,-1.4405,-1.4489,-1.4405,-1.4405,-1.4755,-1.5553,-1.6108,-1.6116,-1.6511,-1.6748,-1.6601,-1.6206,-1.5966,-1.5876,-1.5951,-1.6108,-1.6535,-1.678,-1.678,-1.6542,-1.6542,-1.6214,-1.5394,-1.5394,-1.5394,-1.5477,-1.7041,-1.7951,0.0,0.0,0.0,-0.4075,0.0,0.0,0.0,0.0,-0.4156,0.0,0.0,0.0,0.0,0.0,0.0,-0.6337,0.0,0.0,0.0,0.0,0.0,0.0,0.0,0.0,0.0,0.0,0.0,-0.9538,-1.0051,-1.0136,-0.9662,-1.0207,-1.0376,-1.0038,-1.0038,-0.9951,-1.0038,-0.9519,-0.9345,-0.9349,-0.8828,-0.8656,-0.8656,-0.8656,-0.917,-1.0033,-1.0982,-1.1997,-1.3099,-1.3815,-1.3724,-1.3014,-1.2869,-1.2186,-1.1666,-1.3476,-1.4173,-1.4173,-1.4173,-1.4173,-1.4173,-1.4173,-1.4173,-1.4173,-1.4088,-1.4088,-1.4088,-1.4088,-1.3913,-1.3737,-1.4004,-1.3913,-1.3737,-1.4004,-1.4088,-1.4088,-1.4088,-1.4088,-1.4088,-1.4088,-1.4088,-1.4088,-1.4088,-1.4088,-1.4088,-1.4088,-1.4088,-1.4088,-1.4173,-1.4901,-1.5394,-1.5394,-1.5477,-1.5477,-1.5477,-1.4664,-1.4082,-1.3815,-1.4384,-1.4713,-1.4475,-1.5289,-1.5621,-1.5477,-1.5477,-1.5394,-1.5394,-1.5394,-1.5394,-1.5394,-1.5477,-1.5966,0.0,0.0,-0.5173,-0.4358,0.0,0.0,0.0,0.0,0.0,0.0,0.0,0.0,0.0,0.0,-0.4788,-0.4935,-0.4884,0.0,0.0,0.0,0.0,0.0,0.0,0.0,0.0,0.0,0.0,-0.9498,-0.994,-1.0069,-0.985,-0.9777,-0.9694,-0.9519,-0.9262,-0.9087,-0.9087,-0.8915,-0.8828,-0.8828,-0.8656,-0.8568,-0.8568,-0.8568,-0.9087,-0.9946,-1.0202,-1.0977,-1.1918,-1.21,-1.2095,-1.1832,-1.1837,-1.1585,-1.1413,-1.2015,-1.2619,-1.3137,-1.3137,-1.279,-1.2272,-1.2272,-1.2705,-1.3137,-1.3137,-1.3137,-1.3307,-1.3913,-1.3483,-1.3052,-1.3913,-1.3913,-1.3737,-1.4004,-1.4088,-1.4088,-1.4088,-1.4088,-1.4088,-1.4088,-1.4088,-1.4088,-1.4088,-1.4088,-1.4088,-1.4088,-1.4088,-1.4088,-1.4088,-1.4334,-1.458,-1.458,-1.4405,-1.423,-1.423,-1.3899,-1.3568,-1.3313,-1.3555,-1.3795,-1.4132,-1.4461,-1.4538,-1.4461,-1.4461,-1.4216,-1.3626,-1.3626,-1.3626,-1.3626,-1.3626,-1.4378,-0.5328,-0.5431,0.0,-0.4508,-0.4437,0.0,-0.3606,0.0,0.0,0.0,0.0,0.0,0.0,0.0,0.0,-0.4755,-0.4402,-0.4077,0.0,-0.4179,0.0,0.0,0.0,0.0,0.0,0.0,-0.8403,-0.924,-0.9674,-0.9715,0.0,0.0,-0.9262,-0.9087,-0.874,-0.8568,-0.8568,-0.8568,-0.8568,-0.8568,-0.8568,-0.8568,-0.8568,-0.8568,-0.8915,-0.9428,-0.9772,-1.0284,-1.0971,-1.1235,-1.1149,-1.0885,-1.0804,-1.0636,-1.0463,-1.1413,-1.2186,-1.2619,-1.2357,-1.1843,-1.1327,-1.1327,-1.1671,-1.2186,-1.2186,-1.2186,-1.2339,-1.2843,-1.2541,-1.2169,-1.2843,-1.3146,-1.3392,-1.3568,-1.3828,-1.4088,-1.4088,-1.4088,-1.4088,-1.4088,-1.4088,-1.4088,-1.4088,-1.4088,-1.4088,-1.4088,-1.4088,-1.4088,-1.4088,-1.4088,-1.4088,-1.4088,-1.3828,-1.3652,-1.3568,-1.3398,-1.3222,-1.3143,-1.3052,-1.313,-1.3542,-1.3542,-1.349,-1.3394,-1.349,-1.3243,-1.2566,-1.2656,-1.2705,-1.2705,-1.2705,-1.3294]},{"header":{"parameterUnit":"m.s-1","parameterCategory":1,"la1":30.6,"la2":29.2853,"lo1":-89.7004,"lo2":-87.6739,"dy":0.0162,"dx":0.0183,"nx":112,"ny":82,"refTime":"2023-09-22T18:00:00:Z","depth":0,"parameterNumber":3,"parameterNumberName":"V-component_of_WINDS"},"data":[0.0,0.0,0.0,0.0,0.0,0.0,0.0,0.0,0.0,0.0,0.0,0.0,0.0,0.0,0.0,0.0,0.0,0.0,0.0,0.0,0.0,0.0,0.0,0.0,0.0,0.0,0.0,0.0,0.0,0.0,0.0,0.0,0.0,0.0,0.0,0.0,0.0,0.0,0.0,0.0,0.0,0.0,0.0,0.0,0.0,0.0,0.0,0.0,0.0,0.0,0.0,0.0,0.0,0.0,0.0,0.0,0.0,0.0,0.0,0.0,0.0,0.0,0.0,0.0,0.0,0.0,0.0,0.0,0.0,0.0,0.0,0.0,0.0,0.0,0.0,0.0,0.0,0.0,0.0,0.0,0.0,0.0,0.0,0.0,0.0,0.0,0.0,0.0,0.0,0.0,0.0,-1.849,-1.9837,-2.0611,-2.0546,-1.8979,-1.7712,-1.6961,0.0,0.0,0.0,0.0,0.0,0.0,0.0,0.0,0.0,0.0,0.0,0.0,0.0,0.0,0.0,0.0,0.0,0.0,0.0,0.0,0.0,0.0,0.0,0.0,0.0,0.0,0.0,0.0,0.0,0.0,0.0,0.0,0.0,0.0,0.0,0.0,0.0,0.0,0.0,0.0,0.0,0.0,0.0,0.0,0.0,0.0,0.0,0.0,0.0,0.0,0.0,0.0,0.0,0.0,0.0,0.0,0.0,0.0,0.0,0.0,0.0,0.0,0.0,0.0,0.0,0.0,0.0,0.0,0.0,0.0,0.0,0.0,0.0,0.0,0.0,0.0,0.0,0.0,0.0,0.0,0.0,0.0,0.0,0.0,0.0,0.0,0.0,0.0,0.0,0.0,0.0,0.0,0.0,0.0,0.0,0.0,0.0,0.0,0.0,0.0,0.0,0.0,0.0,0.0,-1.8935,-2.0952,-2.1281,-2.1104,-2.0575,-1.8739,-1.7546,-1.7317,0.0,0.0,0.0,0.0,0.0,0.0,0.0,0.0,0.0,0.0,0.0,0.0,0.0,0.0,0.0,0.0,0.0,0.0,0.0,0.0,0.0,0.0,0.0,0.0,0.0,0.0,0.0,0.0,0.0,0.0,0.0,0.0,0.0,0.0,0.0,0.0,0.0,0.0,0.0,0.0,0.0,0.0,0.0,0.0,0.0,0.0,0.0,0.0,0.0,0.0,0.0,0.0,0.0,0.0,0.0,0.0,0.0,0.0,0.0,0.0,0.0,0.0,0.0,0.0,0.0,0.0,0.0,0.0,0.0,0.0,0.0,0.0,0.0,0.0,0.0,0.0,0.0,0.0,0.0,0.0,0.0,0.0,0.0,0.0,0.0,0.0,0.0,0.0,0.0,0.0,0.0,0.0,0.0,0.0,0.0,0.0,0.0,0.0,0.0,0.0,0.0,0.0,0.0,-1.8421,-1.9315,-2.132,-2.1528,-2.1324,-2.0888,-1.8873,-1.7708,-1.7821,-1.6232,0.0,0.0,0.0,0.0,0.0,0.0,0.0,0.0,0.0,0.0,0.0,0.0,0.0,0.0,0.0,0.0,0.0,0.0,0.0,0.0,0.0,0.0,0.0,0.0,0.0,0.0,0.0,0.0,0.0,0.0,0.0,0.0,0.0,0.0,0.0,0.0,0.0,0.0,0.0,0.0,0.0,0.0,0.0,0.0,0.0,0.0,0.0,0.0,0.0,0.0,0.0,0.0,0.0,0.0,0.0,0.0,0.0,0.0,0.0,0.0,0.0,0.0,0.0,0.0,0.0,0.0,0.0,0.0,0.0,0.0,0.0,0.0,0.0,0.0,0.0,0.0,0.0,0.0,0.0,0.0,0.0,0.0,0.0,0.0,0.0,0.0,0.0,0.0,0.0,0.0,0.0,0.0,0.0,0.0,0.0,0.0,0.0,0.0,0.0,0.0,0.0,0.0,-1.9326,-1.9933,-2.1418,-2.1404,-2.1159,-2.0764,-1.8676,-1.759,-1.8017,-1.6314,0.0,0.0,0.0,0.0,0.0,0.0,0.0,0.0,0.0,0.0,0.0,0.0,0.0,0.0,0.0,0.0,0.0,0.0,0.0,0.0,0.0,0.0,0.0,0.0,0.0,0.0,0.0,0.0,0.0,0.0,0.0,0.0,0.0,0.0,0.0,0.0,0.0,0.0,0.0,0.0,0.0,0.0,0.0,0.0,0.0,0.0,0.0,0.0,0.0,0.0,0.0,0.0,0.0,0.0,0.0,0.0,0.0,0.0,0.0,0.0,0.0,0.0,0.0,0.0,0.0,0.0,0.0,0.0,0.0,0.0,0.0,0.0,0.0,0.0,0.0,0.0,0.0,0.0,0.0,0.0,0.0,0.0,0.0,0.0,0.0,0.0,0.0,0.0,0.0,0.0,0.0,0.0,0.0,0.0,0.0,0.0,0.0,0.0,0.0,0.0,0.0,0.0,-2.0985,-2.1607,-2.2051,-2.1303,-2.0462,-1.9837,-1.7916,-1.7014,-1.7535,-1.5869,0.0,0.0,0.0,0.0,0.0,0.0,0.0,0.0,0.0,0.0,0.0,0.0,0.0,0.0,0.0,0.0,0.0,0.0,0.0,0.0,0.0,0.0,0.0,0.0,0.0,0.0,0.0,0.0,0.0,0.0,0.0,0.0,0.0,0.0,0.0,0.0,0.0,0.0,0.0,0.0,0.0,0.0,0.0,0.0,0.0,0.0,0.0,0.0,0.0,0.0,0.0,0.0,0.0,0.0,0.0,0.0,0.0,0.0,0.0,0.0,0.0,0.0,0.0,0.0,0.0,0.0,0.0,0.0,0.0,0.0,0.0,0.0,0.0,0.0,0.0,0.0,0.0,0.0,0.0,0.0,0.0,0.0,0.0,0.0,0.0,0.0,0.0,0.0,0.0,0.0,0.0,0.0,0.0,0.0,0.0,0.0,0.0,0.0,0.0,0.0,0.0,0.0,-2.0445,-2.1007,0.0,-2.073,-2.0356,-1.9161,-1.7505,-1.6592,-1.6763,0.0,0.0,0.0,0.0,0.0,0.0,0.0,0.0,0.0,0.0,0.0,0.0,0.0,0.0,0.0,0.0,0.0,0.0,0.0,0.0,0.0,0.0,0.0,0.0,0.0,0.0,0.0,0.0,0.0,0.0,0.0,0.0,0.0,0.0,0.0,0.0,0.0,0.0,0.0,0.0,0.0,0.0,0.0,0.0,0.0,0.0,0.0,0.0,0.0,0.0,0.0,0.0,0.0,0.0,0.0,0.0,0.0,0.0,0.0,0.0,0.0,0.0,0.0,0.0,0.0,0.0,0.0,0.0,0.0,0.0,0.0,0.0,0.0,0.0,0.0,0.0,0.0,0.0,0.0,0.0,0.0,0.0,0.0,0.0,0.0,0.0,0.0,0.0,0.0,0.0,0.0,0.0,0.0,0.0,0.0,0.0,0.0,0.0,0.0,0.0,0.0,0.0,-1.878,-1.9904,-2.0401,0.0,-2.0093,-1.9673,-1.8283,-1.6863,-1.6043,-1.5906,0.0,0.0,0.0,0.0,0.0,0.0,0.0,0.0,0.0,0.0,0.0,0.0,0.0,0.0,0.0,0.0,0.0,0.0,0.0,0.0,0.0,0.0,0.0,0.0,0.0,0.0,0.0,0.0,0.0,0.0,0.0,0.0,0.0,0.0,0.0,0.0,0.0,0.0,0.0,0.0,0.0,0.0,0.0,0.0,0.0,0.0,0.0,0.0,0.0,0.0,0.0,0.0,0.0,0.0,0.0,0.0,0.0,0.0,0.0,0.0,0.0,0.0,0.0,0.0,0.0,0.0,0.0,0.0,0.0,0.0,0.0,0.0,0.0,0.0,0.0,0.0,0.0,0.0,0.0,0.0,0.0,0.0,0.0,0.0,0.0,0.0,0.0,0.0,0.0,0.0,0.0,0.0,0.0,0.0,0.0,0.0,0.0,0.0,0.0,0.0,0.0,0.0,-1.8948,-1.9666,-2.0111,-2.0216,-1.9359,-1.8311,-1.7108,-1.6048,-1.5355,0.0,0.0,0.0,0.0,0.0,0.0,0.0,0.0,0.0,0.0,0.0,0.0,0.0,0.0,0.0,0.0,0.0,0.0,0.0,0.0,0.0,0.0,0.0,0.0,0.0,0.0,0.0,0.0,0.0,0.0,0.0,0.0,0.0,0.0,0.0,0.0,0.0,0.0,0.0,0.0,0.0,0.0,0.0,0.0,0.0,0.0,0.0,0.0,0.0,0.0,0.0,0.0,0.0,0.0,0.0,0.0,0.0,0.0,0.0,0.0,0.0,0.0,0.0,0.0,0.0,0.0,0.0,0.0,0.0,0.0,0.0,0.0,0.0,0.0,0.0,0.0,0.0,0.0,0.0,0.0,0.0,0.0,0.0,0.0,0.0,0.0,0.0,0.0,0.0,0.0,0.0,0.0,0.0,0.0,0.0,0.0,0.0,0.0,0.0,0.0,0.0,0.0,0.0,-1.8815,-1.9587,-1.9839,-1.9274,-1.8664,-1.7793,-1.6619,-1.577,-1.5036,-1.4483,0.0,0.0,0.0,0.0,0.0,0.0,0.0,0.0,0.0,0.0,0.0,0.0,0.0,0.0,0.0,0.0,0.0,0.0,0.0,0.0,0.0,0.0,0.0,0.0,0.0,0.0,0.0,0.0,0.0,0.0,0.0,0.0,0.0,0.0,0.0,0.0,0.0,0.0,0.0,0.0,0.0,0.0,0.0,0.0,0.0,0.0,0.0,0.0,0.0,0.0,0.0,0.0,0.0,0.0,0.0,0.0,0.0,0.0,0.0,0.0,0.0,0.0,0.0,0.0,0.0,0.0,0.0,0.0,0.0,0.0,0.0,0.0,0.0,0.0,0.0,0.0,0.0,0.0,0.0,0.0,0.0,0.0,0.0,0.0,0.0,0.0,0.0,0.0,0.0,0.0,0.0,0.0,0.0,0.0,0.0,0.0,0.0,0.0,0.0,0.0,0.0,0.0,-1.8643,-1.9393,-1.9594,-1.8891,-1.829,-1.7309,-1.5735,-1.532,-1.4693,-1.3882,0.0,0.0,0.0,0.0,0.0,0.0,0.0,0.0,0.0,0.0,0.0,0.0,0.0,0.0,0.0,0.0,0.0,0.0,0.0,0.0,0.0,0.0,0.0,0.0,0.0,0.0,0.0,0.0,0.0,0.0,0.0,0.0,0.0,0.0,0.0,0.0,0.0,0.0,0.0,0.0,0.0,0.0,0.0,0.0,0.0,0.0,0.0,0.0,0.0,0.0,0.0,0.0,0.0,0.0,0.0,0.0,0.0,0.0,0.0,0.0,0.0,0.0,0.0,0.0,0.0,0.0,0.0,0.0,0.0,0.0,0.0,0.0,0.0,0.0,0.0,0.0,0.0,0.0,0.0,0.0,0.0,0.0,0.0,0.0,0.0,0.0,0.0,0.0,0.0,0.0,0.0,0.0,0.0,0.0,0.0,0.0,0.0,0.0,0.0,0.0,0.0,0.0,-1.8419,-1.9039,-1.9264,-1.8767,-1.7969,-1.6715,-1.4744,-1.4681,-1.4307,-1.3124,0.0,0.0,0.0,0.0,0.0,0.0,0.0,0.0,0.0,0.0,0.0,0.0,0.0,0.0,0.0,0.0,0.0,0.0,0.0,0.0,0.0,0.0,0.0,0.0,0.0,0.0,0.0,0.0,0.0,0.0,0.0,0.0,0.0,0.0,0.0,0.0,0.0,0.0,0.0,0.0,0.0,0.0,0.0,0.0,0.0,0.0,0.0,0.0,0.0,0.0,0.0,0.0,0.0,0.0,0.0,0.0,0.0,0.0,0.0,0.0,-1.6698,0.0,0.0,0.0,0.0,0.0,0.0,0.0,0.0,0.0,0.0,0.0,0.0,0.0,0.0,0.0,0.0,0.0,0.0,0.0,0.0,0.0,0.0,0.0,0.0,0.0,0.0,0.0,0.0,0.0,0.0,0.0,0.0,0.0,0.0,0.0,0.0,0.0,0.0,0.0,0.0,0.0,-1.8228,-1.8206,-1.8046,-1.7969,-1.6872,-1.5604,-1.425,-1.4186,-1.3525,-1.188,-1.1317,0.0,0.0,0.0,0.0,0.0,0.0,0.0,0.0,0.0,0.0,0.0,0.0,0.0,0.0,0.0,0.0,0.0,0.0,0.0,0.0,0.0,0.0,0.0,0.0,0.0,0.0,0.0,0.0,0.0,0.0,0.0,0.0,0.0,0.0,0.0,0.0,0.0,0.0,0.0,0.0,0.0,0.0,0.0,0.0,0.0,0.0,0.0,0.0,0.0,0.0,0.0,0.0,0.0,0.0,0.0,0.0,0.0,0.0,0.0,0.0,-1.7341,0.0,0.0,0.0,0.0,0.0,0.0,0.0,0.0,0.0,0.0,0.0,0.0,0.0,0.0,0.0,0.0,0.0,0.0,0.0,0.0,0.0,0.0,0.0,0.0,0.0,0.0,0.0,0.0,0.0,0.0,0.0,0.0,0.0,0.0,0.0,0.0,0.0,0.0,0.0,0.0,-1.8197,-1.8009,-1.7833,-1.7833,-1.6594,-1.5259,-1.3897,-1.3825,-1.3086,-1.1404,-1.0792,0.0,0.0,0.0,0.0,0.0,0.0,0.0,0.0,0.0,0.0,0.0,0.0,0.0,0.0,0.0,0.0,0.0,0.0,0.0,0.0,0.0,0.0,0.0,0.0,0.0,0.0,0.0,0.0,0.0,0.0,0.0,0.0,0.0,0.0,0.0,0.0,0.0,0.0,0.0,0.0,0.0,0.0,0.0,0.0,0.0,0.0,0.0,0.0,0.0,0.0,0.0,0.0,0.0,-1.8628,-1.8227,-1.8582,-1.8817,-1.8679,-1.8281,-1.8264,-1.8172,-1.8061,0.0,0.0,0.0,0.0,0.0,0.0,0.0,0.0,0.0,0.0,0.0,0.0,0.0,0.0,0.0,0.0,0.0,0.0,0.0,0.0,0.0,0.0,0.0,0.0,0.0,-1.7856,-1.8023,0.0,0.0,0.0,0.0,0.0,0.0,0.0,0.0,0.0,0.0,0.0,0.0,-1.8189,-1.7925,-1.7687,-1.7765,-1.6455,-1.4974,-1.3535,-1.3535,-1.2792,-1.0881,-1.0335,-0.9909,0.0,0.0,0.0,0.0,0.0,0.0,0.0,0.0,0.0,0.0,0.0,0.0,0.0,0.0,0.0,0.0,0.0,0.0,0.0,0.0,0.0,0.0,0.0,0.0,0.0,0.0,0.0,0.0,0.0,0.0,0.0,0.0,0.9263,0.7808,0.0,0.0,0.0,0.0,0.0,0.0,0.0,0.0,0.0,0.0,0.0,0.0,0.0,-2.1138,-2.2022,-2.1362,-2.088,-2.0553,-1.9945,-1.9126,-1.8063,-1.8155,-1.835,-1.8657,-1.757,0.0,-1.8398,-1.8732,0.0,0.0,0.0,0.0,0.0,0.0,0.0,0.0,0.0,0.0,0.0,0.0,0.0,0.0,0.0,0.0,0.0,0.0,0.0,0.0,0.0,0.0,-1.6609,-1.7826,-1.8522,-1.8882,0.0,-1.8202,-1.7844,-1.8295,-1.8329,0.0,0.0,0.0,0.0,0.0,0.0,0.0,-1.7882,-1.7147,-1.6585,-1.6742,-1.5551,-1.4274,-1.3112,-1.2966,-1.199,-0.9674,-0.9632,-0.9269,-0.8297,-0.8009,0.0,0.0,0.0,0.0,0.0,0.0,0.0,0.0,0.0,0.0,0.0,0.0,0.0,0.0,0.0,0.0,0.0,0.0,0.0,0.0,0.0,0.0,0.0,0.0,0.0,0.0,0.0,0.0,0.0,0.7168,0.6621,0.4955,0.1183,-0.2416,0.0,0.0,0.0,0.0,0.0,0.0,0.0,0.0,0.0,-2.2515,-2.252,-2.318,-2.4726,-2.4233,-2.3299,-2.1911,-2.0876,-2.0057,-1.936,-1.9168,-1.9031,-1.8893,-1.8914,-1.8899,-1.8866,-1.7945,-1.742,-1.7247,0.0,0.0,0.0,0.0,-1.7332,-1.714,-1.6882,-1.6917,0.0,-1.6269,0.0,0.0,0.0,0.0,0.0,0.0,0.0,0.0,0.0,0.0,-1.7985,-1.8568,-1.911,-1.9603,-1.9878,-1.9512,-1.916,0.0,-1.9263,-1.8907,-1.8333,0.0,0.0,0.0,0.0,0.0,-1.7431,-1.6626,-1.6035,-1.6114,-1.4974,-1.384,-1.2973,-1.2599,-1.1477,-0.9448,-0.9377,-0.8915,-0.7768,-0.7542,-0.7358,0.0,0.0,0.0,0.0,0.0,0.0,0.0,0.0,0.0,0.0,0.0,0.0,0.0,0.0,0.0,0.0,0.0,0.0,0.0,0.0,0.0,0.0,0.0,0.0,0.0,0.0,0.0,0.0,0.8226,0.7637,0.4886,0.268,-0.056,0.0,0.0,0.0,0.0,0.0,0.0,-1.8332,-1.8202,-2.0386,-2.5618,-2.4542,-2.4874,-2.692,-2.6341,-2.5072,-2.314,-2.1731,-2.0819,-2.0358,-1.9802,-1.933,-1.9112,-1.9429,-1.9429,-1.916,-1.775,-1.708,-1.6977,-1.7083,-1.6812,-1.6485,-1.7256,-1.7497,-1.7392,-1.7328,-1.7646,-1.7894,-1.6973,0.0,-1.7134,-1.7238,0.0,0.0,0.0,0.0,-1.777,-1.7595,-1.8207,-1.8997,-1.9299,-1.9716,-2.013,-2.0698,-2.082,-2.0784,0.0,-2.0125,-1.9769,-1.9559,0.0,0.0,0.0,0.0,-1.7627,-1.7566,-1.6738,-1.6125,-1.5901,-1.4887,-1.3866,-1.3131,-1.26,-1.1501,-0.9698,-0.9464,-0.8827,-0.7642,-0.7064,-0.6729,-0.6572,0.0,0.0,0.0,0.0,0.0,0.0,0.0,0.0,0.0,0.0,0.0,0.0,0.0,0.0,0.0,0.0,0.0,0.0,0.0,0.0,0.0,0.0,0.0,0.0,0.0,0.0,0.0,0.0,0.0,1.2062,0.9491,0.0,0.0,0.0,0.0,-1.1041,-1.1172,-1.41,-2.0937,-2.0741,-2.2553,-2.7245,-2.5774,-2.58,-2.7647,-2.6475,-2.5227,-2.3852,-2.2655,-2.1538,-2.0369,-1.9023,-1.8829,-1.9413,-1.7926,-1.8033,-1.9185,-1.9315,-1.8998,-1.8478,-1.8527,-1.8513,-1.8528,-1.8319,-1.86,-1.898,-1.8243,-1.8439,-1.8854,-1.7835,-1.7626,-1.7819,-1.813,-1.8438,0.0,0.0,-1.8465,-1.8712,-1.9327,-1.8761,-1.8455,-2.0117,-2.0327,-2.0369,-2.1328,-2.1954,-2.2069,0.0,-2.0691,-2.0386,-2.0129,0.0,-1.9391,-1.9152,-1.8787,-1.8594,-1.8836,-1.787,-1.6908,-1.6287,-1.5626,-1.4794,-1.3611,-1.3205,-1.2302,-1.0428,-0.9943,-0.9072,-0.7808,-0.6623,-0.5937,-0.5936,-0.4982,0.0,0.0,0.0,0.0,0.0,0.0,0.0,0.0,0.0,0.0,0.0,0.0,0.0,0.0,0.0,0.0,0.0,0.0,0.0,0.0,0.0,0.0,0.0,0.0,0.0,0.0,0.0,0.0,1.1661,0.9668,0.0,0.1725,-0.2478,-0.7133,-1.2586,-1.1627,-1.3937,-2.1172,-2.0651,-2.2138,-2.6465,-2.5355,-2.562,-2.7631,-2.7234,-2.6447,-2.5352,-2.3876,-2.277,-2.2088,-2.0684,-2.0098,-2.0098,-1.825,-1.7909,-1.8488,-1.7125,-1.7111,-1.783,-1.7476,-1.7236,-1.708,-1.7121,-1.7636,-1.8112,-1.7309,-1.761,-1.8287,-1.7668,-1.8135,-1.8882,-1.8916,-1.9162,-1.9436,-1.9437,-1.9546,-1.9758,-2.0086,-2.0268,-2.0534,-2.117,-2.129,-2.1366,-2.2056,-2.2242,-2.2237,-2.2142,-2.172,-2.1375,-2.1224,-2.0603,-1.9748,-1.8577,-1.8232,-1.7788,-1.7076,-1.6277,-1.5666,-1.5435,-1.4499,-1.3724,-1.3252,-1.2539,-1.1467,-0.9782,-0.9483,-0.8746,-0.7427,-0.583,-0.4963,-0.4952,-0.3812,-0.299,0.0,0.0,0.0,0.0,0.0,0.0,0.0,0.0,0.0,0.0,0.0,0.0,0.0,0.0,0.0,0.0,0.0,0.0,0.0,0.0,0.0,0.0,0.0,0.0,0.0,0.0,1.7695,1.2879,1.1041,0.8221,0.329,-0.0856,-0.5898,-1.2332,-1.2013,-1.4597,-2.1697,-2.1294,-2.2575,-2.6381,-2.4866,-2.5141,-2.7506,-2.725,-2.6669,-2.5703,-2.4287,-2.327,-2.2702,-2.1322,-2.0644,-2.0401,-1.8435,-1.7777,-1.7929,-1.5843,-1.5678,-1.663,-1.6616,-1.6487,-1.6257,-1.64,-1.7101,-1.7909,-1.7359,-1.7734,-1.8317,-1.7988,-1.8526,-1.9325,-1.9325,-1.9394,-1.9582,-1.9733,-1.9885,-1.9975,-2.0209,-2.073,-2.1263,-2.1626,-2.1625,-2.1685,-2.2331,-2.2228,-2.2072,-2.2328,-2.2052,-2.1744,-2.1736,-2.1071,-2.0277,-1.9141,-1.849,-1.7881,-1.7072,-1.6178,-1.54,-1.5076,-1.4184,-1.346,-1.2982,-1.2338,-1.1317,-0.9751,-0.9465,-0.8626,-0.6869,-0.5565,-0.4771,-0.4457,-0.2795,-0.179,-0.1378,0.0,0.0,0.0,0.0,0.0,0.0,0.0,0.0,0.0,0.0,0.0,0.0,0.0,0.0,0.0,0.0,0.0,0.0,0.0,0.0,0.0,0.0,0.0,1.9113,2.0082,1.9947,1.6598,1.4194,1.0774,0.5536,0.1173,-0.3911,-1.0127,-1.2245,-1.6105,-2.2683,-2.282,-2.4098,-2.7119,-2.4552,-2.4511,-2.7381,-2.6617,-2.5751,-2.4815,-2.3838,-2.2896,-2.1947,-2.0802,-2.0264,-2.0098,-1.8292,-1.7479,-1.7365,-1.5556,-1.4867,-1.4998,-1.6215,-1.6461,-1.6268,-1.6268,-1.7193,-1.8424,-1.8452,-1.8721,-1.8998,-1.8808,-1.8885,-1.9116,-1.925,-1.9183,-1.9116,-1.9281,-1.9348,-1.9431,-1.9675,-2.006,-2.0648,-2.1251,-2.122,-2.1298,-2.1949,-2.1787,-2.1538,-2.1756,-2.1634,-2.1425,-2.1425,-2.1128,-2.0834,-2.0686,-1.9725,0.0,-1.9107,-1.7686,-1.6229,-1.5206,-1.4859,-1.4105,-1.2857,-1.2624,-1.1892,-1.0381,-1.0013,-0.8742,-0.636,-0.594,-0.5401,-0.4382,-0.2137,-0.0373,0.0874,0.0,0.0,0.0,0.0,0.0,0.0,0.0,0.0,0.0,0.0,0.0,0.0,0.0,0.0,0.0,0.0,0.0,0.0,0.0,0.0,0.0,0.0,2.377,2.2228,2.4234,2.5106,2.3193,1.7242,1.2447,1.0233,0.2939,-0.4841,-1.2524,-1.2151,-1.5203,-2.3573,-2.3223,-2.3583,-2.535,-2.5637,-2.6264,-2.7321,-2.6582,-2.6091,-2.5779,-2.3781,-2.2462,-2.1744,-2.0876,-1.9756,-1.8212,-1.6635,-1.5486,-1.4657,-1.2849,-1.2161,-1.253,-1.4503,-1.5226,-1.514,-1.53,-1.598,-1.6866,-1.7301,-1.7823,-1.824,-1.7628,-1.8319,-1.9404,-1.9262,-1.9394,-1.9585,-1.9723,-2.0267,-2.0667,-2.039,-2.0917,-2.168,-2.188,-2.1542,-2.1318,-2.1949,-2.1405,-2.0944,-2.1088,-2.0876,-2.0644,-2.0527,-2.0226,-1.9483,-1.8082,-1.7751,0.0,-1.6726,-1.5831,-1.5389,-1.5794,-1.422,-1.3239,-1.348,-1.2171,-1.0873,-0.9574,-0.8891,-0.795,-0.6776,-0.5175,-0.3371,-0.1399,-0.0633,0.0,0.0,0.0,0.0,0.0,0.0,0.0,0.0,0.0,0.0,0.0,0.0,0.0,0.0,0.0,0.0,0.0,0.0,0.0,0.0,0.0,0.0,0.0,2.5217,2.5641,2.536,2.5895,2.6372,2.6469,1.8665,1.3197,1.2957,0.4296,-0.3998,-1.0512,-1.2203,-1.6201,-2.3663,-2.4339,-2.4715,-2.5138,-2.5671,-2.6096,-2.6381,-2.5846,-2.5255,-2.4667,-2.3028,-2.1541,-2.0222,-1.9828,-1.8589,0.0,-1.4156,-1.3261,-1.3408,-1.0717,-1.0265,0.0,0.0,0.0,0.0,0.0,-1.5486,-1.5845,-1.6546,-1.7367,-1.7976,-1.7525,-1.8062,-1.8854,-1.8899,-1.9046,-1.9174,-1.9118,-1.9659,-2.0145,-1.9726,-2.034,-2.1085,-2.1048,-2.0847,-2.0692,-2.1011,-2.0401,-1.9775,-1.9668,-1.952,0.0,-1.87,-1.9116,-1.8982,-1.7527,-1.7154,-1.6887,-1.6508,-1.5389,-1.474,-1.5198,-1.3629,-1.2553,-1.2714,-1.1439,0.0,0.0,0.0,-0.7562,-0.632,-0.4722,0.0,0.0,0.0,0.0721,0.1962,0.0,0.0,0.0,0.127,0.0373,0.0,0.0,0.0,0.0,0.0,0.0,0.0,0.0,0.0,0.0,0.0,0.0,0.0,0.0,0.0,0.0,2.7095,2.7524,2.7917,2.5871,2.5036,2.7169,1.9236,1.3759,1.4181,0.5608,-0.1688,-0.5821,-1.1096,-1.7142,-2.4032,0.0,0.0,0.0,0.0,-2.4763,-2.4447,-2.45,-2.3851,-2.2421,-2.1674,-2.0004,-1.7646,-1.7605,-1.6483,-1.4421,-1.1081,-1.0726,-1.2317,-0.9072,-0.9,-1.1144,-1.164,-1.2377,-1.3343,-1.4714,-1.5187,-1.5287,-1.6021,0.0,0.0,-1.7949,-1.7889,-1.7924,-1.8294,-1.8395,-1.8266,-1.7794,-1.822,-1.8677,-1.8186,-1.8905,-1.9678,-1.9427,-1.9511,-1.958,-1.9344,-1.8816,-1.8273,-1.7917,-1.7827,-1.7513,-1.655,-1.7844,-1.8691,-1.7995,-1.7047,-1.6668,-1.7229,-1.5442,-1.4126,-1.3995,0.0,0.0,-1.1477,-1.0662,-0.987,-0.9218,-0.8295,-0.7119,-0.5401,-0.4468,-0.2611,0.0253,0.0248,0.1586,0.4187,0.4187,0.4183,0.4161,0.1912,0.0968,0.0,0.0,0.0,0.0,0.0,0.0,0.0,0.0,0.0,0.0,0.0,0.0,0.0,0.0,0.0,2.5097,2.5326,2.6129,2.7657,2.5366,2.4089,2.5525,2.0722,1.6488,1.4556,0.798,0.2057,-0.2269,-0.343,-1.1401,-2.85,-2.6213,0.0,-2.2088,-2.4236,-2.3834,-2.0514,-2.2609,-2.2913,-2.1384,0.0,0.0,-1.4067,-1.384,-1.1865,-0.8504,-0.7752,-0.6939,-0.6317,-0.7319,-0.8464,-0.9666,-1.0575,-1.1241,-1.1781,-1.2561,-1.3512,-1.4612,-1.5344,-1.6287,-1.7133,-1.7239,-1.7325,-1.7467,-1.7534,-1.7517,0.0,-1.6155,-1.7335,-1.8464,-1.6887,-1.7886,-1.9182,-1.8417,-1.8052,-1.7819,-1.7446,-1.6976,-1.6593,-1.6911,-1.6993,-1.6756,-1.6206,-1.6542,-1.669,-1.6062,-1.544,-1.5123,-1.5223,-1.3931,-1.3283,-1.4022,-1.2692,-1.1957,-1.2355,-1.0721,-0.9535,-0.9222,-0.7274,-0.5667,-0.459,-0.3622,-0.1767,0.1148,0.1144,0.2204,0.4275,0.4275,0.4238,0.4171,0.3787,0.3248,0.0,0.0,0.0,0.0,0.0,0.0,0.0,0.0,0.0,0.0,0.0,2.5265,0.0,0.0,2.6524,2.6451,2.6299,2.6761,2.8216,2.6337,2.506,2.5892,2.1141,1.7545,1.6736,0.9512,0.3367,-0.0319,-0.2965,-0.9108,-1.9914,-1.9405,-1.8367,-1.7472,-1.9691,-1.9879,-1.7909,-1.8524,-1.8667,-1.8197,-1.5284,-1.265,-1.0227,-1.0044,-0.8402,-0.5774,-0.4516,-0.4218,-0.4763,-0.5812,-0.6394,-0.6643,-0.7621,-0.8773,-1.0077,-1.1439,-1.2591,-1.3665,-1.4591,-1.5622,-1.645,-1.6342,-1.6379,-1.6485,-1.6365,-1.6221,-1.5983,-1.5292,-1.6025,-1.6855,-1.5786,-1.6772,-1.7747,-1.6838,-1.6846,-1.6935,-1.6413,-1.6085,-1.5854,-1.5869,-1.5516,-1.5087,-1.4608,-1.4273,-1.4196,-1.4643,-1.465,-1.4475,-1.4216,-1.3209,-1.2729,-1.3336,-1.2163,-1.1499,-1.1989,-1.0284,-0.8784,-0.7742,-0.6334,-0.5095,-0.4113,-0.2861,-0.1073,0.1342,0.1879,0.2865,0.43,0.43,0.4277,0.4236,0.4459,0.4341,0.0,0.0,0.0,0.0,0.0,0.0,0.0,0.0,2.6177,2.6129,2.647,2.6548,2.573,2.6174,2.693,2.778,2.763,2.7746,2.855,2.7217,2.612,2.6177,2.1701,1.8784,1.9025,1.151,0.4939,0.0972,-0.3488,-0.7154,-0.9597,-1.1262,-1.2172,-1.2324,-1.3841,-1.4452,-1.398,-1.3601,-1.3506,-1.3671,-1.0396,-0.7989,-0.6325,-0.6124,-0.5151,-0.34,-0.1403,-0.1882,-0.4064,-0.3917,-0.3904,-0.3926,-0.4358,-0.5775,-0.7822,-0.9875,-1.1348,-1.2401,-1.338,-1.449,-1.5418,-1.5382,-1.5316,-1.5162,-1.5043,-1.4955,-1.477,-1.4483,-1.4606,-1.4858,-1.4816,-1.5462,-1.5951,-1.5228,-1.5636,-1.5951,-1.5108,-1.4942,-1.4782,-1.4398,-1.3698,-1.3087,-1.276,-1.2169,-1.2163,-1.3444,-1.3711,-1.3711,-1.3366,-1.2607,-1.2106,-1.2272,-1.1338,-1.0564,-1.0467,-0.924,-0.7749,-0.6169,-0.5361,-0.4559,-0.3758,-0.1965,-0.0179,0.1522,0.2596,0.358,0.4476,0.4478,0.4478,0.4389,0.4569,0.4784,3.0,2.8566,2.8079,2.8998,2.8253,2.7969,0.0,0.0,2.9161,2.9187,2.9605,2.9021,2.6232,2.716,2.7938,2.65,2.6964,2.7481,2.7233,2.6102,2.4954,2.426,2.3627,2.2278,1.9959,1.533,0.9519,0.2197,0.0544,-0.2492,-0.7892,-0.6862,-0.6462,-0.7202,-0.8717,-0.8182,-0.5423,-0.8263,-0.9204,-0.8109,-0.7615,-0.5771,-0.2582,-0.2346,-0.1083,0.0908,0.1413,0.0398,-0.1554,-0.0476,-0.1584,-0.3737,-0.2416,-0.2935,-0.4628,-0.6359,-0.8627,-1.0904,-1.1204,-1.2038,-1.3262,-1.426,-1.4001,-1.3412,-1.3988,-1.4156,-1.3995,-1.3366,-1.3341,-1.3568,-1.3548,-1.3957,-1.4273,-1.3977,-1.4139,-1.3873,-1.2431,-1.218,-1.2009,-1.1585,-1.1408,-1.1408,-1.1757,-1.1929,-1.2089,-1.2413,-1.1997,-1.1752,-1.1929,-1.1327,-1.0901,-1.0901,-1.0024,-0.8794,-0.7394,-0.7129,-0.6691,-0.5808,-0.4109,-0.3217,-0.3309,-0.0625,0.1163,0.197,0.3217,0.42,0.4921,0.5191,0.5104,0.4661,0.4661,0.4608,3.374,3.2204,0.0,0.0,3.0919,3.0368,3.1058,3.0586,2.9882,2.9584,2.9896,2.9451,2.6989,2.7536,2.8168,0.0,2.7965,2.7897,2.7099,2.6623,2.5915,2.4807,2.4424,2.3396,2.1533,1.6976,1.2334,0.7899,0.5155,0.1776,-0.2585,-0.1936,-0.1559,-0.1955,-0.3751,-0.4459,-0.3765,-0.4213,-0.46,-0.5038,-0.2662,-0.0998,0.0204,0.071,0.1917,0.3423,0.2623,0.239,0.2723,0.2612,0.1905,0.0933,0.1203,0.0462,-0.1105,-0.4166,-0.6415,-0.8047,-0.8648,-0.97,-1.0823,-1.0919,-1.1268,-1.1616,-1.1466,-1.1649,-1.174,-1.095,-1.1133,-1.1483,-1.1397,-1.1889,-1.231,-1.2003,-1.251,-1.276,-1.1666,-1.1585,-1.1677,-1.1585,-1.1154,-1.0809,-1.1068,-1.0722,-1.0463,-1.0712,-1.1149,-1.1413,-1.0895,-1.0284,-0.9584,-0.8877,-0.8524,-0.7639,-0.5703,-0.6148,-0.5706,-0.3749,-0.313,-0.2685,-0.2147,0.0358,0.179,0.2059,0.3666,0.465,0.501,0.5099,0.5102,0.4835,0.4835,0.4812,3.5453,0.0,0.0,3.3527,3.3154,3.2507,3.144,3.1039,3.0691,2.9918,3.0011,2.9699,2.7663,2.7727,2.816,2.8298,2.8372,2.8008,2.678,2.6617,2.6162,2.4759,2.4088,2.3357,2.2321,1.7927,1.4424,1.2795,0.8252,0.4641,0.2672,0.192,0.1594,0.1797,0.0316,-0.083,-0.1516,-0.0407,-0.0306,-0.1221,0.175,0.3013,0.2922,0.3529,0.4199,0.4826,0.3725,0.3993,0.5312,0.4702,0.4268,0.4117,0.3901,0.285,0.1137,-0.1642,-0.3877,-0.551,-0.6207,-0.745,-0.8617,-0.819,-0.8697,-0.9547,-0.9121,-0.9362,-0.9676,-0.9309,-0.9492,-0.968,-0.957,-0.9904,-1.0154,-0.9822,-1.0331,-1.0758,-1.0173,-1.0178,-1.0351,-1.0265,-0.9749,-0.9318,-0.9497,-0.8978,-0.8632,-0.9074,-0.9937,-1.0371,-0.9941,-0.9235,-0.8265,-0.6939,-0.7204,-0.6584,-0.4461,-0.5085,-0.4725,-0.268,-0.2147,-0.17,-0.0895,0.1431,0.2685,0.2685,0.4383,0.5277,0.5191,0.5277,0.5099,0.4832,0.4832,0.4654,3.3558,0.0,3.4775,3.4841,3.4765,3.4394,3.3196,3.2835,3.2382,3.0917,3.0817,3.0327,2.7924,2.8046,2.8076,2.6852,2.7375,2.7375,2.5836,2.538,2.4628,2.3067,2.2441,2.1989,0.0,1.8581,1.6085,1.5102,0.8958,0.5721,0.6797,0.3851,0.2431,0.3222,0.3219,0.3189,0.3428,0.3428,0.3761,0.4439,0.4545,0.5106,0.6032,0.5926,0.5618,0.5229,0.5129,0.5024,0.4814,0.5319,0.4694,0.3712,0.46,0.3422,0.1332,0.19,-0.0472,-0.3851,-0.395,-0.5174,-0.6587,-0.6768,-0.6885,-0.7073,-0.7413,-0.8035,-0.8627,-0.9061,-0.8715,-0.8281,-0.8511,-0.8074,-0.7639,-0.7526,-0.7519,-0.7439,-0.7021,-0.6936,-0.6766,-0.6071,-0.5894,-0.6071,-0.6779,-0.6684,-0.677,-0.7742,-0.7749,-0.7925,-0.8803,-0.8273,-0.7122,-0.5262,-0.5891,-0.5716,-0.3757,-0.3667,-0.3667,-0.3578,-0.1162,0.0358,0.0358,0.2862,0.4208,0.4208,0.5458,0.5908,0.5644,0.5905,0.5458,0.43,0.43,0.3851,3.5477,0.0,3.5865,3.6495,3.5734,3.4612,3.3646,3.2662,3.1696,3.0607,2.9757,2.895,2.7867,2.7671,2.752,2.7035,2.7528,2.7315,2.5539,2.5669,2.5073,2.2823,2.2511,0.0,0.0,0.0,0.0,1.5146,1.2377,0.9961,0.8007,0.6893,0.6534,0.6929,0.6396,0.6027,0.603,0.5761,0.5541,0.5361,0.5401,0.5695,0.6347,0.5925,0.616,0.7036,0.5934,0.6229,0.7419,0.6886,0.6374,0.6072,0.6524,0.5623,0.4146,0.3852,0.2464,0.0686,-0.0383,-0.1896,-0.3312,-0.3405,-0.415,-0.4984,-0.5167,-0.5789,-0.6403,-0.5945,-0.6224,-0.6593,-0.64,-0.6068,-0.6012,-0.6268,-0.6468,-0.6498,-0.6328,-0.6416,-0.6502,-0.6239,-0.6154,-0.6242,-0.6508,-0.6325,-0.641,-0.7031,-0.7478,-0.7573,-0.7309,-0.6505,-0.544,-0.42,-0.3755,-0.313,-0.1791,-0.2327,-0.2148,-0.0806,-0.0627,-0.0269,0.0358,0.1702,0.2688,0.3315,0.4387,0.5193,0.5733,0.5822,0.5641,0.5196,0.5196,0.4835,3.5841,3.6133,3.603,3.6383,3.5598,3.4426,3.3241,3.1955,3.0771,3.0241,2.8785,2.7521,2.7032,2.6507,2.6071,2.599,2.6141,2.5962,2.5201,2.516,2.4606,2.3221,2.313,2.255,0.0,0.0,0.0,1.6522,1.4708,1.2799,1.0885,0.9671,0.9219,0.9743,0.8578,0.8275,0.8909,0.7607,0.7087,0.7333,0.7099,0.7264,0.7827,0.7131,0.7275,0.8038,0.7036,0.7332,0.8528,0.8226,0.763,0.7132,0.7627,0.693,0.5436,0.5033,0.4431,0.3615,0.1766,0.0194,-0.097,-0.0873,-0.1738,-0.2785,-0.2689,-0.3245,-0.3982,-0.3799,-0.4368,-0.4933,-0.4748,-0.4708,-0.4663,-0.4657,-0.4793,-0.4931,-0.5118,-0.5297,-0.5373,-0.5333,-0.5325,-0.5313,-0.5364,-0.5442,-0.5528,-0.5706,-0.5968,-0.6148,-0.634,-0.5359,-0.4289,-0.331,-0.2774,-0.206,-0.1076,-0.1524,-0.1344,-0.009,-0.0179,0.0,0.0718,0.1703,0.2598,0.3405,0.43,0.5104,0.5552,0.5552,0.5463,0.5196,0.5196,0.4924,3.4722,3.521,3.5415,3.4877,3.4646,3.4002,3.2236,3.0859,2.9935,2.9628,2.7855,2.6083,0.0,0.0,2.4061,2.3823,2.3553,2.3744,2.4807,2.4047,2.35,0.0,0.0,0.0,0.0,0.0,0.0,1.9202,0.0,1.4398,1.5282,1.2235,1.089,1.1861,1.0236,1.0078,1.1869,0.9166,0.8678,1.0356,0.9737,0.9836,1.0272,0.9571,0.8978,0.8531,0.8531,0.8336,0.8237,0.9217,0.8616,0.7126,0.8117,0.7226,0.5539,0.5737,0.5536,0.5037,0.2619,0.131,0.0605,0.0806,0.0298,-0.0392,-0.0196,-0.058,-0.1332,-0.2664,-0.3045,-0.3141,-0.3529,-0.3624,-0.3431,-0.2765,-0.2573,-0.2762,-0.3241,-0.3336,-0.3318,-0.3254,-0.3239,-0.3308,-0.3334,-0.3765,-0.403,-0.3758,-0.322,-0.3662,-0.5894,-0.4736,-0.3401,-0.2508,-0.2597,-0.233,-0.1436,-0.1346,-0.1346,-0.1346,0.0179,0.1166,0.1345,0.2955,0.3939,0.43,0.5193,0.5552,0.5371,0.5371,0.5013,0.4387,0.4387,0.4119,3.6015,3.6527,3.694,3.6137,3.5222,3.4129,3.2427,3.1119,2.9834,2.8413,2.6518,2.4814,0.0,0.0,0.0,2.4007,2.5235,0.0,2.6174,2.6027,0.0,2.4504,0.0,2.366,2.2335,2.211,0.0,0.0,1.8218,1.6612,1.713,1.5871,1.5429,1.5914,1.4797,1.4048,1.3658,1.1437,1.052,1.0969,1.1028,1.1028,1.0973,1.078,1.0448,1.0194,1.001,0.9817,0.9817,1.0113,0.9912,0.9513,0.9813,0.9513,0.9015,0.8206,0.7713,0.7126,0.5715,0.4414,0.3217,0.2516,0.2305,0.1994,0.07,0.0399,0.0397,-0.0595,-0.0993,-0.1092,-0.1192,-0.1277,-0.1167,-0.0972,-0.1059,-0.1144,-0.1334,-0.1334,-0.1237,-0.104,-0.1027,-0.1015,-0.0643,-0.1176,-0.152,-0.1341,-0.1252,-0.1877,-0.3573,-0.2144,-0.1073,-0.1163,-0.0627,-0.0269,-0.0359,-0.0359,-0.0359,-0.0359,0.0359,0.0897,0.1166,0.2239,0.331,0.4291,0.4914,0.5361,0.5633,0.5633,0.5455,0.5104,0.5104,0.4746,3.556,3.5997,3.6199,3.4978,3.4041,3.301,3.1069,2.9783,2.8437,2.6613,2.4848,0.0,2.228,0.0,0.0,0.0,0.0,0.0,2.5411,2.5088,2.4726,0.0,2.3826,0.0,2.2805,2.241,2.2141,0.0,1.9723,1.8689,1.9169,1.8466,1.8196,1.8282,1.7337,1.5999,1.4485,1.3744,1.3295,1.3028,1.2619,1.242,1.2522,1.1853,1.1458,1.1258,0.0,1.0507,1.0792,1.1184,1.1282,1.1082,1.0988,1.0792,1.0498,0.9592,0.9004,0.8517,0.8788,0.7799,0.6224,0.4526,0.442,0.4714,0.3119,0.3017,0.3213,0.2111,0.1809,0.1706,0.1005,0.0996,0.1186,0.0989,0.0785,0.0682,0.0585,0.0585,0.0583,0.077,0.0852,0.1025,0.1201,0.0913,0.0631,0.0715,0.0982,0.0893,0.0089,0.0089,0.0089,-0.0179,0.0537,0.1076,0.1077,0.0808,0.0718,0.1077,0.1345,0.1524,0.1703,0.2952,0.3931,0.4554,0.5267,0.5716,0.5899,0.5899,0.5813,0.5727,0.5727,0.5547,3.4581,3.4849,3.4737,3.3042,3.2461,3.1704,2.9279,2.8011,2.6724,2.4632,0.0,2.2139,2.1051,2.1653,2.2318,2.2521,0.0,2.3594,2.412,2.3417,2.3019,2.3641,2.3249,2.3038,2.3171,2.25,2.2053,2.2144,2.0989,2.045,2.0814,2.0036,1.9574,1.9399,1.8335,1.6831,1.5089,1.5839,1.5954,1.5527,1.4315,1.3921,1.4327,1.2893,1.2221,1.2124,0.0,0.0,1.1658,1.2533,1.2635,1.2242,1.2047,1.1658,1.117,1.0779,1.0194,0.9899,1.1556,1.0979,0.9225,0.6828,0.6728,0.7322,0.6132,0.6129,0.6318,0.4816,0.471,0.4704,0.3306,0.3295,0.3485,0.2993,0.2796,0.2696,0.2497,0.2401,0.2394,0.2452,0.2792,0.2929,0.2789,0.2769,0.2651,0.2513,0.3217,0.3749,0.3749,0.2054,0.0805,0.0805,0.1254,0.1704,0.233,0.1793,0.1704,0.2418,0.2597,0.2686,0.2774,0.4289,0.5179,0.5176,0.6071,0.6343,0.6171,0.6171,0.6083,0.6083,0.6083,0.6169,3.5439,3.5599,3.5628,3.4074,3.3479,3.2453,2.9241,2.8011,0.0,0.0,2.2867,2.2038,2.0523,2.1169,2.2155,2.2892,0.0,0.0,0.0,0.0,2.4995,0.0,0.0,0.0,0.0,0.0,0.0,0.0,0.0,2.2005,2.089,1.9674,1.9156,1.9561,1.8319,1.7714,1.7732,1.6901,1.6344,1.6264,1.5684,1.5305,1.521,1.4472,1.4094,1.3896,1.3709,0.0,1.3811,1.3908,1.4004,1.3908,1.3811,1.3806,1.3709,1.3613,1.3022,1.2436,1.2829,1.2538,1.1653,0.9379,0.8806,0.8825,0.7117,0.7114,0.7508,0.6611,0.6412,0.6412,0.6111,0.5844,0.5676,0.5582,0.4999,0.4514,0.4514,0.4571,0.4618,0.4702,0.4726,0.4758,0.4938,0.4712,0.4512,0.468,0.4701,0.4739,0.4739,0.3935,0.313,0.2772,0.233,0.1974,0.1614,0.1435,0.1704,0.2418,0.2864,0.3398,0.4202,0.5275,0.5988,0.616,0.6694,0.6786,0.6343,0.6343,0.6257,0.6083,0.6083,0.6083,3.5154,3.519,3.5076,3.3924,3.3178,3.1883,2.8422,0.0,0.0,0.0,2.105,2.0475,1.8992,0.0,0.0,0.0,0.0,0.0,0.0,0.0,0.0,0.0,0.0,0.0,0.0,0.0,0.0,0.0,0.0,2.1857,2.1951,2.0806,2.0266,2.0546,1.9446,1.8988,1.9163,1.8427,1.8056,1.7863,1.7777,1.7684,1.739,1.6734,1.6358,1.617,1.5697,0.0,1.5893,1.5893,1.5988,1.619,1.5501,1.5222,1.5242,1.5216,1.4453,1.3505,1.4746,1.4172,1.2823,1.2226,1.1848,1.1272,0.9489,0.9583,1.0266,0.919,0.9383,0.9772,0.9477,0.951,0.9542,0.9251,0.8863,0.8571,0.8282,0.7953,0.7614,0.7319,0.6976,0.6623,0.6654,0.6542,0.6324,0.6202,0.604,0.5975,0.5908,0.5275,0.465,0.4202,0.3401,0.3135,0.3758,0.3044,0.3044,0.4293,0.4561,0.4917,0.5364,0.6166,0.67,0.6786,0.6962,0.6962,0.6786,0.6786,0.6697,0.6612,0.6612,0.6789,3.4411,3.4341,3.4078,3.3368,3.2585,3.1143,2.7641,2.5929,0.0,0.0,1.9499,1.9008,1.8055,0.0,2.0441,0.0,0.0,0.0,0.0,0.0,0.0,0.0,0.0,0.0,0.0,0.0,0.0,0.0,0.0,0.0,2.2306,2.1427,2.0988,2.1177,2.0382,1.9928,2.011,1.9853,1.9754,1.9729,1.9837,1.9646,1.9347,1.8609,1.8011,1.7734,1.6928,0.0,0.0,1.7176,1.7467,1.7766,1.6693,1.6371,1.6455,1.6344,1.5464,1.474,1.6483,1.5833,1.4358,1.5242,1.4573,1.3221,1.1853,1.2047,1.263,1.1658,1.2145,1.2727,1.2339,1.2496,1.2651,1.2068,1.1971,1.1793,1.1453,1.0877,1.028,0.9747,0.9155,0.8713,0.8549,0.8519,0.8434,0.7996,0.7931,0.7775,0.7556,0.7061,0.6508,0.6068,0.4734,0.4472,0.5725,0.4652,0.4561,0.5994,0.6083,0.6171,0.6349,0.6789,0.7139,0.7139,0.7139,0.7139,0.7139,0.7139,0.7228,0.7404,0.7316,0.7757,3.352,3.3575,3.3271,3.2836,3.2361,3.1003,2.7652,0.0,0.0,2.0904,1.9648,1.9055,1.9222,1.9262,1.9673,2.0791,0.0,2.1985,0.0,0.0,0.0,0.0,0.0,0.0,0.0,0.0,0.0,0.0,0.0,0.0,2.0119,1.9853,1.9936,2.0382,2.011,2.011,2.0654,2.0382,2.0645,2.1427,2.0782,2.0404,2.0099,1.9223,1.8182,1.7206,1.6996,0.0,0.0,1.6956,1.6956,1.6956,1.6861,1.7056,1.7296,1.6973,1.7168,1.7662,1.7538,1.7621,1.7956,1.8056,1.5974,1.3511,1.3318,1.3318,1.3414,1.3318,1.3318,1.3414,1.3414,1.3149,1.2781,1.2209,1.2115,1.2078,1.1905,1.175,1.1594,1.1387,1.1248,1.1085,1.0876,1.0939,1.093,1.0891,1.0805,1.0582,1.0117,0.9948,0.9657,0.9226,0.6593,0.4919,0.5099,0.4919,0.5188,0.6083,0.6083,0.6349,0.6962,0.7051,0.7139,0.7139,0.7139,0.7139,0.7139,0.7139,0.758,0.8368,0.8197,0.8632,3.3254,3.3422,3.3186,3.2796,3.1945,3.0351,2.7251,0.0,2.2897,2.012,1.8899,1.8267,1.8261,1.8062,1.8197,1.9278,2.019,0.0,0.0,0.0,0.0,0.0,0.0,0.0,0.0,0.0,0.0,0.0,0.0,0.0,2.1784,2.2403,2.2668,2.2394,2.2227,2.2138,2.2403,2.2138,2.1872,2.1695,2.1418,2.0881,2.0249,2.0095,1.946,1.8637,1.8756,0.0,0.0,1.8284,1.8284,1.8308,1.8521,1.8306,1.7929,1.8645,1.843,1.7873,1.8474,1.8501,1.8257,1.8342,1.7397,1.6177,1.5406,1.5412,1.5615,1.4484,1.458,1.486,1.486,1.4779,1.4596,1.4401,1.4306,1.4242,1.3878,1.3409,1.2978,1.2502,1.2097,1.1682,1.1597,1.1582,1.1632,1.1397,1.1181,1.0905,1.0602,1.0402,1.0269,1.0183,0.8337,0.7376,0.7906,0.7464,0.7379,0.7921,0.8356,0.8273,0.7584,0.7929,0.8105,0.7929,0.7929,0.8189,0.8794,0.8619,0.8798,0.9148,0.889,0.924,3.24,3.27,3.2562,3.2381,3.1278,2.9589,0.0,0.0,2.2456,1.978,1.8658,1.8024,1.7675,1.7438,1.7613,1.8395,1.9314,2.0058,2.0317,0.0,0.0,0.0,0.0,0.0,0.0,0.0,0.0,0.0,0.0,0.0,0.0,2.4765,2.4617,2.3428,2.3256,2.311,2.2992,2.281,2.2524,2.2292,2.2292,2.2007,2.1507,2.1456,2.1025,2.0321,0.0,0.0,0.0,1.9573,1.9573,1.96,1.9885,1.9545,1.911,2.0051,1.9545,1.8726,1.9766,1.9791,1.9347,1.943,1.943,1.9039,1.7542,1.7316,1.7412,1.6285,1.6129,1.6434,1.6348,1.6178,1.6109,1.6109,1.6109,1.6044,1.5953,1.5477,1.4892,1.4331,1.4034,1.3619,1.2903,1.3138,1.321,1.2659,1.2335,1.2031,1.1785,1.1494,1.1305,1.1305,1.0509,0.999,1.0091,0.9474,0.9296,0.9575,1.0096,0.9836,0.8715,0.9148,0.9318,0.9148,0.9148,0.9405,1.0091,0.9923,1.0014,1.0274,0.9932,1.0197,3.0419,3.0905,3.1136,3.1495,3.0481,2.8819,0.0,2.4937,2.2712,2.0191,1.9333,1.8726,1.7919,1.8002,1.8288,1.8659,1.8531,1.901,2.0607,0.0,0.0,0.0,0.0,0.0,0.0,0.0,0.0,0.0,0.0,0.0,0.0,2.5895,2.4809,2.2471,2.2451,2.2172,2.169,2.168,2.2383,2.3815,2.3815,2.4053,2.4467,2.3567,2.2656,0.0,0.0,0.0,0.0,2.0479,2.0479,2.0479,2.0479,2.0732,2.1043,2.0644,2.0718,2.1025,2.1556,2.1883,2.2059,2.2059,2.2227,2.1957,1.9618,1.8699,1.8427,1.8696,1.836,1.783,1.7568,1.7219,1.6873,1.6873,1.6873,1.7052,1.7753,1.783,1.7643,1.701,1.7635,1.7535,1.5369,1.6,1.6471,1.5483,1.515,1.4777,1.4315,1.3915,1.3476,1.3137,1.3222,1.2607,1.0783,1.0611,1.0611,1.0611,1.0611,1.0611,1.0611,1.0611,1.0611,1.0611,1.0611,1.0611,1.0611,1.0611,1.1047,1.1929,1.1327,1.1499,2.8451,2.8662,2.8525,2.833,2.7487,2.6327,2.4903,2.3577,2.2213,2.0354,1.9884,1.9653,1.9008,1.8577,1.8553,1.9448,1.9421,1.9412,0.0,0.0,0.0,0.0,0.0,0.0,0.0,0.0,0.0,0.0,0.0,0.0,0.0,2.5895,2.5568,2.4798,2.4481,2.4249,2.4111,2.4111,2.3864,2.337,2.366,2.339,2.2562,2.2449,0.0,0.0,0.0,0.0,0.0,2.0459,2.0459,2.0489,2.0771,2.08,2.0712,2.1179,2.124,2.1183,2.1758,2.1919,2.1815,2.1984,2.1974,2.1759,2.0871,1.9869,1.9023,1.8146,1.7558,1.7201,1.7113,1.7037,1.7014,1.7509,1.7563,1.7753,1.8367,1.8537,1.8446,1.8255,1.7896,1.7522,1.7199,1.6497,1.6134,1.6795,1.614,1.5676,1.6174,1.5396,1.481,1.4727,1.4237,1.3476,1.2607,1.2522,1.2351,1.2089,1.2437,1.226,1.1144,1.1563,1.1729,1.1574,1.1574,1.1832,1.2522,1.2351,1.2357,1.2443,1.2272,1.2357,2.6555,2.6882,2.6837,2.6934,2.6044,0.0,2.4167,2.3188,2.2006,2.0538,2.0374,2.0192,1.925,1.8834,1.8846,1.9465,1.9403,1.9432,0.0,0.0,0.0,0.0,0.0,0.0,0.0,0.0,0.0,0.0,0.0,0.0,0.0,2.5847,2.5817,2.5968,2.5297,2.4738,2.4355,2.4355,2.4054,2.3303,2.3577,2.3408,2.2737,2.2635,0.0,0.0,0.0,0.0,0.0,2.1461,2.1461,2.1492,2.169,2.1629,2.1533,2.2015,2.1909,2.168,2.2531,2.2655,2.2462,2.2778,2.2423,2.1885,2.1894,2.1039,1.9975,1.9555,1.8849,1.8173,1.8251,1.7999,1.7898,1.8298,1.8346,1.854,1.9167,1.9331,1.9282,1.9139,1.8888,1.8593,1.8155,1.7379,1.7086,1.7533,1.6759,1.6375,1.6884,1.6171,1.556,1.5318,1.4831,1.4412,1.4146,1.3815,1.3568,1.3222,1.3652,1.3392,1.2363,1.2778,1.2948,1.279,1.279,1.3052,1.3652,1.3568,1.3307,1.296,1.296,1.296,0.0,2.5307,2.5838,2.676,0.0,0.0,2.4403,2.3397,0.0,2.0702,2.0696,2.0492,1.8976,1.9057,1.9221,1.9169,1.8971,0.0,0.0,0.0,0.0,0.0,0.0,0.0,0.0,0.0,0.0,0.0,0.0,0.0,0.0,2.5688,2.5724,2.5949,2.5093,2.4139,2.3205,2.3194,2.3338,2.3678,2.3788,2.4029,2.4445,2.3974,0.0,0.0,0.0,0.0,0.0,2.3075,2.3075,2.3075,2.3075,2.3075,2.3075,2.3075,2.281,2.2631,2.3896,2.4007,2.3694,2.41,2.3349,2.2459,2.2832,2.2138,2.1352,2.2277,2.1501,2.0345,2.0485,1.9916,1.9425,1.9451,1.9375,1.9488,2.014,2.0228,2.006,1.9669,2.0361,2.0329,1.8361,1.8758,1.8916,1.8016,1.7344,1.6969,1.6946,1.6573,1.5974,1.5333,1.5249,1.5249,1.5477,1.4657,1.4173,1.4173,1.4173,1.4166,1.4088,1.4166,1.4173,1.4173,1.4173,1.4166,1.4088,1.4088,1.3913,1.3561,1.3561,1.3561,2.1915,0.0,2.3517,2.3953,2.3349,2.2631,0.0,2.2551,2.202,2.1041,2.1287,2.1498,2.0886,2.0397,2.06,2.2091,2.145,0.0,0.0,0.0,0.0,0.0,0.0,0.0,0.0,0.0,0.0,0.0,0.0,0.0,0.0,2.6,2.5627,2.474,2.502,2.5182,2.5295,2.4728,2.4168,2.3624,2.4292,2.4337,2.3802,2.3976,0.0,0.0,0.0,0.0,2.3897,2.3751,2.3751,2.3897,2.3751,2.3751,2.3897,2.3897,2.3818,2.3835,2.4141,2.4147,2.4078,2.4152,2.3751,2.3351,2.4123,2.3037,2.1696,2.2254,2.1913,2.1328,2.1396,2.1241,2.1252,2.167,2.1289,2.1029,2.1627,2.1333,2.0874,2.0796,2.0359,2.0134,2.0546,1.9668,1.9196,1.9998,1.9433,1.8862,1.8744,1.8057,1.735,1.687,1.6386,1.6147,1.6147,1.5484,1.5068,1.5068,1.5068,1.4824,1.4173,1.4741,1.5068,1.5068,1.5068,1.4741,1.4088,1.4088,1.4412,1.4894,1.4894,1.5304,2.1194,2.1749,2.2435,2.2862,2.2725,2.2561,2.2589,2.2419,2.2021,2.1417,0.0,2.1699,2.1385,2.1519,2.1825,2.2283,2.2223,0.0,0.0,0.0,0.0,0.0,0.0,0.0,0.0,0.0,0.0,0.0,0.0,0.0,0.0,2.6469,2.6334,2.5756,2.5983,2.5709,2.4923,2.485,2.443,2.3604,2.443,2.4565,2.4082,2.4455,2.4539,0.0,0.0,0.0,2.42,2.4043,2.4127,2.42,2.4043,2.4116,2.42,2.42,2.42,2.42,2.4418,2.4838,2.5241,2.5241,2.5302,2.5421,2.5923,2.5216,2.4218,2.3616,2.2907,2.231,2.2463,2.2391,2.2288,2.2625,2.2369,2.213,2.2453,2.2211,2.1736,2.1451,2.1118,2.1001,2.1313,2.0568,2.0234,2.1197,2.0589,2.0058,2.0005,1.9323,1.8497,1.7749,1.7113,1.6842,1.7246,1.6934,1.6516,1.6034,1.5966,1.5801,1.5311,1.5718,1.5966,1.5966,1.5966,1.5801,1.5311,1.5311,1.556,1.5966,1.5966,1.6206,2.1259,2.1809,2.2257,2.2642,2.29,2.3085,2.3111,2.2625,0.0,0.0,0.0,0.0,2.1637,2.238,0.0,0.0,0.0,0.0,0.0,0.0,0.0,0.0,0.0,0.0,0.0,0.0,0.0,0.0,0.0,0.0,0.0,2.7079,2.7338,2.7298,2.7136,2.6126,2.402,2.4719,2.4719,2.4009,2.4707,2.4992,2.4992,2.5217,2.5288,0.0,0.0,0.0,2.4611,2.4611,2.4611,2.4611,2.4539,2.4478,2.455,2.4406,2.4478,2.4622,2.5052,2.5804,2.6552,2.6552,2.7015,2.7484,2.7484,2.7484,2.7204,2.5664,2.4345,2.3504,2.3882,2.3556,2.324,2.3313,2.3113,2.3002,2.3075,2.292,2.2609,2.2056,2.2324,2.2514,2.1958,2.1841,2.1924,2.2264,2.1663,2.1047,2.097,2.022,1.9325,1.8383,1.7649,1.7552,1.8335,1.8439,1.8108,1.7243,1.7074,1.6944,1.6862,1.7017,1.7017,1.6862,1.7017,1.7017,1.6772,1.6772,1.6854,1.6935,1.6935,1.7025,2.1,2.23,2.3315,2.2584,2.2349,2.259,2.3485,2.3076,2.2636,0.0,0.0,0.0,0.0,2.2683,0.0,0.0,0.0,0.0,0.0,0.0,0.0,0.0,0.0,0.0,0.0,0.0,0.0,0.0,0.0,0.0,0.0,2.7842,2.7511,2.6761,2.7258,2.7069,2.6,2.6402,2.6402,2.5951,2.6402,2.6471,2.6158,2.6539,2.6688,2.6688,0.0,2.6552,2.6552,2.6402,2.6471,2.6676,2.5931,2.5791,2.6,2.5382,2.5511,2.6139,2.6879,2.7204,2.7351,2.7351,2.7417,2.7484,2.7484,2.7484,2.7404,2.7149,2.6508,2.5877,2.5947,2.5444,2.5048,2.5483,2.4722,2.3999,2.4491,2.4062,2.3565,2.338,2.381,2.4293,2.4794,2.4838,2.4686,2.4206,2.3664,2.2824,2.132,2.0275,1.9515,1.939,1.8598,1.8322,1.8813,1.9231,1.9336,1.9172,1.8619,1.8158,1.7836,1.8541,1.8541,1.7836,1.8541,1.8292,1.6919,1.7326,1.7649,1.806,1.806,1.839,2.0592,2.1519,2.2498,2.3301,2.4583,2.572,2.5873,2.5633,2.5129,0.0,0.0,0.0,0.0,0.0,0.0,0.0,0.0,0.0,0.0,0.0,0.0,0.0,0.0,0.0,0.0,0.0,0.0,0.0,0.0,0.0,0.0,0.0,2.8532,2.7999,2.8274,2.8287,2.7894,2.7908,2.743,2.6402,2.7015,2.7136,2.6989,2.7297,2.7443,2.7443,0.0,2.6973,2.6973,2.696,2.7027,2.7027,2.6756,2.6688,2.6824,2.6595,2.6676,2.7015,2.7351,2.7736,2.8051,2.8051,2.8325,2.861,2.861,2.861,2.861,2.861,2.7815,2.7015,2.7015,2.6471,2.5923,2.6168,2.5685,2.5262,2.551,2.5489,2.526,2.4889,2.5228,2.558,2.5536,2.5536,2.5544,2.5574,2.4902,2.4097,2.3308,2.231,2.1499,2.1213,2.0554,2.035,2.0864,2.1136,2.089,2.0177,1.9818,1.9599,1.9441,1.9756,1.9835,1.9441,1.9835,1.9668,1.8939,1.9027,1.9195,1.9362,1.9204,1.9292,2.088,2.1432,2.2418,2.4696,2.6176,2.7284,2.7977,2.7637,2.6905,0.0,0.0,0.0,0.0,0.0,0.0,0.0,0.0,0.0,0.0,0.0,0.0,0.0,0.0,0.0,0.0,0.0,0.0,0.0,0.0,0.0,0.0,0.0,2.9289,2.9035,2.9035,2.9035,2.9035,2.8908,2.8235,2.7015,2.7564,2.7815,2.7881,2.7973,2.8039,2.8105,2.7577,2.7377,2.7443,2.7497,2.7564,2.751,2.7497,2.7351,2.7284,2.7604,2.7736,2.7736,2.7934,2.8325,2.8776,2.8776,2.9121,2.9602,2.9602,2.9665,2.9741,2.9741,2.8994,2.8117,2.7802,2.7204,2.6714,2.6853,2.6619,2.6429,2.636,2.6677,2.6842,2.6135,2.6496,2.6814,2.6255,2.6187,2.6323,2.6719,2.5756,2.496,2.4971,2.3913,2.305,2.2795,2.2158,2.1923,2.255,2.2584,2.2215,2.1375,2.1098,2.0944,2.0712,2.0722,2.0644,2.0411,2.0644,2.0644,2.0489,2.0498,2.042,2.0264,2.0108,1.9942,2.247,2.3617,2.4805,2.6725,2.4919,2.3838,2.8442,2.7386,0.0,2.8498,0.0,0.0,0.0,0.0,0.0,0.0,0.0,0.0,0.0,0.0,0.0,0.0,0.0,0.0,0.0,0.0,0.0,0.0,0.0,0.0,0.0,0.0,0.0,2.8844,2.8844,2.8844,2.8844,2.878,2.8844,2.8894,2.8766,2.8766,2.8972,2.8844,2.8844,2.8972,2.8651,2.8587,2.8651,2.8716,2.878,2.8894,2.843,2.7894,2.7537,2.8182,2.8427,2.8505,2.9198,2.9477,2.954,2.954,2.954,2.9602,2.9602,2.9803,3.005,3.005,3.0219,3.0054,2.8762,2.792,2.7548,2.8001,2.7754,2.7356,2.713,2.7563,2.7681,2.6935,2.7621,2.8339,2.8291,2.8291,2.8051,2.751,2.6561,2.567,2.5049,2.3613,2.2806,2.3198,2.2309,2.1923,2.255,2.2584,2.2806,2.3338,2.2692,2.1928,2.1068,2.1108,2.0809,1.9942,2.0731,2.0886,2.0342,2.0664,2.0664,2.0264,2.0264,2.0108,2.2186,2.3674,2.5469,2.7164,2.6055,0.0,0.0,2.9731,2.9431,2.9068,2.9144,0.0,0.0,0.0,0.0,0.0,0.0,0.0,0.0,0.0,0.0,0.0,0.0,0.0,0.0,0.0,0.0,0.0,0.0,0.0,0.0,0.0,0.0,2.9827,2.9979,2.9917,2.9732,3.0072,3.0375,3.0598,2.9512,2.8972,2.8908,2.8844,2.8844,2.8908,2.878,2.9022,2.9546,2.9275,2.9608,3.0332,3.0257,3.0168,3.0079,3.0468,3.0497,3.0332,3.0615,3.0478,3.0219,3.0219,3.0219,3.0219,3.0219,3.0341,3.0401,3.0401,3.0522,3.0447,2.9699,2.8967,2.8417,2.8463,2.8239,2.7991,2.8118,2.8529,2.9035,2.9372,2.9091,2.91,2.9885,2.9287,2.8802,2.8876,2.7944,2.7186,2.6962,2.5757,2.4927,2.4773,2.4172,2.3857,2.4058,2.4237,2.4377,2.4527,2.3666,2.299,2.267,2.2166,2.1797,2.1482,2.1272,2.1349,2.1645,2.1655,2.1797,2.2166,2.2069,2.1907,2.3083,2.4461,2.6213,2.7603,2.73,0.0,2.9753,3.0579,3.0674,3.0291,3.0764,0.0,0.0,0.0,0.0,0.0,0.0,0.0,0.0,0.0,0.0,0.0,0.0,0.0,0.0,0.0,0.0,0.0,0.0,0.0,0.0,0.0,0.0,0.0,3.094,3.094,3.0822,3.1275,3.1577,3.1736,3.0659,2.9964,2.9623,2.9608,2.9608,2.9623,2.9532,2.9889,3.0421,3.0208,3.06,3.1375,3.1546,3.166,3.1758,3.1972,3.1747,3.1362,3.1362,3.0999,3.0462,3.0507,3.0462,3.0462,3.0462,3.0522,3.0568,3.0568,3.0702,3.0702,3.0341,2.987,2.9456,2.9205,2.9077,2.9037,2.8944,2.9403,2.9861,3.0321,2.9971,2.994,3.0745,3.0364,2.9992,3.0366,2.9477,2.8697,2.8494,2.7443,2.6405,2.5699,2.5356,2.5135,2.4895,2.5012,2.5095,2.4957,2.4402,2.3933,2.3593,2.2927,2.2478,2.2478,2.2014,2.2014,2.2617,2.2402,2.2553,2.3075,2.2979,2.2894,2.5493,2.6287,2.7162,0.0,0.0,0.0,3.0342,2.9334,2.9035,3.2599,3.2524,3.1821,3.1821,0.0,0.0,0.0,0.0,0.0,0.0,0.0,0.0,0.0,0.0,0.0,0.0,0.0,0.0,0.0,0.0,0.0,0.0,0.0,0.0,0.0,3.1513,3.1713,3.2023,3.2023,3.2093,3.2345,3.2345,3.2028,3.148,3.1319,3.1319,3.148,3.1217,3.1202,3.142,3.1577,3.1747,3.1931,3.2028,3.2139,3.2139,3.229,3.1845,3.1232,3.1362,3.0822,3.0172,3.0266,3.0219,3.0111,3.0111,3.0341,3.0628,3.0628,3.0895,3.1014,3.0702,3.0642,3.0628,3.0568,3.0582,3.0372,2.9642,2.9919,3.0081,2.9399,3.0201,3.1013,3.1026,3.1585,3.1965,3.1979,3.0975,2.9941,2.9258,2.8124,2.6904,2.5766,2.5582,2.5344,2.4768,2.473,2.473,2.4718,2.49,2.4608,2.3644,2.3001,2.2703,2.2703,2.2894,2.3032,2.3032,2.2841,2.2703,2.2703,2.2703,2.2703,2.5316,2.698,0.0,2.8967,0.0,0.0,0.0,3.1879,0.0,0.0,3.2954,3.2301,0.0,0.0,0.0,0.0,0.0,0.0,0.0,0.0,0.0,0.0,0.0,0.0,0.0,0.0,0.0,0.0,0.0,0.0,0.0,0.0,0.0,0.0,3.2732,3.2748,3.264,3.3166,3.3527,3.3578,3.3578,3.2971,3.1845,3.1773,3.183,3.1845,3.1758,3.2093,3.2687,3.3145,3.3039,3.261,3.3161,3.3439,3.3527,3.3527,3.3319,3.2949,3.3018,3.2571,3.2018,3.2059,3.2003,3.2018,3.2018,3.2074,3.213,3.213,3.1921,3.1724,3.2074,3.1807,3.1306,3.0462,3.0233,3.028,3.0251,3.038,3.0639,3.1104,3.0771,3.0819,3.2249,3.1858,3.1709,3.2708,3.1805,3.0455,2.8892,2.767,2.6778,2.6427,2.6153,2.5726,2.5154,2.563,2.5627,2.4987,2.4988,2.4876,2.4388,2.4091,2.3841,2.3694,2.3463,2.3599,2.4204,2.4143,2.4215,2.4515,2.4515,2.4383,2.7478,2.8775,0.0,3.0784,3.1589,3.251,3.36,0.0,0.0,0.0,0.0,0.0,0.0,0.0,0.0,0.0,0.0,0.0,0.0,0.0,0.0,0.0,0.0,0.0,0.0,0.0,0.0,0.0,0.0,0.0,0.0,0.0,0.0,0.0,3.3767,3.3903,3.3989,3.4251,3.448,3.461,3.461,3.4153,3.3244,3.2977,3.2833,3.2725,3.2725,3.3077,3.3594,3.3933,3.3764,3.3387,3.3882,3.4101,3.4201,3.425,3.3984,3.361,3.3694,3.3261,3.2641,3.2695,3.2695,3.2641,3.2641,3.2641,3.2641,3.2641,3.2382,3.216,3.2532,3.2382,3.1936,3.1291,3.1014,3.0851,3.1087,3.0925,3.0938,3.1559,3.1214,3.1232,3.244,3.2472,3.2606,3.3499,3.262,3.1282,2.9784,2.8498,2.7605,2.7314,2.6905,2.6412,2.5837,2.6039,2.58,2.4906,2.4962,2.4954,2.4597,2.456,2.4472,2.4402,2.4459,2.4707,2.5158,2.5087,2.5158,2.5382,2.5382,2.5324,3.0712,3.0904,0.0,3.3045,3.3129,0.0,3.425,0.0,0.0,0.0,0.0,0.0,0.0,0.0,0.0,0.0,0.0,0.0,0.0,0.0,0.0,0.0,0.0,0.0,0.0,0.0,0.0,0.0,0.0,0.0,0.0,0.0,0.0,3.4626,3.4626,3.4944,3.5616,3.5195,3.5131,3.5464,3.5453,3.5362,3.527,3.4561,3.4184,3.4084,3.4084,3.4134,3.4234,3.4184,3.4184,3.4234,3.425,3.43,3.4349,3.4448,3.4052,3.3511,3.3678,3.3208,3.2547,3.2711,3.2656,3.2547,3.2547,3.2547,3.2547,3.2547,3.2508,3.2508,3.2547,3.2492,3.2547,3.2857,3.2422,3.1936,3.1936,3.1567,3.119,3.119,3.1693,3.2062,3.2121,3.3295,3.4174,3.4114,3.3201,3.2179,3.1325,3.01,2.9025,2.836,2.7816,2.7234,2.6702,2.6171,2.5651,2.4979,2.4987,2.4975,2.4728,2.4816,2.484,2.4888,2.5583,2.5968,2.5968,2.5758,2.5676,2.5606,2.5606,2.5606,2.9286,3.0559,0.0,0.0,3.4016,3.4705,3.4769,3.4899,0.0,0.0,0.0,0.0,0.0,0.0,0.0,0.0,0.0,0.0,0.0,0.0,0.0,0.0,0.0,0.0,0.0,0.0,0.0,0.0,0.0,0.0,0.0,0.0,0.0,3.5749,3.5749,3.5776,3.582,3.5732,3.5732,0.0,3.5776,3.5776,3.5732,3.5599,3.5493,3.5493,3.5493,3.5464,3.5407,3.4975,3.4975,3.5207,3.4431,3.4382,3.4642,3.4333,3.4101,3.3984,3.4,3.3882,3.3729,3.3781,3.3781,3.3713,3.3713,3.3713,3.3713,3.3713,3.3387,3.3161,3.361,3.3387,3.3161,3.3713,3.3033,3.2272,3.2272,3.2231,3.212,3.212,3.2251,3.2497,3.3171,3.3716,3.3928,3.355,3.2684,3.1717,3.0535,2.9659,2.9107,2.8906,2.8326,2.7714,2.7143,2.6909,2.6748,2.6519,2.6065,2.5905,2.6233,2.5536,2.5351,2.5656,2.6126,2.6396,2.6396,2.6327,2.6107,2.5828,2.5828,2.5688,3.0227,0.0,0.0,3.3763,0.0,3.5605,3.5304,0.0,0.0,0.0,0.0,0.0,0.0,0.0,0.0,0.0,0.0,0.0,0.0,0.0,0.0,0.0,0.0,0.0,0.0,0.0,0.0,0.0,0.0,0.0,0.0,3.5374,3.5571,3.5941,3.5941,3.6071,3.6207,3.5994,3.5977,3.6122,3.6182,3.6284,3.6392,3.6011,3.5837,3.5837,3.5776,3.5749,3.5677,3.5391,3.5391,3.5526,3.5021,3.4833,3.4785,3.4513,3.4284,3.4101,3.4101,3.4101,3.4101,3.4101,3.4101,3.4101,3.4101,3.4101,3.4101,3.4101,3.3866,3.3697,3.4034,3.3882,3.3697,3.405,3.3439,3.2788,3.2788,3.2602,3.2398,3.2398,3.2638,3.2791,3.2601,3.2761,3.2956,3.3129,3.2522,3.1642,3.0548,2.9872,2.9345,2.8926,2.8348,2.7879,2.7544,2.7543,2.7418,2.7023,2.6965,2.7001,2.717,2.6737,2.6374,2.6295,2.6764,2.6973,2.6973,2.6973,2.6905,2.6688,2.7015,2.7056,3.1113,0.0,3.143,3.4543,3.5739,0.0,3.5783,0.0,0.0,0.0,0.0,0.0,0.0,0.0,0.0,0.0,0.0,0.0,0.0,0.0,0.0,0.0,0.0,0.0,0.0,0.0,0.0,0.0,0.0,0.0,3.5749,3.5749,3.5837,3.6028,3.6028,3.6241,3.6673,3.6266,3.6207,3.6516,3.6568,3.6748,3.6987,3.6284,3.6002,3.5985,3.5898,3.5837,3.5837,3.5749,3.5749,3.5837,3.5661,3.5391,3.5052,3.4958,3.4642,3.4234,3.4234,3.4184,3.4101,3.4101,3.4101,3.4101,3.4101,3.4101,3.4101,3.4101,3.4151,3.4151,3.4151,3.4201,3.425,3.425,3.385,3.3459,3.3355,3.3018,3.2711,3.2711,3.3129,3.3213,3.2173,3.2169,3.2433,3.3032,3.263,3.1916,3.1028,3.0514,2.9884,2.9115,2.8441,2.8067,2.8166,2.8155,2.7945,2.7488,2.7931,2.8112,2.8009,2.8023,2.7773,2.7216,2.7499,2.767,2.767,2.767,2.767,2.767,2.8247,2.8492,2.8578,0.0,3.2547,0.0,3.5888,3.6259,0.0,0.0,0.0,0.0,0.0,0.0,0.0,0.0,0.0,0.0,0.0,0.0,0.0,0.0,0.0,0.0,0.0,0.0,0.0,0.0,0.0,0.0,0.0,0.0,3.6249,3.6291,3.6516,3.6895,3.6935,3.6952,3.693,3.6891,3.6891,3.693,3.693,3.6948,3.6987,3.6891,3.6851,3.6851,3.6811,3.6794,3.6753,3.6385,3.6468,3.6713,3.5924,3.5793,3.6071,3.5661,3.5161,3.469,3.469,3.4415,3.4101,3.4101,3.4101,3.4101,3.4101,3.4101,3.4101,3.4101,3.425,3.4448,3.4448,3.4594,3.4787,3.4787,3.4739,3.4529,3.4084,3.3933,3.3882,3.3882,3.4012,3.4085,3.4087,3.4023,3.3857,3.3583,3.3299,3.2707,3.1554,3.1347,3.1041,3.038,2.9276,2.8785,2.9334,2.8647,2.8502,2.9189,2.9054,2.9086,2.9344,2.9372,2.9296,2.9233,2.8657,2.8363,2.8363,2.8363,2.8363,2.8363,2.8427,2.8492,2.8834,3.0632,3.2706,0.0,3.6045,3.6516,3.6045,0.0,0.0,0.0,0.0,0.0,0.0,0.0,0.0,0.0,0.0,0.0,0.0,0.0,0.0,0.0,0.0,0.0,0.0,0.0,0.0,0.0,0.0,3.6615,3.6736,3.6753,3.6873,3.7203,3.7203,3.7203,3.7182,3.7182,3.7105,3.6987,3.6987,3.6987,3.6987,3.6987,3.6987,3.6987,3.6987,3.6987,3.697,3.6771,3.6811,3.697,3.655,3.6409,3.6433,3.6249,3.5899,3.5514,3.5278,3.5065,3.4847,3.4626,3.4546,3.4546,3.4546,3.4546,3.4546,3.4546,3.4643,3.4739,3.4739,3.4787,3.4899,3.4899,3.4899,3.4851,3.4594,3.4546,3.466,3.5054,3.457,3.4233,3.4775,3.4172,3.3552,3.3349,3.3232,3.278,3.1601,3.1469,3.1112,3.0152,2.9548,2.9286,2.9469,2.9404,2.9522,2.9869,3.0163,3.0426,3.0539,3.0644,3.0644,3.0539,2.9594,2.9093,2.9093,2.9093,2.9093,2.9156,2.9532,2.967,0.0,0.0,3.1635,3.403,3.5525,3.6352,0.0,0.0,0.0,0.0,0.0,0.0,0.0,0.0,0.0,0.0,0.0,0.0,0.0,0.0,0.0,0.0,0.0,0.0,0.0,0.0,0.0,0.0,0.0,3.7297,3.7164,3.7126,3.7203,3.7372,3.7372,3.7372,3.7372,3.7372,3.7297,3.7126,3.7223,3.7243,3.7243,3.7339,3.7376,3.7358,3.7108,3.7027,3.7066,3.7066,3.7105,3.7126,3.7126,3.7031,3.686,3.686,3.6609,3.6271,3.5968,3.5725,3.5459,3.5161,3.4961,3.4899,3.4899,3.4899,3.4899,3.4899,3.4947,3.4994,3.4994,3.5041,3.5088,3.5088,3.5088,3.5041,3.4947,3.4899,3.5048,3.5562,3.4906,3.4381,3.4919,3.4242,3.3566,3.3566,3.3566,3.3169,3.2212,3.1955,3.1451,3.0332,2.9988,2.9864,3.0013,3.0231,3.0428,3.0577,3.1053,3.1336,3.1336,3.1437,3.1437,3.1336,3.0539,3.004,3.0054,3.0054,3.0054,3.0101,3.0613,3.0807,0.0,2.7397,0.0,3.1943,3.3979,0.0,0.0,0.0,0.0,0.0,0.0,0.0,0.0,0.0,0.0,0.0,0.0,0.0,0.0,0.0,0.0,0.0,0.0,0.0,0.0,0.0,0.0,0.0,0.0,3.7594,3.7594,3.7594,3.7577,3.7577,3.7577,3.7577,3.7577,3.7577,3.7594,3.7577,3.7826,3.7962,3.7962,3.8223,3.835,3.8363,3.7432,3.7105,3.7297,3.7297,3.741,3.7594,3.7594,3.754,3.754,3.754,3.7243,3.686,3.6843,3.6239,3.5504,3.5459,3.5191,3.4899,3.4899,3.4899,3.4899,3.4899,3.5088,3.5291,3.5291,3.5412,3.5577,3.5577,3.5577,3.5441,3.4994,3.4899,3.4916,3.4949,3.4916,3.4851,3.4885,3.4868,3.4787,3.4787,3.4787,3.4593,3.3939,3.3431,3.2786,3.2048,3.0919,3.066,3.1682,3.102,3.0975,3.1942,3.1679,3.1495,3.1495,3.1394,3.1394,3.1495,3.1422,3.1321,3.1219,3.1219,3.1278,3.1422,3.1422,3.1422,0.0,0.0,0.0,3.0126,3.263,0.0,0.0,0.0,0.0,0.0,0.0,0.0,0.0,0.0,0.0,0.0,0.0,0.0,0.0,0.0,0.0,0.0,0.0,0.0,0.0,0.0,0.0,0.0,0.0,0.0,3.7631,3.7577,3.7667,3.7793,3.7775,3.7775,3.7775,3.7667,3.7577,3.7613,3.7877,3.8011,3.8011,3.8319,3.8475,3.8475,3.8059,3.7977,3.8044,3.7843,3.7791,3.7826,3.7667,3.7667,3.7775,3.7775,3.7775,3.7703,3.7395,3.6865,3.6239,3.6079,3.5633,3.5198,3.5245,3.5245,3.5198,3.5245,3.5337,3.5446,3.5458,3.5532,3.5622,3.5622,3.5622,3.5577,3.5396,3.535,3.535,3.535,3.535,3.535,3.535,3.535,3.535,3.5291,3.5321,3.5148,3.4513,3.4333,3.4003,3.3375,3.2909,3.2809,3.3082,3.284,3.2756,3.3061,3.3008,3.2955,3.2955,3.3024,3.2864,3.2461,3.2446,3.213,3.1437,3.1437,3.1437,3.148,3.148,3.148,2.553,0.0,0.0,0.0,0.0,0.0,0.0,0.0,0.0,0.0,0.0,0.0,0.0,0.0,0.0,0.0,0.0,0.0,0.0,0.0,0.0,0.0,0.0,0.0,0.0,0.0,0.0,0.0,0.0,0.0,3.781,3.781,3.7846,3.8003,3.8003,3.802,3.8138,3.7863,3.781,3.7949,3.8194,3.8305,3.8355,3.8715,3.8887,3.8887,3.8868,3.8733,3.8554,3.8323,3.8162,3.8132,3.7931,3.7881,3.7899,3.7899,3.8003,3.8088,3.7792,3.734,3.6943,3.6741,3.6182,3.5577,3.5667,3.5503,3.5291,3.54,3.5446,3.5475,3.5694,3.5783,3.5827,3.5827,3.5827,3.5783,3.5622,3.5622,3.5622,3.5622,3.5622,3.5622,3.5622,3.5622,3.5577,3.552,3.5594,3.5441,3.5071,3.4849,3.4593,3.4185,3.3935,3.3834,3.3903,3.3786,3.3751,3.3969,3.3802,3.3786,3.3853,3.3903,3.3767,3.3355,3.3145,3.2826,3.2336,3.1921,3.1781,3.1823,3.1823,3.1766,0.0,0.0,0.0,0.0,0.0,0.0,0.0,0.0,0.0,0.0,0.0,0.0,0.0,0.0,0.0,0.0,0.0,0.0,0.0,0.0,0.0,0.0,0.0,0.0,0.0,0.0,0.0,0.0,0.0,3.8192,3.8225,3.8225,3.8207,3.8207,3.8207,3.8354,3.8615,3.8234,3.8234,3.8615,3.8799,3.8961,3.8998,3.9477,3.9689,3.9689,3.9698,3.9317,3.873,3.864,3.8535,3.8415,3.8415,3.8204,3.7899,3.7899,3.7951,3.7984,3.7984,3.7774,3.7505,3.7505,3.6882,3.6097,3.6097,3.5739,3.5337,3.5337,3.5337,3.5458,3.5985,3.6241,3.6301,3.6343,3.6301,3.6174,3.5739,3.5622,3.5622,3.5622,3.5622,3.5622,3.5622,3.5622,3.5622,3.5577,3.5622,3.5622,3.5577,3.5071,3.4626,3.4431,3.3834,3.3681,3.4185,3.3751,3.3818,3.4691,3.407,3.3802,3.4036,3.3903,3.3903,3.4036,3.3511,3.3495,3.3986,3.2803,3.2287,3.2453,3.2453,3.2302,2.4338,0.0,0.0,0.0,0.0,0.0,0.0,0.0,0.0,0.0,0.0,0.0,0.0,0.0,0.0,0.0,0.0,0.0,0.0,0.0,0.0,0.0,0.0,0.0,0.0,0.0,0.0,0.0,3.8192,3.8289,3.8478,3.8688,3.8789,3.8789,3.8789,3.8818,3.8902,3.8766,3.8737,3.8833,3.9064,3.92,3.9219,3.9551,3.9689,3.9689,3.9698,3.9602,3.9413,3.9173,3.8933,3.8688,3.8478,3.8204,3.7899,3.7899,3.7899,3.7934,3.7934,3.7595,3.7226,3.7376,3.6921,3.6357,3.6481,3.6381,3.6215,3.6316,3.6316,3.6357,3.662,3.6678,3.6655,3.6719,3.6696,3.6655,3.6557,3.6308,3.6002,3.5667,3.5622,3.5622,3.5622,3.5622,3.5577,3.552,3.5594,3.5577,3.552,3.5396,3.5333,3.527,3.5115,3.5068,3.5224,3.5068,3.5068,3.535,3.5178,3.5068,3.5178,3.5115,3.4927,3.4577,3.4415,3.4235,3.3933,3.3266,3.3145,3.3578,3.3578,3.3527,0.0,0.0,0.0,0.0,0.0,0.0,2.9229,3.1402,0.0,0.0,0.0,0.0,0.0,0.0,0.0,0.0,0.0,0.0,0.0,0.0,0.0,0.0,0.0,0.0,0.0,0.0,0.0,3.8523,3.8433,3.8478,3.8759,3.8915,3.9008,3.9008,3.8999,3.9064,3.9183,3.897,3.8942,3.9073,3.9192,3.9272,3.929,3.9564,3.9661,3.9656,3.965,3.9669,3.9645,3.9343,3.9008,3.87,3.8396,3.807,3.7775,3.7775,3.7775,3.781,3.781,3.7649,3.7466,3.7613,3.7228,3.6768,3.6925,3.6751,3.651,3.6591,3.6768,3.6964,3.7058,3.7094,3.7094,3.7132,3.7132,3.7073,3.6939,3.686,3.658,3.5941,3.5694,3.5577,3.5549,3.5594,3.5577,3.5566,3.5594,3.5577,3.5566,3.5566,3.5549,3.5549,3.5503,3.5503,3.5549,3.5549,3.5594,3.5577,3.5622,3.5622,3.5622,3.5622,3.547,3.5131,3.4927,3.4642,3.4267,3.3748,3.3646,3.3968,3.3968,3.3951,0.0,0.0,0.0,0.0,0.0,0.0,3.0846,3.1356,3.2128,0.0,0.0,0.0,0.0,0.0,0.0,0.0,0.0,0.0,0.0,0.0,0.0,0.0,0.0,0.0,0.0,3.8401,3.851,3.8952,3.8818,3.8789,3.9036,3.909,3.909,3.909,3.9091,3.9192,3.9446,3.9036,3.9008,3.9324,3.9272,3.9245,3.9237,3.9552,3.9669,3.9602,3.9602,3.9577,3.9527,3.9183,3.8865,3.8548,3.8216,3.7915,3.7577,3.7577,3.7649,3.7703,3.7703,3.7757,3.7899,3.7967,3.7667,3.7303,3.736,3.7079,3.6711,3.6711,3.7023,3.7396,3.7396,3.7487,3.7542,3.7578,3.7578,3.7469,3.7132,3.7283,3.7266,3.6416,3.5968,3.5711,3.5611,3.5639,3.5667,3.5667,3.5667,3.565,3.5667,3.5611,3.5583,3.5492,3.5383,3.5383,3.5492,3.5492,3.552,3.5577,3.5622,3.5622,3.5622,3.5622,3.5622,3.5622,3.5131,3.4927,3.4911,3.4366,3.4101,3.4101,3.4101,3.4118,0.0,0.0,0.0,0.0,0.0,0.0,2.6761,2.81,2.9454,0.0,0.0,0.0,0.0,0.0,0.0,0.0,0.0,0.0,0.0,0.0,0.0,0.0,0.0,0.0,0.0,3.8759,3.8886,3.898,3.9208,3.9357,3.9408,3.9623,3.9693,3.967,3.9647,3.9642,3.965,3.9533,3.9508,3.9533,3.9527,3.9508,3.9508,3.9577,3.9602,3.9602,3.9602,3.9458,3.9156,3.8836,3.8658,3.8548,3.8216,3.7915,3.7577,3.7577,3.7631,3.7613,3.7613,3.7685,3.7739,3.7739,3.781,3.7862,3.7862,3.788,3.788,3.788,3.7933,3.8002,3.8002,3.7949,3.7949,3.8054,3.8002,3.7915,3.7933,3.7792,3.7523,3.7117,3.6825,3.6557,3.6216,3.6131,3.6174,3.6174,3.6174,3.6114,3.6028,3.6088,3.5975,3.5537,3.5503,3.5532,3.5594,3.5594,3.5577,3.5622,3.5622,3.5622,3.5622,3.5711,3.5773,3.5773,3.556,3.556,3.5783,3.5424,3.5287,3.5287,3.5287,3.5287,0.0,0.0,0.0,2.8519,0.0,0.0,0.0,2.8639,2.945,0.0,0.0,0.0,0.0,0.0,0.0,0.0,0.0,0.0,0.0,0.0,0.0,0.0,0.0,0.0,0.0,3.8789,3.8905,3.9181,3.9508,3.967,3.9647,3.9804,3.9867,3.9804,3.9758,3.9731,3.9693,3.9669,3.9645,3.9602,3.9602,3.9602,3.9602,3.9602,3.9527,3.9335,3.9335,3.9156,3.8836,3.8615,3.8491,3.846,3.8034,3.7757,3.7577,3.7577,3.7577,3.7577,3.7577,3.7613,3.7649,3.7703,3.781,3.7951,3.7984,3.8122,3.8241,3.8289,3.8322,3.8336,3.8322,3.8252,3.8252,3.8271,3.8238,3.8219,3.8289,3.8171,3.8,3.7877,3.7738,3.7414,3.662,3.658,3.662,3.6597,3.6638,3.658,3.6474,3.6308,3.6088,3.5844,3.5667,3.5622,3.5667,3.5756,3.58,3.58,3.58,3.58,3.58,3.5844,3.5949,3.5993,3.5949,3.5975,3.6131,3.6002,3.5871,3.5711,3.5711,3.5711,0.0,0.0,0.0,0.0,0.0,2.8369,0.0,0.0,0.0,3.1057,0.0,0.0,0.0,0.0,0.0,0.0,0.0,0.0,0.0,0.0,0.0,0.0,0.0,0.0,0.0,3.8266,3.8507,3.9414,3.9282,3.9356,3.9785,3.9826,3.9845,3.9777,3.9731,3.9703,3.9669,3.965,3.9626,3.9607,3.965,3.965,3.965,3.965,3.9489,3.9183,3.9183,3.8952,3.8597,3.8491,3.8415,3.8318,3.7845,3.7685,3.7685,3.7685,3.7685,3.7685,3.7685,3.7721,3.7721,3.7774,3.7863,3.8003,3.807,3.8204,3.8322,3.8382,3.8446,3.8478,3.8415,3.8446,3.8478,3.8415,3.8382,3.8382,3.8382,3.8415,3.8415,3.8415,3.8415,3.8117,3.7097,3.7058,3.7152,3.7076,3.7114,3.7114,3.6978,3.658,3.6249,3.6165,3.5941,3.5827,3.5932,3.6131,3.6241,3.6241,3.6241,3.6216,3.6131,3.6105,3.6105,3.631,3.6251,3.6293,3.6385,3.6343,3.6174,3.5905,3.5905,3.5932,0.0,0.0,0.0,0.0,3.081,0.0,0.0,0.0,2.6462,2.6643,0.0,0.0,0.0,0.0,0.0,0.0,0.0,0.0,0.0,0.0,0.0,0.0,0.0,0.0,0.0,0.0,3.7272,3.9675,3.774,3.7416,3.969,3.9758,3.9708,3.9698,3.9717,3.9669,3.9602,3.9661,3.9693,3.9693,3.9823,3.9867,3.9867,3.9867,3.9712,3.9433,3.9433,3.9146,3.8615,3.8585,3.8396,3.8135,3.8068,3.8034,3.8034,3.8034,3.8034,3.8034,3.8034,3.8138,3.8189,3.8086,3.8138,3.8274,3.8318,3.835,3.8382,3.8382,3.8446,3.8478,3.8415,3.8446,3.8478,3.8415,3.8382,3.8382,3.8382,3.8446,3.8478,3.8415,3.8446,3.8332,3.7773,3.7703,3.7703,3.7703,3.7703,3.7649,3.7524,3.7248,3.6904,3.6422,3.6457,3.6498,3.6516,3.6843,3.7076,3.7076,3.7076,3.6921,3.6557,3.6367,3.6402,3.6661,3.652,3.6585,3.6731,3.6426,3.6301,3.6259,3.6259,3.6259,0.0,0.0,0.0,0.0,0.0,0.0,0.0,0.0,2.7695,0.0,0.0,0.0,0.0,0.0,0.0,0.0,0.0,0.0,0.0,0.0,0.0,0.0,0.0,0.0,0.0,0.0,0.0,0.0,3.8769,3.8618,3.967,3.9777,3.98,3.9773,3.9841,3.9841,3.9773,3.98,3.9826,3.9826,3.9867,3.9889,3.9889,3.9889,3.9647,3.9216,3.9216,3.8857,3.8332,3.8446,3.8396,3.8285,3.8401,3.8303,3.8101,3.8101,3.8101,3.8101,3.8101,3.8153,3.8204,3.8204,3.8256,3.834,3.8433,3.8446,3.8478,3.8546,3.8652,3.8713,3.8609,3.8652,3.8713,3.8609,3.8578,3.8578,3.8578,3.8578,3.8609,3.8578,3.8609,3.8528,3.8368,3.8267,3.8183,3.815,3.8183,3.815,3.8016,3.7667,3.7342,3.7117,3.6946,3.6925,3.702,3.721,3.7377,3.7377,3.7414,3.7303,3.6978,3.6878,3.6917,3.7108,3.7069,3.7206,3.7559,3.7395,3.734,3.7321,3.6794,3.6544,3.3392,0.0,0.0,0.0,0.0,0.0,0.0,0.0,0.0,0.0,0.0,0.0,0.0,0.0,0.0,0.0,0.0,0.0,0.0,0.0,0.0,0.0,0.0,0.0,0.0,0.0,0.0,3.901,3.8818,3.8987,3.9731,3.9823,3.9826,3.9826,3.9933,3.9954,3.9889,3.9933,3.9954,3.9973,3.9994,4.0015,4.0015,4.0015,3.9721,3.9249,3.9189,3.881,3.8328,3.8446,3.851,3.8554,3.8743,3.8664,3.8455,3.8332,3.8252,3.8252,3.8252,3.8252,3.8285,3.8387,3.8405,3.8437,3.8528,3.8559,3.8559,3.8658,3.878,3.8851,3.8719,3.878,3.8851,3.8738,3.8707,3.8707,3.8707,3.8707,3.8707,3.8707,3.8707,3.8707,3.8707,3.8609,3.8528,3.8496,3.8528,3.8528,3.8437,3.8016,3.772,3.7738,3.7524,3.7397,3.7506,3.7721,3.7844,3.7861,3.7808,3.772,3.7578,3.7469,3.7469,3.7596,3.7596,3.7739,3.8101,3.8101,3.8101,3.8068,3.7394,3.7009,0.0,0.0,0.0,3.3798,0.0,0.0,0.0,0.0,2.8231,0.0,0.0,0.0,0.0,0.0,0.0,2.7722,0.0,0.0,0.0,0.0,0.0,0.0,0.0,0.0,0.0,0.0,0.0,3.7215,3.6553,3.7178,3.9861,3.9826,3.9762,3.9889,3.9889,3.9911,3.9889,4.0036,4.0077,4.0096,4.0234,4.0291,4.0291,4.0291,4.0118,3.987,3.9599,3.9242,3.8868,3.8743,3.8755,3.8896,3.9027,3.9245,3.9383,3.8862,3.8676,3.8676,3.8676,3.8676,3.8676,3.8676,3.8676,3.8676,3.8707,3.8707,3.8707,3.8707,3.875,3.8792,3.8738,3.875,3.8792,3.8738,3.8707,3.8707,3.8707,3.8707,3.8707,3.8707,3.8707,3.8707,3.8707,3.8707,3.8707,3.8707,3.8707,3.8707,3.8676,3.8318,3.8101,3.8101,3.8068,3.8068,3.8068,3.8451,3.8689,3.8743,3.8473,3.8328,3.846,3.808,3.7946,3.8068,3.8068,3.8101,3.8101,3.8101,3.8101,3.8101,3.8068,3.7844,0.0,0.0,3.8009,3.5495,0.0,0.0,0.0,0.0,0.0,0.0,0.0,0.0,0.0,0.0,2.9002,2.872,2.7698,0.0,0.0,0.0,0.0,0.0,0.0,0.0,0.0,0.0,0.0,3.6398,3.7756,3.8934,3.9876,3.9954,3.9994,4.0036,4.0117,4.0157,4.0157,4.0215,4.0234,4.0234,4.0291,4.031,4.031,4.031,4.0157,3.9892,3.9807,3.958,3.9287,3.9272,3.9253,3.9313,3.9331,3.9427,3.9477,3.9298,3.9129,3.8979,3.8979,3.9073,3.9219,3.9219,3.9101,3.8979,3.8979,3.8979,3.8921,3.875,3.8881,3.9007,3.875,3.875,3.8792,3.8738,3.8707,3.8707,3.8707,3.8707,3.8707,3.8707,3.8707,3.8707,3.8707,3.8707,3.8707,3.8707,3.8707,3.8707,3.8707,3.8596,3.8483,3.8483,3.8528,3.8572,3.8572,3.8713,3.8851,3.8939,3.8815,3.8688,3.8566,3.8423,3.8373,3.8423,3.8423,3.8535,3.8748,3.8748,3.8748,3.8748,3.8748,3.8455,3.7909,3.8644,0.0,3.6716,3.6135,0.0,3.2928,0.0,0.0,0.0,0.0,0.0,0.0,0.0,0.0,2.9601,2.8193,2.688,0.0,2.5658,0.0,0.0,0.0,0.0,0.0,0.0,3.4338,3.6384,3.7745,3.8963,0.0,0.0,4.0117,4.0157,4.0253,4.031,4.031,4.031,4.031,4.031,4.031,4.031,4.031,4.031,4.0215,4.0038,3.9935,3.9766,3.9561,3.9508,3.9532,3.9585,3.9628,3.9693,3.9739,3.9477,3.9245,3.9129,3.9192,3.935,3.9502,3.9502,3.9401,3.9245,3.9245,3.9245,3.9136,3.8665,3.8887,3.9189,3.8665,3.8728,3.8892,3.8851,3.878,3.8707,3.8707,3.8707,3.8707,3.8707,3.8707,3.8707,3.8707,3.8707,3.8707,3.8707,3.8707,3.8707,3.8707,3.8707,3.8707,3.8707,3.878,3.8822,3.8851,3.891,3.895,3.8997,3.9007,3.896,3.8778,3.8778,3.863,3.8354,3.863,3.8736,3.8674,3.8952,3.9101,3.9101,3.9101,3.8884]}]]